<?xml version="1.0" encoding="UTF-8"?>
<gpx version="1.1" creator="https://www.youtrack.es" xsi:schemaLocation="http://www.topografix.com/GPX/1/1 http://www.topografix.com/GPX/1/1/gpx.xsd http://www.garmin.com/xmlschemas/GpxExtensions/v3 http://www.garmin.com/xmlschemas/GpxExtensionsv3.xsd http://www.garmin.com/xmlschemas/TrackPointExtension/v1 http://www.garmin.com/xmlschemas/TrackPointExtensionv1.xsd" xmlns:gpxtpx="http://www.garmin.com/xmlschemas/TrackPointExtension/v1" xmlns:gpxx="http://www.garmin.com/xmlschemas/GpxExtensions/v3" xmlns:xsi="http://www.w3.org/2001/XMLSchema-instance">
  <metadata>
    <link href="https://www.youtrack.es">
      <text>YouTrack.es</text>
    </link>
    <time>2026-05-07T22:28:41Z</time>
  </metadata>
  <trk>
    <src>https://www.youtrack.es</src>
    <link href="https://www.youtrack.es/ruta/36557-bonaire">
      <text>YouTrack.es</text>
    </link>
    <trkseg>
      <trkpt lat="39.9087030" lon="3.0803800">
        <ele>-14.4</ele>
        <time>2022-09-22T15:14:01Z</time>
      </trkpt>
      <trkpt lat="39.9084160" lon="3.0807620">
        <ele>-15.4</ele>
        <time>2022-09-22T15:14:09Z</time>
      </trkpt>
      <trkpt lat="39.9083160" lon="3.0809050">
        <ele>-15.8</ele>
        <time>2022-09-22T15:14:12Z</time>
      </trkpt>
      <trkpt lat="39.9082090" lon="3.0810590">
        <ele>-16.2</ele>
        <time>2022-09-22T15:14:15Z</time>
      </trkpt>
      <trkpt lat="39.9081810" lon="3.0811190">
        <ele>-16.2</ele>
        <time>2022-09-22T15:14:16Z</time>
      </trkpt>
      <trkpt lat="39.9081150" lon="3.0813130">
        <ele>-16.4</ele>
        <time>2022-09-22T15:14:19Z</time>
      </trkpt>
      <trkpt lat="39.9080800" lon="3.0813630">
        <ele>-16.4</ele>
        <time>2022-09-22T15:14:20Z</time>
      </trkpt>
      <trkpt lat="39.9079170" lon="3.0815270">
        <ele>-17.0</ele>
        <time>2022-09-22T15:14:24Z</time>
      </trkpt>
      <trkpt lat="39.9078730" lon="3.0815600">
        <ele>-17.2</ele>
        <time>2022-09-22T15:14:25Z</time>
      </trkpt>
      <trkpt lat="39.9077990" lon="3.0816420">
        <ele>-17.2</ele>
        <time>2022-09-22T15:14:27Z</time>
      </trkpt>
      <trkpt lat="39.9076890" lon="3.0817560">
        <ele>-17.6</ele>
        <time>2022-09-22T15:14:30Z</time>
      </trkpt>
      <trkpt lat="39.9076120" lon="3.0818130">
        <ele>-17.8</ele>
        <time>2022-09-22T15:14:32Z</time>
      </trkpt>
      <trkpt lat="39.9074960" lon="3.0818670">
        <ele>-17.8</ele>
        <time>2022-09-22T15:14:35Z</time>
      </trkpt>
      <trkpt lat="39.9074560" lon="3.0818750">
        <ele>-17.8</ele>
        <time>2022-09-22T15:14:36Z</time>
      </trkpt>
      <trkpt lat="39.9073350" lon="3.0819380">
        <ele>-17.8</ele>
        <time>2022-09-22T15:14:40Z</time>
      </trkpt>
      <trkpt lat="39.9073890" lon="3.0820520">
        <ele>-17.8</ele>
        <time>2022-09-22T15:14:43Z</time>
      </trkpt>
      <trkpt lat="39.9074910" lon="3.0821580">
        <ele>-17.8</ele>
        <time>2022-09-22T15:14:46Z</time>
      </trkpt>
      <trkpt lat="39.9075340" lon="3.0822470">
        <ele>-18.0</ele>
        <time>2022-09-22T15:14:48Z</time>
      </trkpt>
      <trkpt lat="39.9074930" lon="3.0823880">
        <ele>-18.0</ele>
        <time>2022-09-22T15:14:51Z</time>
      </trkpt>
      <trkpt lat="39.9074680" lon="3.0824360">
        <ele>-17.8</ele>
        <time>2022-09-22T15:14:52Z</time>
      </trkpt>
      <trkpt lat="39.9073550" lon="3.0826760">
        <ele>-18.0</ele>
        <time>2022-09-22T15:14:58Z</time>
      </trkpt>
      <trkpt lat="39.9073000" lon="3.0827260">
        <ele>-18.0</ele>
        <time>2022-09-22T15:15:01Z</time>
      </trkpt>
      <trkpt lat="39.9072740" lon="3.0827210">
        <ele>-18.0</ele>
        <time>2022-09-22T15:15:02Z</time>
      </trkpt>
      <trkpt lat="39.9071170" lon="3.0825930">
        <ele>-18.0</ele>
        <time>2022-09-22T15:15:06Z</time>
      </trkpt>
      <trkpt lat="39.9069470" lon="3.0824330">
        <ele>-18.2</ele>
        <time>2022-09-22T15:15:10Z</time>
      </trkpt>
      <trkpt lat="39.9069010" lon="3.0824220">
        <ele>-18.2</ele>
        <time>2022-09-22T15:15:11Z</time>
      </trkpt>
      <trkpt lat="39.9067850" lon="3.0824980">
        <ele>-18.2</ele>
        <time>2022-09-22T15:15:14Z</time>
      </trkpt>
      <trkpt lat="39.9067460" lon="3.0825290">
        <ele>-18.2</ele>
        <time>2022-09-22T15:15:15Z</time>
      </trkpt>
      <trkpt lat="39.9066670" lon="3.0825840">
        <ele>-18.4</ele>
        <time>2022-09-22T15:15:17Z</time>
      </trkpt>
      <trkpt lat="39.9065840" lon="3.0826230">
        <ele>-18.6</ele>
        <time>2022-09-22T15:15:19Z</time>
      </trkpt>
      <trkpt lat="39.9065410" lon="3.0826510">
        <ele>-18.6</ele>
        <time>2022-09-22T15:15:20Z</time>
      </trkpt>
      <trkpt lat="39.9064940" lon="3.0826830">
        <ele>-18.8</ele>
        <time>2022-09-22T15:15:21Z</time>
      </trkpt>
      <trkpt lat="39.9063480" lon="3.0827710">
        <ele>-19.0</ele>
        <time>2022-09-22T15:15:24Z</time>
      </trkpt>
      <trkpt lat="39.9062590" lon="3.0828190">
        <ele>-19.0</ele>
        <time>2022-09-22T15:15:26Z</time>
      </trkpt>
      <trkpt lat="39.9061800" lon="3.0827870">
        <ele>-19.0</ele>
        <time>2022-09-22T15:15:28Z</time>
      </trkpt>
      <trkpt lat="39.9060970" lon="3.0826930">
        <ele>-19.0</ele>
        <time>2022-09-22T15:15:30Z</time>
      </trkpt>
      <trkpt lat="39.9060050" lon="3.0825820">
        <ele>-19.0</ele>
        <time>2022-09-22T15:15:32Z</time>
      </trkpt>
      <trkpt lat="39.9058560" lon="3.0824380">
        <ele>-19.4</ele>
        <time>2022-09-22T15:15:35Z</time>
      </trkpt>
      <trkpt lat="39.9056950" lon="3.0823210">
        <ele>-19.4</ele>
        <time>2022-09-22T15:15:38Z</time>
      </trkpt>
      <trkpt lat="39.9052690" lon="3.0820240">
        <ele>-19.4</ele>
        <time>2022-09-22T15:15:46Z</time>
      </trkpt>
      <trkpt lat="39.9049550" lon="3.0817850">
        <ele>-19.4</ele>
        <time>2022-09-22T15:15:52Z</time>
      </trkpt>
      <trkpt lat="39.9047300" lon="3.0816510">
        <ele>-19.2</ele>
        <time>2022-09-22T15:15:57Z</time>
      </trkpt>
      <trkpt lat="39.9046210" lon="3.0815840">
        <ele>-19.2</ele>
        <time>2022-09-22T15:16:00Z</time>
      </trkpt>
      <trkpt lat="39.9045680" lon="3.0815570">
        <ele>-19.2</ele>
        <time>2022-09-22T15:16:01Z</time>
      </trkpt>
      <trkpt lat="39.9044590" lon="3.0814920">
        <ele>-19.2</ele>
        <time>2022-09-22T15:16:03Z</time>
      </trkpt>
      <trkpt lat="39.9044050" lon="3.0814520">
        <ele>-19.2</ele>
        <time>2022-09-22T15:16:04Z</time>
      </trkpt>
      <trkpt lat="39.9042940" lon="3.0813720">
        <ele>-19.0</ele>
        <time>2022-09-22T15:16:06Z</time>
      </trkpt>
      <trkpt lat="39.9041890" lon="3.0812930">
        <ele>-19.0</ele>
        <time>2022-09-22T15:16:08Z</time>
      </trkpt>
      <trkpt lat="39.9039970" lon="3.0811450">
        <ele>-19.0</ele>
        <time>2022-09-22T15:16:12Z</time>
      </trkpt>
      <trkpt lat="39.9038600" lon="3.0810430">
        <ele>-19.0</ele>
        <time>2022-09-22T15:16:15Z</time>
      </trkpt>
      <trkpt lat="39.9037210" lon="3.0809340">
        <ele>-19.0</ele>
        <time>2022-09-22T15:16:18Z</time>
      </trkpt>
      <trkpt lat="39.9035740" lon="3.0808180">
        <ele>-19.0</ele>
        <time>2022-09-22T15:16:21Z</time>
      </trkpt>
      <trkpt lat="39.9030670" lon="3.0804280">
        <ele>-19.2</ele>
        <time>2022-09-22T15:16:31Z</time>
      </trkpt>
      <trkpt lat="39.9026630" lon="3.0801230">
        <ele>-18.8</ele>
        <time>2022-09-22T15:16:39Z</time>
      </trkpt>
      <trkpt lat="39.9024980" lon="3.0800340">
        <ele>-18.8</ele>
        <time>2022-09-22T15:16:42Z</time>
      </trkpt>
      <trkpt lat="39.9023260" lon="3.0799540">
        <ele>-19.0</ele>
        <time>2022-09-22T15:16:45Z</time>
      </trkpt>
      <trkpt lat="39.9022630" lon="3.0799310">
        <ele>-18.8</ele>
        <time>2022-09-22T15:16:46Z</time>
      </trkpt>
      <trkpt lat="39.9017340" lon="3.0797490">
        <ele>-18.8</ele>
        <time>2022-09-22T15:16:54Z</time>
      </trkpt>
      <trkpt lat="39.9016660" lon="3.0797250">
        <ele>-19.0</ele>
        <time>2022-09-22T15:16:55Z</time>
      </trkpt>
      <trkpt lat="39.9011090" lon="3.0795900">
        <ele>-19.4</ele>
        <time>2022-09-22T15:17:03Z</time>
      </trkpt>
      <trkpt lat="39.9006680" lon="3.0795310">
        <ele>-19.4</ele>
        <time>2022-09-22T15:17:10Z</time>
      </trkpt>
      <trkpt lat="39.9006110" lon="3.0795210">
        <ele>-19.4</ele>
        <time>2022-09-22T15:17:11Z</time>
      </trkpt>
      <trkpt lat="39.9005000" lon="3.0795040">
        <ele>-19.2</ele>
        <time>2022-09-22T15:17:13Z</time>
      </trkpt>
      <trkpt lat="39.9003950" lon="3.0794890">
        <ele>-19.2</ele>
        <time>2022-09-22T15:17:15Z</time>
      </trkpt>
      <trkpt lat="39.9001980" lon="3.0794570">
        <ele>-19.0</ele>
        <time>2022-09-22T15:17:19Z</time>
      </trkpt>
      <trkpt lat="39.9001500" lon="3.0794510">
        <ele>-18.8</ele>
        <time>2022-09-22T15:17:20Z</time>
      </trkpt>
      <trkpt lat="39.9000450" lon="3.0794400">
        <ele>-18.6</ele>
        <time>2022-09-22T15:17:22Z</time>
      </trkpt>
      <trkpt lat="39.8998160" lon="3.0794060">
        <ele>-18.6</ele>
        <time>2022-09-22T15:17:26Z</time>
      </trkpt>
      <trkpt lat="39.8993290" lon="3.0793300">
        <ele>-18.4</ele>
        <time>2022-09-22T15:17:34Z</time>
      </trkpt>
      <trkpt lat="39.8987630" lon="3.0792090">
        <ele>-18.4</ele>
        <time>2022-09-22T15:17:43Z</time>
      </trkpt>
      <trkpt lat="39.8981710" lon="3.0790560">
        <ele>-18.4</ele>
        <time>2022-09-22T15:17:52Z</time>
      </trkpt>
      <trkpt lat="39.8981050" lon="3.0790380">
        <ele>-18.4</ele>
        <time>2022-09-22T15:17:53Z</time>
      </trkpt>
      <trkpt lat="39.8977320" lon="3.0789450">
        <ele>-18.6</ele>
        <time>2022-09-22T15:17:59Z</time>
      </trkpt>
      <trkpt lat="39.8976860" lon="3.0789290">
        <ele>-18.6</ele>
        <time>2022-09-22T15:18:00Z</time>
      </trkpt>
      <trkpt lat="39.8976410" lon="3.0789120">
        <ele>-18.6</ele>
        <time>2022-09-22T15:18:01Z</time>
      </trkpt>
      <trkpt lat="39.8974940" lon="3.0788750">
        <ele>-18.6</ele>
        <time>2022-09-22T15:18:04Z</time>
      </trkpt>
      <trkpt lat="39.8973830" lon="3.0788570">
        <ele>-18.6</ele>
        <time>2022-09-22T15:18:06Z</time>
      </trkpt>
      <trkpt lat="39.8972050" lon="3.0788010">
        <ele>-18.6</ele>
        <time>2022-09-22T15:18:09Z</time>
      </trkpt>
      <trkpt lat="39.8970180" lon="3.0787410">
        <ele>-18.6</ele>
        <time>2022-09-22T15:18:12Z</time>
      </trkpt>
      <trkpt lat="39.8965570" lon="3.0786190">
        <ele>-18.8</ele>
        <time>2022-09-22T15:18:19Z</time>
      </trkpt>
      <trkpt lat="39.8963640" lon="3.0785680">
        <ele>-18.8</ele>
        <time>2022-09-22T15:18:22Z</time>
      </trkpt>
      <trkpt lat="39.8959690" lon="3.0784700">
        <ele>-18.8</ele>
        <time>2022-09-22T15:18:28Z</time>
      </trkpt>
      <trkpt lat="39.8958360" lon="3.0784340">
        <ele>-19.0</ele>
        <time>2022-09-22T15:18:30Z</time>
      </trkpt>
      <trkpt lat="39.8953580" lon="3.0783220">
        <ele>-18.8</ele>
        <time>2022-09-22T15:18:37Z</time>
      </trkpt>
      <trkpt lat="39.8952200" lon="3.0783000">
        <ele>-18.8</ele>
        <time>2022-09-22T15:18:39Z</time>
      </trkpt>
      <trkpt lat="39.8947400" lon="3.0782650">
        <ele>-18.8</ele>
        <time>2022-09-22T15:18:46Z</time>
      </trkpt>
      <trkpt lat="39.8942080" lon="3.0782630">
        <ele>-18.6</ele>
        <time>2022-09-22T15:18:54Z</time>
      </trkpt>
      <trkpt lat="39.8940030" lon="3.0782580">
        <ele>-18.8</ele>
        <time>2022-09-22T15:18:57Z</time>
      </trkpt>
      <trkpt lat="39.8936040" lon="3.0782540">
        <ele>-18.6</ele>
        <time>2022-09-22T15:19:03Z</time>
      </trkpt>
      <trkpt lat="39.8933590" lon="3.0782530">
        <ele>-18.6</ele>
        <time>2022-09-22T15:19:07Z</time>
      </trkpt>
      <trkpt lat="39.8931360" lon="3.0782520">
        <ele>-18.4</ele>
        <time>2022-09-22T15:19:11Z</time>
      </trkpt>
      <trkpt lat="39.8930830" lon="3.0782530">
        <ele>-18.2</ele>
        <time>2022-09-22T15:19:12Z</time>
      </trkpt>
      <trkpt lat="39.8929270" lon="3.0782490">
        <ele>-18.0</ele>
        <time>2022-09-22T15:19:15Z</time>
      </trkpt>
      <trkpt lat="39.8927580" lon="3.0782490">
        <ele>-18.0</ele>
        <time>2022-09-22T15:19:18Z</time>
      </trkpt>
      <trkpt lat="39.8927010" lon="3.0782470">
        <ele>-18.0</ele>
        <time>2022-09-22T15:19:19Z</time>
      </trkpt>
      <trkpt lat="39.8922110" lon="3.0782470">
        <ele>-17.8</ele>
        <time>2022-09-22T15:19:27Z</time>
      </trkpt>
      <trkpt lat="39.8920090" lon="3.0782430">
        <ele>-17.8</ele>
        <time>2022-09-22T15:19:30Z</time>
      </trkpt>
      <trkpt lat="39.8918750" lon="3.0782380">
        <ele>-17.8</ele>
        <time>2022-09-22T15:19:32Z</time>
      </trkpt>
      <trkpt lat="39.8917400" lon="3.0782380">
        <ele>-17.8</ele>
        <time>2022-09-22T15:19:34Z</time>
      </trkpt>
      <trkpt lat="39.8912000" lon="3.0782380">
        <ele>-18.0</ele>
        <time>2022-09-22T15:19:42Z</time>
      </trkpt>
      <trkpt lat="39.8907320" lon="3.0782320">
        <ele>-18.2</ele>
        <time>2022-09-22T15:19:49Z</time>
      </trkpt>
      <trkpt lat="39.8905300" lon="3.0782340">
        <ele>-18.2</ele>
        <time>2022-09-22T15:19:52Z</time>
      </trkpt>
      <trkpt lat="39.8902580" lon="3.0782320">
        <ele>-18.2</ele>
        <time>2022-09-22T15:19:56Z</time>
      </trkpt>
      <trkpt lat="39.8901900" lon="3.0782310">
        <ele>-18.2</ele>
        <time>2022-09-22T15:19:57Z</time>
      </trkpt>
      <trkpt lat="39.8896400" lon="3.0782230">
        <ele>-18.0</ele>
        <time>2022-09-22T15:20:05Z</time>
      </trkpt>
      <trkpt lat="39.8895710" lon="3.0782200">
        <ele>-18.0</ele>
        <time>2022-09-22T15:20:06Z</time>
      </trkpt>
      <trkpt lat="39.8891440" lon="3.0782140">
        <ele>-18.0</ele>
        <time>2022-09-22T15:20:12Z</time>
      </trkpt>
      <trkpt lat="39.8885760" lon="3.0782420">
        <ele>-17.8</ele>
        <time>2022-09-22T15:20:20Z</time>
      </trkpt>
      <trkpt lat="39.8883640" lon="3.0782680">
        <ele>-17.6</ele>
        <time>2022-09-22T15:20:23Z</time>
      </trkpt>
      <trkpt lat="39.8880800" lon="3.0783390">
        <ele>-17.6</ele>
        <time>2022-09-22T15:20:27Z</time>
      </trkpt>
      <trkpt lat="39.8875930" lon="3.0784950">
        <ele>-17.4</ele>
        <time>2022-09-22T15:20:34Z</time>
      </trkpt>
      <trkpt lat="39.8874550" lon="3.0785440">
        <ele>-17.4</ele>
        <time>2022-09-22T15:20:36Z</time>
      </trkpt>
      <trkpt lat="39.8871030" lon="3.0786730">
        <ele>-17.4</ele>
        <time>2022-09-22T15:20:41Z</time>
      </trkpt>
      <trkpt lat="39.8868200" lon="3.0787790">
        <ele>-17.4</ele>
        <time>2022-09-22T15:20:45Z</time>
      </trkpt>
      <trkpt lat="39.8862500" lon="3.0789930">
        <ele>-17.6</ele>
        <time>2022-09-22T15:20:53Z</time>
      </trkpt>
      <trkpt lat="39.8858970" lon="3.0791220">
        <ele>-17.6</ele>
        <time>2022-09-22T15:20:58Z</time>
      </trkpt>
      <trkpt lat="39.8854130" lon="3.0793050">
        <ele>-17.8</ele>
        <time>2022-09-22T15:21:05Z</time>
      </trkpt>
      <trkpt lat="39.8851410" lon="3.0794070">
        <ele>-17.6</ele>
        <time>2022-09-22T15:21:09Z</time>
      </trkpt>
      <trkpt lat="39.8846010" lon="3.0796070">
        <ele>-17.8</ele>
        <time>2022-09-22T15:21:17Z</time>
      </trkpt>
      <trkpt lat="39.8842650" lon="3.0797090">
        <ele>-18.0</ele>
        <time>2022-09-22T15:21:22Z</time>
      </trkpt>
      <trkpt lat="39.8840040" lon="3.0798330">
        <ele>-18.0</ele>
        <time>2022-09-22T15:21:26Z</time>
      </trkpt>
      <trkpt lat="39.8838740" lon="3.0798820">
        <ele>-17.8</ele>
        <time>2022-09-22T15:21:28Z</time>
      </trkpt>
      <trkpt lat="39.8834380" lon="3.0800500">
        <ele>-17.0</ele>
        <time>2022-09-22T15:21:35Z</time>
      </trkpt>
      <trkpt lat="39.8833280" lon="3.0800920">
        <ele>-16.8</ele>
        <time>2022-09-22T15:21:37Z</time>
      </trkpt>
      <trkpt lat="39.8831830" lon="3.0801450">
        <ele>-16.2</ele>
        <time>2022-09-22T15:21:40Z</time>
      </trkpt>
      <trkpt lat="39.8831390" lon="3.0801590">
        <ele>-16.0</ele>
        <time>2022-09-22T15:21:41Z</time>
      </trkpt>
      <trkpt lat="39.8830590" lon="3.0801800">
        <ele>-15.8</ele>
        <time>2022-09-22T15:21:43Z</time>
      </trkpt>
      <trkpt lat="39.8829680" lon="3.0801860">
        <ele>-15.8</ele>
        <time>2022-09-22T15:21:45Z</time>
      </trkpt>
      <trkpt lat="39.8829140" lon="3.0801810">
        <ele>-15.8</ele>
        <time>2022-09-22T15:21:46Z</time>
      </trkpt>
      <trkpt lat="39.8828540" lon="3.0801810">
        <ele>-15.8</ele>
        <time>2022-09-22T15:21:47Z</time>
      </trkpt>
      <trkpt lat="39.8827230" lon="3.0802140">
        <ele>-15.8</ele>
        <time>2022-09-22T15:21:49Z</time>
      </trkpt>
      <trkpt lat="39.8824570" lon="3.0803170">
        <ele>-15.8</ele>
        <time>2022-09-22T15:21:53Z</time>
      </trkpt>
      <trkpt lat="39.8821060" lon="3.0804460">
        <ele>-15.8</ele>
        <time>2022-09-22T15:21:58Z</time>
      </trkpt>
      <trkpt lat="39.8818130" lon="3.0805530">
        <ele>-16.0</ele>
        <time>2022-09-22T15:22:02Z</time>
      </trkpt>
      <trkpt lat="39.8815850" lon="3.0806350">
        <ele>-16.0</ele>
        <time>2022-09-22T15:22:05Z</time>
      </trkpt>
      <trkpt lat="39.8813520" lon="3.0807240">
        <ele>-16.2</ele>
        <time>2022-09-22T15:22:08Z</time>
      </trkpt>
      <trkpt lat="39.8808050" lon="3.0809250">
        <ele>-17.2</ele>
        <time>2022-09-22T15:22:15Z</time>
      </trkpt>
      <trkpt lat="39.8804180" lon="3.0810710">
        <ele>-18.0</ele>
        <time>2022-09-22T15:22:20Z</time>
      </trkpt>
      <trkpt lat="39.8798940" lon="3.0812650">
        <ele>-18.2</ele>
        <time>2022-09-22T15:22:27Z</time>
      </trkpt>
      <trkpt lat="39.8795970" lon="3.0813740">
        <ele>-18.4</ele>
        <time>2022-09-22T15:22:31Z</time>
      </trkpt>
      <trkpt lat="39.8793770" lon="3.0814550">
        <ele>-18.4</ele>
        <time>2022-09-22T15:22:34Z</time>
      </trkpt>
      <trkpt lat="39.8788620" lon="3.0816710">
        <ele>-18.0</ele>
        <time>2022-09-22T15:22:41Z</time>
      </trkpt>
      <trkpt lat="39.8787880" lon="3.0817050">
        <ele>-18.0</ele>
        <time>2022-09-22T15:22:42Z</time>
      </trkpt>
      <trkpt lat="39.8782750" lon="3.0819570">
        <ele>-17.8</ele>
        <time>2022-09-22T15:22:49Z</time>
      </trkpt>
      <trkpt lat="39.8779780" lon="3.0821110">
        <ele>-17.6</ele>
        <time>2022-09-22T15:22:53Z</time>
      </trkpt>
      <trkpt lat="39.8774610" lon="3.0823720">
        <ele>-17.6</ele>
        <time>2022-09-22T15:23:00Z</time>
      </trkpt>
      <trkpt lat="39.8771700" lon="3.0825230">
        <ele>-17.8</ele>
        <time>2022-09-22T15:23:04Z</time>
      </trkpt>
      <trkpt lat="39.8766500" lon="3.0827950">
        <ele>-17.8</ele>
        <time>2022-09-22T15:23:11Z</time>
      </trkpt>
      <trkpt lat="39.8762700" lon="3.0829920">
        <ele>-17.8</ele>
        <time>2022-09-22T15:23:16Z</time>
      </trkpt>
      <trkpt lat="39.8757400" lon="3.0832860">
        <ele>-17.4</ele>
        <time>2022-09-22T15:23:23Z</time>
      </trkpt>
      <trkpt lat="39.8753570" lon="3.0834970">
        <ele>-17.4</ele>
        <time>2022-09-22T15:23:28Z</time>
      </trkpt>
      <trkpt lat="39.8748280" lon="3.0837970">
        <ele>-17.6</ele>
        <time>2022-09-22T15:23:35Z</time>
      </trkpt>
      <trkpt lat="39.8745310" lon="3.0839760">
        <ele>-17.6</ele>
        <time>2022-09-22T15:23:39Z</time>
      </trkpt>
      <trkpt lat="39.8740160" lon="3.0842840">
        <ele>-17.2</ele>
        <time>2022-09-22T15:23:46Z</time>
      </trkpt>
      <trkpt lat="39.8737160" lon="3.0844570">
        <ele>-17.2</ele>
        <time>2022-09-22T15:23:50Z</time>
      </trkpt>
      <trkpt lat="39.8731970" lon="3.0847770">
        <ele>-17.2</ele>
        <time>2022-09-22T15:23:57Z</time>
      </trkpt>
      <trkpt lat="39.8729880" lon="3.0849060">
        <ele>-17.4</ele>
        <time>2022-09-22T15:24:00Z</time>
      </trkpt>
      <trkpt lat="39.8727950" lon="3.0850300">
        <ele>-17.6</ele>
        <time>2022-09-22T15:24:03Z</time>
      </trkpt>
      <trkpt lat="39.8727320" lon="3.0850670">
        <ele>-17.6</ele>
        <time>2022-09-22T15:24:04Z</time>
      </trkpt>
      <trkpt lat="39.8722550" lon="3.0853580">
        <ele>-18.2</ele>
        <time>2022-09-22T15:24:11Z</time>
      </trkpt>
      <trkpt lat="39.8717590" lon="3.0856640">
        <ele>-18.2</ele>
        <time>2022-09-22T15:24:18Z</time>
      </trkpt>
      <trkpt lat="39.8714850" lon="3.0858320">
        <ele>-18.2</ele>
        <time>2022-09-22T15:24:22Z</time>
      </trkpt>
      <trkpt lat="39.8711400" lon="3.0860330">
        <ele>-18.4</ele>
        <time>2022-09-22T15:24:27Z</time>
      </trkpt>
      <trkpt lat="39.8708540" lon="3.0861800">
        <ele>-18.2</ele>
        <time>2022-09-22T15:24:31Z</time>
      </trkpt>
      <trkpt lat="39.8703000" lon="3.0865110">
        <ele>-18.4</ele>
        <time>2022-09-22T15:24:39Z</time>
      </trkpt>
      <trkpt lat="39.8702320" lon="3.0865570">
        <ele>-18.4</ele>
        <time>2022-09-22T15:24:40Z</time>
      </trkpt>
      <trkpt lat="39.8698430" lon="3.0868720">
        <ele>-17.8</ele>
        <time>2022-09-22T15:24:46Z</time>
      </trkpt>
      <trkpt lat="39.8697170" lon="3.0869880">
        <ele>-17.6</ele>
        <time>2022-09-22T15:24:48Z</time>
      </trkpt>
      <trkpt lat="39.8695230" lon="3.0871590">
        <ele>-17.4</ele>
        <time>2022-09-22T15:24:51Z</time>
      </trkpt>
      <trkpt lat="39.8690580" lon="3.0875440">
        <ele>-17.2</ele>
        <time>2022-09-22T15:24:58Z</time>
      </trkpt>
      <trkpt lat="39.8689910" lon="3.0875980">
        <ele>-17.2</ele>
        <time>2022-09-22T15:24:59Z</time>
      </trkpt>
      <trkpt lat="39.8685960" lon="3.0879220">
        <ele>-17.2</ele>
        <time>2022-09-22T15:25:05Z</time>
      </trkpt>
      <trkpt lat="39.8683970" lon="3.0880840">
        <ele>-17.8</ele>
        <time>2022-09-22T15:25:08Z</time>
      </trkpt>
      <trkpt lat="39.8679380" lon="3.0884610">
        <ele>-17.8</ele>
        <time>2022-09-22T15:25:15Z</time>
      </trkpt>
      <trkpt lat="39.8675490" lon="3.0887810">
        <ele>-17.2</ele>
        <time>2022-09-22T15:25:21Z</time>
      </trkpt>
      <trkpt lat="39.8670330" lon="3.0892000">
        <ele>-17.6</ele>
        <time>2022-09-22T15:25:29Z</time>
      </trkpt>
      <trkpt lat="39.8668420" lon="3.0893550">
        <ele>-17.6</ele>
        <time>2022-09-22T15:25:32Z</time>
      </trkpt>
      <trkpt lat="39.8664080" lon="3.0897250">
        <ele>-18.0</ele>
        <time>2022-09-22T15:25:39Z</time>
      </trkpt>
      <trkpt lat="39.8662940" lon="3.0898470">
        <ele>-18.0</ele>
        <time>2022-09-22T15:25:41Z</time>
      </trkpt>
      <trkpt lat="39.8658690" lon="3.0902810">
        <ele>-17.8</ele>
        <time>2022-09-22T15:25:48Z</time>
      </trkpt>
      <trkpt lat="39.8654610" lon="3.0907590">
        <ele>-17.4</ele>
        <time>2022-09-22T15:25:55Z</time>
      </trkpt>
      <trkpt lat="39.8653540" lon="3.0909110">
        <ele>-17.4</ele>
        <time>2022-09-22T15:25:57Z</time>
      </trkpt>
      <trkpt lat="39.8650020" lon="3.0914620">
        <ele>-17.4</ele>
        <time>2022-09-22T15:26:04Z</time>
      </trkpt>
      <trkpt lat="39.8648090" lon="3.0917860">
        <ele>-17.4</ele>
        <time>2022-09-22T15:26:08Z</time>
      </trkpt>
      <trkpt lat="39.8644890" lon="3.0923590">
        <ele>-17.6</ele>
        <time>2022-09-22T15:26:15Z</time>
      </trkpt>
      <trkpt lat="39.8643970" lon="3.0925210">
        <ele>-17.6</ele>
        <time>2022-09-22T15:26:17Z</time>
      </trkpt>
      <trkpt lat="39.8640360" lon="3.0931660">
        <ele>-18.0</ele>
        <time>2022-09-22T15:26:25Z</time>
      </trkpt>
      <trkpt lat="39.8638520" lon="3.0934900">
        <ele>-18.0</ele>
        <time>2022-09-22T15:26:29Z</time>
      </trkpt>
      <trkpt lat="39.8635070" lon="3.0940500">
        <ele>-18.4</ele>
        <time>2022-09-22T15:26:36Z</time>
      </trkpt>
      <trkpt lat="39.8633050" lon="3.0943610">
        <ele>-18.4</ele>
        <time>2022-09-22T15:26:40Z</time>
      </trkpt>
      <trkpt lat="39.8629410" lon="3.0948850">
        <ele>-18.2</ele>
        <time>2022-09-22T15:26:47Z</time>
      </trkpt>
      <trkpt lat="39.8627290" lon="3.0951790">
        <ele>-18.0</ele>
        <time>2022-09-22T15:26:51Z</time>
      </trkpt>
      <trkpt lat="39.8624050" lon="3.0956120">
        <ele>-18.0</ele>
        <time>2022-09-22T15:26:57Z</time>
      </trkpt>
      <trkpt lat="39.8622990" lon="3.0957590">
        <ele>-18.0</ele>
        <time>2022-09-22T15:26:59Z</time>
      </trkpt>
      <trkpt lat="39.8618750" lon="3.0963320">
        <ele>-17.6</ele>
        <time>2022-09-22T15:27:07Z</time>
      </trkpt>
      <trkpt lat="39.8618260" lon="3.0963990">
        <ele>-17.6</ele>
        <time>2022-09-22T15:27:08Z</time>
      </trkpt>
      <trkpt lat="39.8616180" lon="3.0966820">
        <ele>-17.6</ele>
        <time>2022-09-22T15:27:12Z</time>
      </trkpt>
      <trkpt lat="39.8613980" lon="3.0969670">
        <ele>-17.6</ele>
        <time>2022-09-22T15:27:16Z</time>
      </trkpt>
      <trkpt lat="39.8609730" lon="3.0974140">
        <ele>-17.6</ele>
        <time>2022-09-22T15:27:23Z</time>
      </trkpt>
      <trkpt lat="39.8605180" lon="3.0977850">
        <ele>-17.6</ele>
        <time>2022-09-22T15:27:30Z</time>
      </trkpt>
      <trkpt lat="39.8599850" lon="3.0981790">
        <ele>-17.6</ele>
        <time>2022-09-22T15:27:38Z</time>
      </trkpt>
      <trkpt lat="39.8599190" lon="3.0982270">
        <ele>-17.6</ele>
        <time>2022-09-22T15:27:39Z</time>
      </trkpt>
      <trkpt lat="39.8598530" lon="3.0982750">
        <ele>-17.6</ele>
        <time>2022-09-22T15:27:40Z</time>
      </trkpt>
      <trkpt lat="39.8593460" lon="3.0986670">
        <ele>-17.2</ele>
        <time>2022-09-22T15:27:48Z</time>
      </trkpt>
      <trkpt lat="39.8592240" lon="3.0987780">
        <ele>-17.0</ele>
        <time>2022-09-22T15:27:50Z</time>
      </trkpt>
      <trkpt lat="39.8589570" lon="3.0991320">
        <ele>-16.8</ele>
        <time>2022-09-22T15:27:55Z</time>
      </trkpt>
      <trkpt lat="39.8587520" lon="3.0995560">
        <ele>-16.8</ele>
        <time>2022-09-22T15:28:00Z</time>
      </trkpt>
      <trkpt lat="39.8585980" lon="3.1001180">
        <ele>-17.2</ele>
        <time>2022-09-22T15:28:06Z</time>
      </trkpt>
      <trkpt lat="39.8584960" lon="3.1008130">
        <ele>-17.8</ele>
        <time>2022-09-22T15:28:13Z</time>
      </trkpt>
      <trkpt lat="39.8584430" lon="3.1012070">
        <ele>-18.0</ele>
        <time>2022-09-22T15:28:17Z</time>
      </trkpt>
      <trkpt lat="39.8582820" lon="3.1018560">
        <ele>-18.2</ele>
        <time>2022-09-22T15:28:24Z</time>
      </trkpt>
      <trkpt lat="39.8580730" lon="3.1025850">
        <ele>-18.2</ele>
        <time>2022-09-22T15:28:32Z</time>
      </trkpt>
      <trkpt lat="39.8579970" lon="3.1028530">
        <ele>-18.4</ele>
        <time>2022-09-22T15:28:35Z</time>
      </trkpt>
      <trkpt lat="39.8577860" lon="3.1035530">
        <ele>-18.6</ele>
        <time>2022-09-22T15:28:43Z</time>
      </trkpt>
      <trkpt lat="39.8577230" lon="3.1037220">
        <ele>-18.6</ele>
        <time>2022-09-22T15:28:45Z</time>
      </trkpt>
      <trkpt lat="39.8574920" lon="3.1042700">
        <ele>-18.6</ele>
        <time>2022-09-22T15:28:52Z</time>
      </trkpt>
      <trkpt lat="39.8574670" lon="3.1043450">
        <ele>-18.4</ele>
        <time>2022-09-22T15:28:53Z</time>
      </trkpt>
      <trkpt lat="39.8574090" lon="3.1046380">
        <ele>-18.4</ele>
        <time>2022-09-22T15:28:57Z</time>
      </trkpt>
      <trkpt lat="39.8573940" lon="3.1047080">
        <ele>-18.2</ele>
        <time>2022-09-22T15:28:58Z</time>
      </trkpt>
      <trkpt lat="39.8572900" lon="3.1049780">
        <ele>-18.2</ele>
        <time>2022-09-22T15:29:02Z</time>
      </trkpt>
      <trkpt lat="39.8572470" lon="3.1051210">
        <ele>-18.0</ele>
        <time>2022-09-22T15:29:04Z</time>
      </trkpt>
      <trkpt lat="39.8572290" lon="3.1052930">
        <ele>-18.0</ele>
        <time>2022-09-22T15:29:06Z</time>
      </trkpt>
      <trkpt lat="39.8571410" lon="3.1058060">
        <ele>-18.2</ele>
        <time>2022-09-22T15:29:12Z</time>
      </trkpt>
      <trkpt lat="39.8570060" lon="3.1065470">
        <ele>-18.6</ele>
        <time>2022-09-22T15:29:21Z</time>
      </trkpt>
      <trkpt lat="39.8568890" lon="3.1072060">
        <ele>-18.8</ele>
        <time>2022-09-22T15:29:29Z</time>
      </trkpt>
      <trkpt lat="39.8567890" lon="3.1078740">
        <ele>-19.2</ele>
        <time>2022-09-22T15:29:37Z</time>
      </trkpt>
      <trkpt lat="39.8567710" lon="3.1080950">
        <ele>-19.0</ele>
        <time>2022-09-22T15:29:40Z</time>
      </trkpt>
      <trkpt lat="39.8567860" lon="3.1082260">
        <ele>-19.0</ele>
        <time>2022-09-22T15:29:42Z</time>
      </trkpt>
      <trkpt lat="39.8568690" lon="3.1083670">
        <ele>-19.0</ele>
        <time>2022-09-22T15:29:45Z</time>
      </trkpt>
      <trkpt lat="39.8570260" lon="3.1083600">
        <ele>-19.0</ele>
        <time>2022-09-22T15:29:48Z</time>
      </trkpt>
      <trkpt lat="39.8570820" lon="3.1083310">
        <ele>-19.0</ele>
        <time>2022-09-22T15:29:49Z</time>
      </trkpt>
      <trkpt lat="39.8573740" lon="3.1081830">
        <ele>-19.0</ele>
        <time>2022-09-22T15:29:54Z</time>
      </trkpt>
      <trkpt lat="39.8577320" lon="3.1079650">
        <ele>-19.4</ele>
        <time>2022-09-22T15:30:01Z</time>
      </trkpt>
      <trkpt lat="39.8577750" lon="3.1079360">
        <ele>-19.4</ele>
        <time>2022-09-22T15:30:02Z</time>
      </trkpt>
      <trkpt lat="39.8579010" lon="3.1079400">
        <ele>-19.2</ele>
        <time>2022-09-22T15:30:05Z</time>
      </trkpt>
      <trkpt lat="39.8579590" lon="3.1081060">
        <ele>-19.4</ele>
        <time>2022-09-22T15:30:08Z</time>
      </trkpt>
      <trkpt lat="39.8580080" lon="3.1083130">
        <ele>-19.4</ele>
        <time>2022-09-22T15:30:11Z</time>
      </trkpt>
      <trkpt lat="39.8580220" lon="3.1084590">
        <ele>-19.6</ele>
        <time>2022-09-22T15:30:13Z</time>
      </trkpt>
      <trkpt lat="39.8579820" lon="3.1087640">
        <ele>-19.4</ele>
        <time>2022-09-22T15:30:17Z</time>
      </trkpt>
      <trkpt lat="39.8579630" lon="3.1088380">
        <ele>-19.4</ele>
        <time>2022-09-22T15:30:18Z</time>
      </trkpt>
      <trkpt lat="39.8579290" lon="3.1089850">
        <ele>-19.4</ele>
        <time>2022-09-22T15:30:20Z</time>
      </trkpt>
      <trkpt lat="39.8579350" lon="3.1092080">
        <ele>-19.4</ele>
        <time>2022-09-22T15:30:23Z</time>
      </trkpt>
      <trkpt lat="39.8579450" lon="3.1092810">
        <ele>-19.2</ele>
        <time>2022-09-22T15:30:24Z</time>
      </trkpt>
      <trkpt lat="39.8580140" lon="3.1098020">
        <ele>-19.0</ele>
        <time>2022-09-22T15:30:31Z</time>
      </trkpt>
      <trkpt lat="39.8580860" lon="3.1100890">
        <ele>-19.0</ele>
        <time>2022-09-22T15:30:35Z</time>
      </trkpt>
      <trkpt lat="39.8581460" lon="3.1102150">
        <ele>-19.4</ele>
        <time>2022-09-22T15:30:37Z</time>
      </trkpt>
      <trkpt lat="39.8582160" lon="3.1103320">
        <ele>-19.2</ele>
        <time>2022-09-22T15:30:39Z</time>
      </trkpt>
      <trkpt lat="39.8583050" lon="3.1104260">
        <ele>-19.4</ele>
        <time>2022-09-22T15:30:41Z</time>
      </trkpt>
      <trkpt lat="39.8584020" lon="3.1105090">
        <ele>-19.4</ele>
        <time>2022-09-22T15:30:43Z</time>
      </trkpt>
      <trkpt lat="39.8584790" lon="3.1106200">
        <ele>-19.4</ele>
        <time>2022-09-22T15:30:45Z</time>
      </trkpt>
      <trkpt lat="39.8585650" lon="3.1107130">
        <ele>-19.4</ele>
        <time>2022-09-22T15:30:47Z</time>
      </trkpt>
      <trkpt lat="39.8586760" lon="3.1107520">
        <ele>-19.4</ele>
        <time>2022-09-22T15:30:49Z</time>
      </trkpt>
      <trkpt lat="39.8588980" lon="3.1108530">
        <ele>-19.4</ele>
        <time>2022-09-22T15:30:53Z</time>
      </trkpt>
      <trkpt lat="39.8589550" lon="3.1108800">
        <ele>-19.4</ele>
        <time>2022-09-22T15:30:54Z</time>
      </trkpt>
      <trkpt lat="39.8590120" lon="3.1109010">
        <ele>-19.4</ele>
        <time>2022-09-22T15:30:55Z</time>
      </trkpt>
      <trkpt lat="39.8591310" lon="3.1109320">
        <ele>-19.4</ele>
        <time>2022-09-22T15:30:57Z</time>
      </trkpt>
      <trkpt lat="39.8591890" lon="3.1109570">
        <ele>-19.4</ele>
        <time>2022-09-22T15:30:58Z</time>
      </trkpt>
      <trkpt lat="39.8593550" lon="3.1110460">
        <ele>-19.4</ele>
        <time>2022-09-22T15:31:01Z</time>
      </trkpt>
      <trkpt lat="39.8595710" lon="3.1111690">
        <ele>-19.4</ele>
        <time>2022-09-22T15:31:05Z</time>
      </trkpt>
      <trkpt lat="39.8596800" lon="3.1112210">
        <ele>-19.6</ele>
        <time>2022-09-22T15:31:07Z</time>
      </trkpt>
      <trkpt lat="39.8601240" lon="3.1114220">
        <ele>-19.4</ele>
        <time>2022-09-22T15:31:15Z</time>
      </trkpt>
      <trkpt lat="39.8605180" lon="3.1116140">
        <ele>-19.0</ele>
        <time>2022-09-22T15:31:22Z</time>
      </trkpt>
      <trkpt lat="39.8606290" lon="3.1116710">
        <ele>-19.0</ele>
        <time>2022-09-22T15:31:24Z</time>
      </trkpt>
      <trkpt lat="39.8606810" lon="3.1117100">
        <ele>-19.0</ele>
        <time>2022-09-22T15:31:25Z</time>
      </trkpt>
      <trkpt lat="39.8607640" lon="3.1118200">
        <ele>-18.8</ele>
        <time>2022-09-22T15:31:27Z</time>
      </trkpt>
      <trkpt lat="39.8610130" lon="3.1122480">
        <ele>-18.8</ele>
        <time>2022-09-22T15:31:34Z</time>
      </trkpt>
      <trkpt lat="39.8610810" lon="3.1123700">
        <ele>-18.6</ele>
        <time>2022-09-22T15:31:36Z</time>
      </trkpt>
      <trkpt lat="39.8611140" lon="3.1125140">
        <ele>-18.6</ele>
        <time>2022-09-22T15:31:38Z</time>
      </trkpt>
      <trkpt lat="39.8611170" lon="3.1126710">
        <ele>-18.8</ele>
        <time>2022-09-22T15:31:40Z</time>
      </trkpt>
      <trkpt lat="39.8611050" lon="3.1129110">
        <ele>-19.0</ele>
        <time>2022-09-22T15:31:43Z</time>
      </trkpt>
      <trkpt lat="39.8610970" lon="3.1134630">
        <ele>-19.2</ele>
        <time>2022-09-22T15:31:50Z</time>
      </trkpt>
      <trkpt lat="39.8611080" lon="3.1135390">
        <ele>-19.2</ele>
        <time>2022-09-22T15:31:51Z</time>
      </trkpt>
      <trkpt lat="39.8612150" lon="3.1138140">
        <ele>-19.4</ele>
        <time>2022-09-22T15:31:55Z</time>
      </trkpt>
      <trkpt lat="39.8613960" lon="3.1142950">
        <ele>-19.2</ele>
        <time>2022-09-22T15:32:02Z</time>
      </trkpt>
      <trkpt lat="39.8614370" lon="3.1145270">
        <ele>-19.2</ele>
        <time>2022-09-22T15:32:05Z</time>
      </trkpt>
      <trkpt lat="39.8615020" lon="3.1146650">
        <ele>-19.2</ele>
        <time>2022-09-22T15:32:07Z</time>
      </trkpt>
      <trkpt lat="39.8616590" lon="3.1149950">
        <ele>-19.4</ele>
        <time>2022-09-22T15:32:12Z</time>
      </trkpt>
      <trkpt lat="39.8616900" lon="3.1150630">
        <ele>-19.2</ele>
        <time>2022-09-22T15:32:13Z</time>
      </trkpt>
      <trkpt lat="39.8617930" lon="3.1152580">
        <ele>-19.8</ele>
        <time>2022-09-22T15:32:16Z</time>
      </trkpt>
      <trkpt lat="39.8619140" lon="3.1154400">
        <ele>-19.8</ele>
        <time>2022-09-22T15:32:19Z</time>
      </trkpt>
      <trkpt lat="39.8619890" lon="3.1155730">
        <ele>-19.8</ele>
        <time>2022-09-22T15:32:21Z</time>
      </trkpt>
      <trkpt lat="39.8620620" lon="3.1156970">
        <ele>-19.8</ele>
        <time>2022-09-22T15:32:23Z</time>
      </trkpt>
      <trkpt lat="39.8621150" lon="3.1157350">
        <ele>-19.8</ele>
        <time>2022-09-22T15:32:24Z</time>
      </trkpt>
      <trkpt lat="39.8624240" lon="3.1158140">
        <ele>-19.6</ele>
        <time>2022-09-22T15:32:29Z</time>
      </trkpt>
      <trkpt lat="39.8627720" lon="3.1159190">
        <ele>-19.2</ele>
        <time>2022-09-22T15:32:35Z</time>
      </trkpt>
      <trkpt lat="39.8628270" lon="3.1159300">
        <ele>-19.0</ele>
        <time>2022-09-22T15:32:36Z</time>
      </trkpt>
      <trkpt lat="39.8629790" lon="3.1159730">
        <ele>-19.0</ele>
        <time>2022-09-22T15:32:39Z</time>
      </trkpt>
      <trkpt lat="39.8631370" lon="3.1160050">
        <ele>-18.6</ele>
        <time>2022-09-22T15:32:42Z</time>
      </trkpt>
      <trkpt lat="39.8631900" lon="3.1160130">
        <ele>-18.4</ele>
        <time>2022-09-22T15:32:43Z</time>
      </trkpt>
      <trkpt lat="39.8634160" lon="3.1160620">
        <ele>-18.0</ele>
        <time>2022-09-22T15:32:47Z</time>
      </trkpt>
      <trkpt lat="39.8635420" lon="3.1160980">
        <ele>-18.0</ele>
        <time>2022-09-22T15:32:49Z</time>
      </trkpt>
      <trkpt lat="39.8636040" lon="3.1161130">
        <ele>-18.0</ele>
        <time>2022-09-22T15:32:50Z</time>
      </trkpt>
      <trkpt lat="39.8637930" lon="3.1161340">
        <ele>-18.0</ele>
        <time>2022-09-22T15:32:53Z</time>
      </trkpt>
      <trkpt lat="39.8639140" lon="3.1162260">
        <ele>-18.2</ele>
        <time>2022-09-22T15:32:56Z</time>
      </trkpt>
      <trkpt lat="39.8639290" lon="3.1163180">
        <ele>-18.2</ele>
        <time>2022-09-22T15:32:59Z</time>
      </trkpt>
      <trkpt lat="39.8639150" lon="3.1164550">
        <ele>-18.0</ele>
        <time>2022-09-22T15:33:04Z</time>
      </trkpt>
      <trkpt lat="39.8638860" lon="3.1165560">
        <ele>-17.4</ele>
        <time>2022-09-22T15:33:06Z</time>
      </trkpt>
      <trkpt lat="39.8638220" lon="3.1167220">
        <ele>-17.0</ele>
        <time>2022-09-22T15:33:09Z</time>
      </trkpt>
      <trkpt lat="39.8636730" lon="3.1171250">
        <ele>-16.8</ele>
        <time>2022-09-22T15:33:16Z</time>
      </trkpt>
      <trkpt lat="39.8635810" lon="3.1173860">
        <ele>-16.8</ele>
        <time>2022-09-22T15:33:20Z</time>
      </trkpt>
      <trkpt lat="39.8635470" lon="3.1174610">
        <ele>-16.8</ele>
        <time>2022-09-22T15:33:21Z</time>
      </trkpt>
      <trkpt lat="39.8634410" lon="3.1175710">
        <ele>-17.0</ele>
        <time>2022-09-22T15:33:23Z</time>
      </trkpt>
      <trkpt lat="39.8633760" lon="3.1175990">
        <ele>-17.2</ele>
        <time>2022-09-22T15:33:24Z</time>
      </trkpt>
      <trkpt lat="39.8631180" lon="3.1177440">
        <ele>-17.8</ele>
        <time>2022-09-22T15:33:28Z</time>
      </trkpt>
      <trkpt lat="39.8629130" lon="3.1177920">
        <ele>-18.6</ele>
        <time>2022-09-22T15:33:31Z</time>
      </trkpt>
      <trkpt lat="39.8625590" lon="3.1178240">
        <ele>-19.0</ele>
        <time>2022-09-22T15:33:36Z</time>
      </trkpt>
      <trkpt lat="39.8624240" lon="3.1177930">
        <ele>-19.0</ele>
        <time>2022-09-22T15:33:38Z</time>
      </trkpt>
      <trkpt lat="39.8619490" lon="3.1177140">
        <ele>-18.8</ele>
        <time>2022-09-22T15:33:45Z</time>
      </trkpt>
      <trkpt lat="39.8618860" lon="3.1177180">
        <ele>-19.0</ele>
        <time>2022-09-22T15:33:46Z</time>
      </trkpt>
      <trkpt lat="39.8617880" lon="3.1177850">
        <ele>-18.8</ele>
        <time>2022-09-22T15:33:48Z</time>
      </trkpt>
      <trkpt lat="39.8617720" lon="3.1180000">
        <ele>-18.6</ele>
        <time>2022-09-22T15:33:51Z</time>
      </trkpt>
      <trkpt lat="39.8617800" lon="3.1180760">
        <ele>-18.6</ele>
        <time>2022-09-22T15:33:52Z</time>
      </trkpt>
      <trkpt lat="39.8617820" lon="3.1182340">
        <ele>-18.8</ele>
        <time>2022-09-22T15:33:54Z</time>
      </trkpt>
      <trkpt lat="39.8617490" lon="3.1183830">
        <ele>-19.0</ele>
        <time>2022-09-22T15:33:56Z</time>
      </trkpt>
      <trkpt lat="39.8616210" lon="3.1189900">
        <ele>-19.4</ele>
        <time>2022-09-22T15:34:04Z</time>
      </trkpt>
      <trkpt lat="39.8615350" lon="3.1194970">
        <ele>-19.4</ele>
        <time>2022-09-22T15:34:11Z</time>
      </trkpt>
      <trkpt lat="39.8615240" lon="3.1195650">
        <ele>-19.4</ele>
        <time>2022-09-22T15:34:12Z</time>
      </trkpt>
      <trkpt lat="39.8614420" lon="3.1200650">
        <ele>-19.4</ele>
        <time>2022-09-22T15:34:19Z</time>
      </trkpt>
      <trkpt lat="39.8614300" lon="3.1203250">
        <ele>-19.4</ele>
        <time>2022-09-22T15:34:22Z</time>
      </trkpt>
      <trkpt lat="39.8614440" lon="3.1204120">
        <ele>-19.4</ele>
        <time>2022-09-22T15:34:23Z</time>
      </trkpt>
      <trkpt lat="39.8615490" lon="3.1206390">
        <ele>-19.4</ele>
        <time>2022-09-22T15:34:26Z</time>
      </trkpt>
      <trkpt lat="39.8615900" lon="3.1207060">
        <ele>-19.4</ele>
        <time>2022-09-22T15:34:27Z</time>
      </trkpt>
      <trkpt lat="39.8619020" lon="3.1212410">
        <ele>-19.6</ele>
        <time>2022-09-22T15:34:35Z</time>
      </trkpt>
      <trkpt lat="39.8619350" lon="3.1213050">
        <ele>-19.6</ele>
        <time>2022-09-22T15:34:36Z</time>
      </trkpt>
      <trkpt lat="39.8620700" lon="3.1215490">
        <ele>-19.6</ele>
        <time>2022-09-22T15:34:40Z</time>
      </trkpt>
      <trkpt lat="39.8621100" lon="3.1215990">
        <ele>-19.4</ele>
        <time>2022-09-22T15:34:41Z</time>
      </trkpt>
      <trkpt lat="39.8622150" lon="3.1216270">
        <ele>-19.2</ele>
        <time>2022-09-22T15:34:43Z</time>
      </trkpt>
      <trkpt lat="39.8623850" lon="3.1215420">
        <ele>-19.0</ele>
        <time>2022-09-22T15:34:46Z</time>
      </trkpt>
      <trkpt lat="39.8624410" lon="3.1215070">
        <ele>-18.8</ele>
        <time>2022-09-22T15:34:47Z</time>
      </trkpt>
      <trkpt lat="39.8627830" lon="3.1212940">
        <ele>-18.2</ele>
        <time>2022-09-22T15:34:54Z</time>
      </trkpt>
      <trkpt lat="39.8628240" lon="3.1212570">
        <ele>-18.2</ele>
        <time>2022-09-22T15:34:55Z</time>
      </trkpt>
      <trkpt lat="39.8629290" lon="3.1211950">
        <ele>-18.2</ele>
        <time>2022-09-22T15:34:58Z</time>
      </trkpt>
      <trkpt lat="39.8629800" lon="3.1212300">
        <ele>-18.0</ele>
        <time>2022-09-22T15:35:02Z</time>
      </trkpt>
      <trkpt lat="39.8630600" lon="3.1212840">
        <ele>-17.8</ele>
        <time>2022-09-22T15:35:06Z</time>
      </trkpt>
      <trkpt lat="39.8632050" lon="3.1213890">
        <ele>-17.8</ele>
        <time>2022-09-22T15:35:10Z</time>
      </trkpt>
      <trkpt lat="39.8633600" lon="3.1215390">
        <ele>-17.8</ele>
        <time>2022-09-22T15:35:14Z</time>
      </trkpt>
      <trkpt lat="39.8633810" lon="3.1215960">
        <ele>-17.8</ele>
        <time>2022-09-22T15:35:15Z</time>
      </trkpt>
      <trkpt lat="39.8633970" lon="3.1216550">
        <ele>-17.8</ele>
        <time>2022-09-22T15:35:16Z</time>
      </trkpt>
      <trkpt lat="39.8634070" lon="3.1218480">
        <ele>-17.8</ele>
        <time>2022-09-22T15:35:19Z</time>
      </trkpt>
      <trkpt lat="39.8634670" lon="3.1221210">
        <ele>-18.0</ele>
        <time>2022-09-22T15:35:23Z</time>
      </trkpt>
      <trkpt lat="39.8635700" lon="3.1223090">
        <ele>-18.2</ele>
        <time>2022-09-22T15:35:26Z</time>
      </trkpt>
      <trkpt lat="39.8636460" lon="3.1224270">
        <ele>-18.8</ele>
        <time>2022-09-22T15:35:28Z</time>
      </trkpt>
      <trkpt lat="39.8638120" lon="3.1227780">
        <ele>-19.2</ele>
        <time>2022-09-22T15:35:34Z</time>
      </trkpt>
      <trkpt lat="39.8638360" lon="3.1228290">
        <ele>-19.2</ele>
        <time>2022-09-22T15:35:35Z</time>
      </trkpt>
      <trkpt lat="39.8638680" lon="3.1229740">
        <ele>-19.2</ele>
        <time>2022-09-22T15:35:38Z</time>
      </trkpt>
      <trkpt lat="39.8637560" lon="3.1230680">
        <ele>-19.2</ele>
        <time>2022-09-22T15:35:41Z</time>
      </trkpt>
      <trkpt lat="39.8633660" lon="3.1232650">
        <ele>-18.8</ele>
        <time>2022-09-22T15:35:48Z</time>
      </trkpt>
      <trkpt lat="39.8633070" lon="3.1232890">
        <ele>-18.6</ele>
        <time>2022-09-22T15:35:49Z</time>
      </trkpt>
      <trkpt lat="39.8631890" lon="3.1232840">
        <ele>-18.4</ele>
        <time>2022-09-22T15:35:51Z</time>
      </trkpt>
      <trkpt lat="39.8630350" lon="3.1233580">
        <ele>-18.4</ele>
        <time>2022-09-22T15:35:54Z</time>
      </trkpt>
      <trkpt lat="39.8629600" lon="3.1234570">
        <ele>-18.6</ele>
        <time>2022-09-22T15:35:56Z</time>
      </trkpt>
      <trkpt lat="39.8629110" lon="3.1235390">
        <ele>-18.6</ele>
        <time>2022-09-22T15:35:58Z</time>
      </trkpt>
      <trkpt lat="39.8628680" lon="3.1236310">
        <ele>-18.6</ele>
        <time>2022-09-22T15:36:02Z</time>
      </trkpt>
      <trkpt lat="39.8628470" lon="3.1236710">
        <ele>-18.6</ele>
        <time>2022-09-22T15:36:04Z</time>
      </trkpt>
      <trkpt lat="39.8628140" lon="3.1237610">
        <ele>-18.2</ele>
        <time>2022-09-22T15:36:07Z</time>
      </trkpt>
      <trkpt lat="39.8627830" lon="3.1238490">
        <ele>-18.2</ele>
        <time>2022-09-22T15:36:09Z</time>
      </trkpt>
      <trkpt lat="39.8627320" lon="3.1240870">
        <ele>-18.4</ele>
        <time>2022-09-22T15:36:14Z</time>
      </trkpt>
      <trkpt lat="39.8627080" lon="3.1241860">
        <ele>-18.4</ele>
        <time>2022-09-22T15:36:16Z</time>
      </trkpt>
      <trkpt lat="39.8627030" lon="3.1243070">
        <ele>-18.4</ele>
        <time>2022-09-22T15:36:18Z</time>
      </trkpt>
      <trkpt lat="39.8627050" lon="3.1243740">
        <ele>-18.4</ele>
        <time>2022-09-22T15:36:19Z</time>
      </trkpt>
      <trkpt lat="39.8627220" lon="3.1246560">
        <ele>-18.4</ele>
        <time>2022-09-22T15:36:23Z</time>
      </trkpt>
      <trkpt lat="39.8627590" lon="3.1249550">
        <ele>-19.2</ele>
        <time>2022-09-22T15:36:27Z</time>
      </trkpt>
      <trkpt lat="39.8627950" lon="3.1251050">
        <ele>-19.4</ele>
        <time>2022-09-22T15:36:29Z</time>
      </trkpt>
      <trkpt lat="39.8628100" lon="3.1251800">
        <ele>-19.4</ele>
        <time>2022-09-22T15:36:30Z</time>
      </trkpt>
      <trkpt lat="39.8628430" lon="3.1254050">
        <ele>-19.6</ele>
        <time>2022-09-22T15:36:33Z</time>
      </trkpt>
      <trkpt lat="39.8628640" lon="3.1254740">
        <ele>-19.6</ele>
        <time>2022-09-22T15:36:34Z</time>
      </trkpt>
      <trkpt lat="39.8629970" lon="3.1256210">
        <ele>-19.6</ele>
        <time>2022-09-22T15:36:37Z</time>
      </trkpt>
      <trkpt lat="39.8631030" lon="3.1257040">
        <ele>-19.8</ele>
        <time>2022-09-22T15:36:39Z</time>
      </trkpt>
      <trkpt lat="39.8632640" lon="3.1258180">
        <ele>-19.8</ele>
        <time>2022-09-22T15:36:42Z</time>
      </trkpt>
      <trkpt lat="39.8634320" lon="3.1259010">
        <ele>-19.8</ele>
        <time>2022-09-22T15:36:45Z</time>
      </trkpt>
      <trkpt lat="39.8635550" lon="3.1259120">
        <ele>-19.8</ele>
        <time>2022-09-22T15:36:47Z</time>
      </trkpt>
      <trkpt lat="39.8637370" lon="3.1259450">
        <ele>-19.8</ele>
        <time>2022-09-22T15:36:50Z</time>
      </trkpt>
      <trkpt lat="39.8638370" lon="3.1260150">
        <ele>-19.8</ele>
        <time>2022-09-22T15:36:52Z</time>
      </trkpt>
      <trkpt lat="39.8639300" lon="3.1261080">
        <ele>-19.8</ele>
        <time>2022-09-22T15:36:54Z</time>
      </trkpt>
      <trkpt lat="39.8639820" lon="3.1261520">
        <ele>-19.8</ele>
        <time>2022-09-22T15:36:55Z</time>
      </trkpt>
      <trkpt lat="39.8640890" lon="3.1262290">
        <ele>-19.8</ele>
        <time>2022-09-22T15:36:57Z</time>
      </trkpt>
      <trkpt lat="39.8643170" lon="3.1264650">
        <ele>-20.0</ele>
        <time>2022-09-22T15:37:02Z</time>
      </trkpt>
      <trkpt lat="39.8643940" lon="3.1265750">
        <ele>-20.0</ele>
        <time>2022-09-22T15:37:04Z</time>
      </trkpt>
      <trkpt lat="39.8645710" lon="3.1267780">
        <ele>-20.0</ele>
        <time>2022-09-22T15:37:08Z</time>
      </trkpt>
      <trkpt lat="39.8646560" lon="3.1268780">
        <ele>-20.0</ele>
        <time>2022-09-22T15:37:10Z</time>
      </trkpt>
      <trkpt lat="39.8647410" lon="3.1269830">
        <ele>-20.0</ele>
        <time>2022-09-22T15:37:12Z</time>
      </trkpt>
      <trkpt lat="39.8647860" lon="3.1270310">
        <ele>-20.0</ele>
        <time>2022-09-22T15:37:13Z</time>
      </trkpt>
      <trkpt lat="39.8649830" lon="3.1272170">
        <ele>-20.2</ele>
        <time>2022-09-22T15:37:17Z</time>
      </trkpt>
      <trkpt lat="39.8650800" lon="3.1274040">
        <ele>-20.0</ele>
        <time>2022-09-22T15:37:21Z</time>
      </trkpt>
      <trkpt lat="39.8651510" lon="3.1275270">
        <ele>-19.8</ele>
        <time>2022-09-22T15:37:24Z</time>
      </trkpt>
      <trkpt lat="39.8652080" lon="3.1276130">
        <ele>-19.4</ele>
        <time>2022-09-22T15:37:26Z</time>
      </trkpt>
      <trkpt lat="39.8652340" lon="3.1276590">
        <ele>-18.8</ele>
        <time>2022-09-22T15:37:27Z</time>
      </trkpt>
      <trkpt lat="39.8652830" lon="3.1277470">
        <ele>-17.8</ele>
        <time>2022-09-22T15:37:29Z</time>
      </trkpt>
      <trkpt lat="39.8653750" lon="3.1278810">
        <ele>-17.2</ele>
        <time>2022-09-22T15:37:33Z</time>
      </trkpt>
      <trkpt lat="39.8654120" lon="3.1279650">
        <ele>-17.0</ele>
        <time>2022-09-22T15:37:36Z</time>
      </trkpt>
      <trkpt lat="39.8654170" lon="3.1279770">
        <ele>-17.0</ele>
        <time>2022-09-22T15:37:37Z</time>
      </trkpt>
      <trkpt lat="39.8658850" lon="3.1284730">
        <ele>-14.8</ele>
        <time>2022-09-22T15:38:48Z</time>
      </trkpt>
      <trkpt lat="39.8658680" lon="3.1285030">
        <ele>-14.8</ele>
        <time>2022-09-22T15:38:49Z</time>
      </trkpt>
      <trkpt lat="39.8658570" lon="3.1285360">
        <ele>-14.8</ele>
        <time>2022-09-22T15:38:50Z</time>
      </trkpt>
      <trkpt lat="39.8658710" lon="3.1286550">
        <ele>-14.8</ele>
        <time>2022-09-22T15:38:53Z</time>
      </trkpt>
      <trkpt lat="39.8658890" lon="3.1286990">
        <ele>-14.8</ele>
        <time>2022-09-22T15:38:54Z</time>
      </trkpt>
      <trkpt lat="39.8659070" lon="3.1287460">
        <ele>-14.8</ele>
        <time>2022-09-22T15:38:55Z</time>
      </trkpt>
      <trkpt lat="39.8659720" lon="3.1288820">
        <ele>-14.8</ele>
        <time>2022-09-22T15:38:58Z</time>
      </trkpt>
      <trkpt lat="39.8660090" lon="3.1289730">
        <ele>-14.6</ele>
        <time>2022-09-22T15:39:00Z</time>
      </trkpt>
      <trkpt lat="39.8660240" lon="3.1290170">
        <ele>-14.6</ele>
        <time>2022-09-22T15:39:01Z</time>
      </trkpt>
      <trkpt lat="39.8660720" lon="3.1291470">
        <ele>-14.4</ele>
        <time>2022-09-22T15:39:04Z</time>
      </trkpt>
      <trkpt lat="39.8661760" lon="3.1293560">
        <ele>-13.8</ele>
        <time>2022-09-22T15:39:09Z</time>
      </trkpt>
      <trkpt lat="39.8663650" lon="3.1295750">
        <ele>-12.8</ele>
        <time>2022-09-22T15:39:16Z</time>
      </trkpt>
      <trkpt lat="39.8664010" lon="3.1295690">
        <ele>-12.6</ele>
        <time>2022-09-22T15:39:17Z</time>
      </trkpt>
      <trkpt lat="39.8664630" lon="3.1295120">
        <ele>-12.2</ele>
        <time>2022-09-22T15:39:19Z</time>
      </trkpt>
      <trkpt lat="39.8666140" lon="3.1292610">
        <ele>-11.8</ele>
        <time>2022-09-22T15:39:25Z</time>
      </trkpt>
      <trkpt lat="39.8666420" lon="3.1292170">
        <ele>-11.6</ele>
        <time>2022-09-22T15:39:26Z</time>
      </trkpt>
      <trkpt lat="39.8666740" lon="3.1291820">
        <ele>-11.6</ele>
        <time>2022-09-22T15:39:27Z</time>
      </trkpt>
      <trkpt lat="39.8667400" lon="3.1291760">
        <ele>-11.6</ele>
        <time>2022-09-22T15:39:29Z</time>
      </trkpt>
      <trkpt lat="39.8667970" lon="3.1292260">
        <ele>-11.6</ele>
        <time>2022-09-22T15:39:31Z</time>
      </trkpt>
      <trkpt lat="39.8668360" lon="3.1292540">
        <ele>-11.6</ele>
        <time>2022-09-22T15:39:32Z</time>
      </trkpt>
      <trkpt lat="39.8668800" lon="3.1292780">
        <ele>-11.8</ele>
        <time>2022-09-22T15:39:33Z</time>
      </trkpt>
      <trkpt lat="39.8669180" lon="3.1293130">
        <ele>-11.8</ele>
        <time>2022-09-22T15:39:34Z</time>
      </trkpt>
      <trkpt lat="39.8669900" lon="3.1293950">
        <ele>-12.4</ele>
        <time>2022-09-22T15:39:36Z</time>
      </trkpt>
      <trkpt lat="39.8670190" lon="3.1294410">
        <ele>-12.4</ele>
        <time>2022-09-22T15:39:37Z</time>
      </trkpt>
      <trkpt lat="39.8670320" lon="3.1294920">
        <ele>-12.8</ele>
        <time>2022-09-22T15:39:38Z</time>
      </trkpt>
      <trkpt lat="39.8670470" lon="3.1295430">
        <ele>-13.0</ele>
        <time>2022-09-22T15:39:39Z</time>
      </trkpt>
      <trkpt lat="39.8671230" lon="3.1296630">
        <ele>-13.8</ele>
        <time>2022-09-22T15:39:42Z</time>
      </trkpt>
      <trkpt lat="39.8671410" lon="3.1296810">
        <ele>-14.0</ele>
        <time>2022-09-22T15:39:43Z</time>
      </trkpt>
      <trkpt lat="39.8671470" lon="3.1296870">
        <ele>-14.0</ele>
        <time>2022-09-22T15:39:45Z</time>
      </trkpt>
      <trkpt lat="39.8671640" lon="3.1297050">
        <ele>-14.2</ele>
        <time>2022-09-22T15:39:50Z</time>
      </trkpt>
      <trkpt lat="39.8672260" lon="3.1297770">
        <ele>-14.0</ele>
        <time>2022-09-22T15:39:53Z</time>
      </trkpt>
      <trkpt lat="39.8672400" lon="3.1298100">
        <ele>-14.0</ele>
        <time>2022-09-22T15:39:54Z</time>
      </trkpt>
      <trkpt lat="39.8672510" lon="3.1298400">
        <ele>-14.0</ele>
        <time>2022-09-22T15:39:55Z</time>
      </trkpt>
      <trkpt lat="39.8672670" lon="3.1298660">
        <ele>-14.0</ele>
        <time>2022-09-22T15:39:56Z</time>
      </trkpt>
      <trkpt lat="39.8673250" lon="3.1298960">
        <ele>-14.0</ele>
        <time>2022-09-22T15:39:58Z</time>
      </trkpt>
      <trkpt lat="39.8673920" lon="3.1299290">
        <ele>-14.0</ele>
        <time>2022-09-22T15:40:00Z</time>
      </trkpt>
      <trkpt lat="39.8674430" lon="3.1300030">
        <ele>-13.8</ele>
        <time>2022-09-22T15:40:02Z</time>
      </trkpt>
      <trkpt lat="39.8675050" lon="3.1300520">
        <ele>-13.8</ele>
        <time>2022-09-22T15:40:04Z</time>
      </trkpt>
      <trkpt lat="39.8675390" lon="3.1300480">
        <ele>-13.6</ele>
        <time>2022-09-22T15:40:05Z</time>
      </trkpt>
      <trkpt lat="39.8676790" lon="3.1300680">
        <ele>-13.4</ele>
        <time>2022-09-22T15:40:09Z</time>
      </trkpt>
      <trkpt lat="39.8677120" lon="3.1300860">
        <ele>-13.2</ele>
        <time>2022-09-22T15:40:10Z</time>
      </trkpt>
      <trkpt lat="39.8677410" lon="3.1301030">
        <ele>-13.0</ele>
        <time>2022-09-22T15:40:11Z</time>
      </trkpt>
      <trkpt lat="39.8678060" lon="3.1301900">
        <ele>-12.4</ele>
        <time>2022-09-22T15:40:14Z</time>
      </trkpt>
      <trkpt lat="39.8678710" lon="3.1302660">
        <ele>-11.8</ele>
        <time>2022-09-22T15:40:17Z</time>
      </trkpt>
      <trkpt lat="39.8679210" lon="3.1303200">
        <ele>-11.4</ele>
        <time>2022-09-22T15:40:19Z</time>
      </trkpt>
      <trkpt lat="39.8679720" lon="3.1303750">
        <ele>-11.2</ele>
        <time>2022-09-22T15:40:21Z</time>
      </trkpt>
      <trkpt lat="39.8680040" lon="3.1304390">
        <ele>-11.0</ele>
        <time>2022-09-22T15:40:23Z</time>
      </trkpt>
      <trkpt lat="39.8680210" lon="3.1304670">
        <ele>-10.6</ele>
        <time>2022-09-22T15:40:24Z</time>
      </trkpt>
      <trkpt lat="39.8680410" lon="3.1304940">
        <ele>-10.2</ele>
        <time>2022-09-22T15:40:25Z</time>
      </trkpt>
      <trkpt lat="39.8681330" lon="3.1305450">
        <ele>-9.8</ele>
        <time>2022-09-22T15:40:28Z</time>
      </trkpt>
      <trkpt lat="39.8681660" lon="3.1305570">
        <ele>-9.6</ele>
        <time>2022-09-22T15:40:29Z</time>
      </trkpt>
      <trkpt lat="39.8681950" lon="3.1305830">
        <ele>-9.2</ele>
        <time>2022-09-22T15:40:30Z</time>
      </trkpt>
      <trkpt lat="39.8682290" lon="3.1306490">
        <ele>-8.4</ele>
        <time>2022-09-22T15:40:32Z</time>
      </trkpt>
      <trkpt lat="39.8681900" lon="3.1307390">
        <ele>-7.8</ele>
        <time>2022-09-22T15:40:35Z</time>
      </trkpt>
      <trkpt lat="39.8681480" lon="3.1307940">
        <ele>-7.6</ele>
        <time>2022-09-22T15:40:37Z</time>
      </trkpt>
      <trkpt lat="39.8681210" lon="3.1308560">
        <ele>-7.4</ele>
        <time>2022-09-22T15:40:39Z</time>
      </trkpt>
      <trkpt lat="39.8681200" lon="3.1308900">
        <ele>-7.2</ele>
        <time>2022-09-22T15:40:40Z</time>
      </trkpt>
      <trkpt lat="39.8681320" lon="3.1309270">
        <ele>-6.8</ele>
        <time>2022-09-22T15:40:41Z</time>
      </trkpt>
      <trkpt lat="39.8681880" lon="3.1309920">
        <ele>-6.0</ele>
        <time>2022-09-22T15:40:43Z</time>
      </trkpt>
      <trkpt lat="39.8682670" lon="3.1310310">
        <ele>-5.4</ele>
        <time>2022-09-22T15:40:45Z</time>
      </trkpt>
      <trkpt lat="39.8683050" lon="3.1310530">
        <ele>-5.2</ele>
        <time>2022-09-22T15:40:46Z</time>
      </trkpt>
      <trkpt lat="39.8684050" lon="3.1311670">
        <ele>-5.2</ele>
        <time>2022-09-22T15:40:49Z</time>
      </trkpt>
      <trkpt lat="39.8685190" lon="3.1312830">
        <ele>-5.2</ele>
        <time>2022-09-22T15:40:52Z</time>
      </trkpt>
      <trkpt lat="39.8685950" lon="3.1313670">
        <ele>-5.2</ele>
        <time>2022-09-22T15:40:54Z</time>
      </trkpt>
      <trkpt lat="39.8686330" lon="3.1314030">
        <ele>-5.4</ele>
        <time>2022-09-22T15:40:55Z</time>
      </trkpt>
      <trkpt lat="39.8687510" lon="3.1314980">
        <ele>-5.6</ele>
        <time>2022-09-22T15:40:58Z</time>
      </trkpt>
      <trkpt lat="39.8687850" lon="3.1315390">
        <ele>-5.6</ele>
        <time>2022-09-22T15:40:59Z</time>
      </trkpt>
      <trkpt lat="39.8688540" lon="3.1316260">
        <ele>-5.8</ele>
        <time>2022-09-22T15:41:01Z</time>
      </trkpt>
      <trkpt lat="39.8689280" lon="3.1317560">
        <ele>-5.8</ele>
        <time>2022-09-22T15:41:04Z</time>
      </trkpt>
      <trkpt lat="39.8689780" lon="3.1318630">
        <ele>-5.8</ele>
        <time>2022-09-22T15:41:06Z</time>
      </trkpt>
      <trkpt lat="39.8690120" lon="3.1319940">
        <ele>-5.8</ele>
        <time>2022-09-22T15:41:08Z</time>
      </trkpt>
      <trkpt lat="39.8690260" lon="3.1320640">
        <ele>-6.0</ele>
        <time>2022-09-22T15:41:09Z</time>
      </trkpt>
      <trkpt lat="39.8690320" lon="3.1322840">
        <ele>-6.2</ele>
        <time>2022-09-22T15:41:12Z</time>
      </trkpt>
      <trkpt lat="39.8689920" lon="3.1326820">
        <ele>-6.8</ele>
        <time>2022-09-22T15:41:18Z</time>
      </trkpt>
      <trkpt lat="39.8689280" lon="3.1329250">
        <ele>-7.0</ele>
        <time>2022-09-22T15:41:22Z</time>
      </trkpt>
      <trkpt lat="39.8689010" lon="3.1330410">
        <ele>-7.0</ele>
        <time>2022-09-22T15:41:24Z</time>
      </trkpt>
      <trkpt lat="39.8688290" lon="3.1332880">
        <ele>-7.0</ele>
        <time>2022-09-22T15:41:28Z</time>
      </trkpt>
      <trkpt lat="39.8687110" lon="3.1334120">
        <ele>-6.8</ele>
        <time>2022-09-22T15:41:31Z</time>
      </trkpt>
      <trkpt lat="39.8686700" lon="3.1334530">
        <ele>-6.8</ele>
        <time>2022-09-22T15:41:32Z</time>
      </trkpt>
      <trkpt lat="39.8686310" lon="3.1334960">
        <ele>-6.8</ele>
        <time>2022-09-22T15:41:33Z</time>
      </trkpt>
      <trkpt lat="39.8682800" lon="3.1338750">
        <ele>-6.2</ele>
        <time>2022-09-22T15:41:42Z</time>
      </trkpt>
      <trkpt lat="39.8681140" lon="3.1340450">
        <ele>-5.0</ele>
        <time>2022-09-22T15:41:46Z</time>
      </trkpt>
      <trkpt lat="39.8680280" lon="3.1341400">
        <ele>-4.8</ele>
        <time>2022-09-22T15:41:48Z</time>
      </trkpt>
      <trkpt lat="39.8679370" lon="3.1342350">
        <ele>-4.8</ele>
        <time>2022-09-22T15:41:50Z</time>
      </trkpt>
      <trkpt lat="39.8677690" lon="3.1343310">
        <ele>-4.6</ele>
        <time>2022-09-22T15:41:53Z</time>
      </trkpt>
      <trkpt lat="39.8673960" lon="3.1344880">
        <ele>-4.8</ele>
        <time>2022-09-22T15:41:59Z</time>
      </trkpt>
      <trkpt lat="39.8672740" lon="3.1345260">
        <ele>-5.0</ele>
        <time>2022-09-22T15:42:01Z</time>
      </trkpt>
      <trkpt lat="39.8671550" lon="3.1345310">
        <ele>-5.4</ele>
        <time>2022-09-22T15:42:03Z</time>
      </trkpt>
      <trkpt lat="39.8669640" lon="3.1346000">
        <ele>-5.6</ele>
        <time>2022-09-22T15:42:06Z</time>
      </trkpt>
      <trkpt lat="39.8668990" lon="3.1346260">
        <ele>-6.0</ele>
        <time>2022-09-22T15:42:07Z</time>
      </trkpt>
      <trkpt lat="39.8668350" lon="3.1346470">
        <ele>-6.0</ele>
        <time>2022-09-22T15:42:08Z</time>
      </trkpt>
      <trkpt lat="39.8664950" lon="3.1347490">
        <ele>-7.2</ele>
        <time>2022-09-22T15:42:13Z</time>
      </trkpt>
      <trkpt lat="39.8664240" lon="3.1347650">
        <ele>-7.8</ele>
        <time>2022-09-22T15:42:14Z</time>
      </trkpt>
      <trkpt lat="39.8662890" lon="3.1347890">
        <ele>-8.2</ele>
        <time>2022-09-22T15:42:16Z</time>
      </trkpt>
      <trkpt lat="39.8661700" lon="3.1347360">
        <ele>-9.0</ele>
        <time>2022-09-22T15:42:18Z</time>
      </trkpt>
      <trkpt lat="39.8660710" lon="3.1346560">
        <ele>-9.4</ele>
        <time>2022-09-22T15:42:20Z</time>
      </trkpt>
      <trkpt lat="39.8660190" lon="3.1346230">
        <ele>-9.6</ele>
        <time>2022-09-22T15:42:21Z</time>
      </trkpt>
      <trkpt lat="39.8658980" lon="3.1345800">
        <ele>-10.0</ele>
        <time>2022-09-22T15:42:23Z</time>
      </trkpt>
      <trkpt lat="39.8657770" lon="3.1345330">
        <ele>-10.4</ele>
        <time>2022-09-22T15:42:25Z</time>
      </trkpt>
      <trkpt lat="39.8657110" lon="3.1344850">
        <ele>-10.6</ele>
        <time>2022-09-22T15:42:27Z</time>
      </trkpt>
      <trkpt lat="39.8656650" lon="3.1344580">
        <ele>-10.6</ele>
        <time>2022-09-22T15:42:30Z</time>
      </trkpt>
      <trkpt lat="39.8656430" lon="3.1344700">
        <ele>-10.6</ele>
        <time>2022-09-22T15:42:31Z</time>
      </trkpt>
      <trkpt lat="39.8656170" lon="3.1344870">
        <ele>-10.6</ele>
        <time>2022-09-22T15:42:32Z</time>
      </trkpt>
      <trkpt lat="39.8655290" lon="3.1345500">
        <ele>-10.6</ele>
        <time>2022-09-22T15:42:35Z</time>
      </trkpt>
      <trkpt lat="39.8654680" lon="3.1345940">
        <ele>-10.6</ele>
        <time>2022-09-22T15:42:37Z</time>
      </trkpt>
      <trkpt lat="39.8653750" lon="3.1346680">
        <ele>-10.6</ele>
        <time>2022-09-22T15:42:40Z</time>
      </trkpt>
      <trkpt lat="39.8653150" lon="3.1347200">
        <ele>-10.6</ele>
        <time>2022-09-22T15:42:42Z</time>
      </trkpt>
      <trkpt lat="39.8652560" lon="3.1347570">
        <ele>-10.6</ele>
        <time>2022-09-22T15:42:44Z</time>
      </trkpt>
      <trkpt lat="39.8651900" lon="3.1347790">
        <ele>-10.4</ele>
        <time>2022-09-22T15:42:48Z</time>
      </trkpt>
      <trkpt lat="39.8651900" lon="3.1347800">
        <ele>-10.2</ele>
        <time>2022-09-22T15:42:49Z</time>
      </trkpt>
      <trkpt lat="39.8651350" lon="3.1348260">
        <ele>-9.6</ele>
        <time>2022-09-22T15:43:14Z</time>
      </trkpt>
      <trkpt lat="39.8651100" lon="3.1348450">
        <ele>-9.6</ele>
        <time>2022-09-22T15:43:15Z</time>
      </trkpt>
      <trkpt lat="39.8650820" lon="3.1348650">
        <ele>-9.6</ele>
        <time>2022-09-22T15:43:16Z</time>
      </trkpt>
      <trkpt lat="39.8650580" lon="3.1348980">
        <ele>-9.6</ele>
        <time>2022-09-22T15:43:17Z</time>
      </trkpt>
      <trkpt lat="39.8650340" lon="3.1349880">
        <ele>-9.6</ele>
        <time>2022-09-22T15:43:19Z</time>
      </trkpt>
      <trkpt lat="39.8650090" lon="3.1351020">
        <ele>-9.6</ele>
        <time>2022-09-22T15:43:21Z</time>
      </trkpt>
      <trkpt lat="39.8649790" lon="3.1352250">
        <ele>-9.6</ele>
        <time>2022-09-22T15:43:23Z</time>
      </trkpt>
      <trkpt lat="39.8649630" lon="3.1353670">
        <ele>-9.6</ele>
        <time>2022-09-22T15:43:25Z</time>
      </trkpt>
      <trkpt lat="39.8650070" lon="3.1354750">
        <ele>-9.6</ele>
        <time>2022-09-22T15:43:27Z</time>
      </trkpt>
      <trkpt lat="39.8650930" lon="3.1356360">
        <ele>-9.8</ele>
        <time>2022-09-22T15:43:31Z</time>
      </trkpt>
      <trkpt lat="39.8651370" lon="3.1358220">
        <ele>-11.0</ele>
        <time>2022-09-22T15:43:35Z</time>
      </trkpt>
      <trkpt lat="39.8651530" lon="3.1358820">
        <ele>-12.2</ele>
        <time>2022-09-22T15:43:37Z</time>
      </trkpt>
      <trkpt lat="39.8651740" lon="3.1359130">
        <ele>-12.6</ele>
        <time>2022-09-22T15:43:38Z</time>
      </trkpt>
      <trkpt lat="39.8652240" lon="3.1360000">
        <ele>-13.2</ele>
        <time>2022-09-22T15:43:40Z</time>
      </trkpt>
      <trkpt lat="39.8652520" lon="3.1360470">
        <ele>-14.2</ele>
        <time>2022-09-22T15:43:41Z</time>
      </trkpt>
      <trkpt lat="39.8652860" lon="3.1360910">
        <ele>-14.6</ele>
        <time>2022-09-22T15:43:42Z</time>
      </trkpt>
      <trkpt lat="39.8654260" lon="3.1361720">
        <ele>-15.0</ele>
        <time>2022-09-22T15:43:45Z</time>
      </trkpt>
      <trkpt lat="39.8654700" lon="3.1361840">
        <ele>-15.4</ele>
        <time>2022-09-22T15:43:46Z</time>
      </trkpt>
      <trkpt lat="39.8655460" lon="3.1362440">
        <ele>-15.8</ele>
        <time>2022-09-22T15:43:48Z</time>
      </trkpt>
      <trkpt lat="39.8655790" lon="3.1364050">
        <ele>-16.6</ele>
        <time>2022-09-22T15:43:51Z</time>
      </trkpt>
      <trkpt lat="39.8655110" lon="3.1365210">
        <ele>-17.0</ele>
        <time>2022-09-22T15:43:54Z</time>
      </trkpt>
      <trkpt lat="39.8654370" lon="3.1365120">
        <ele>-17.0</ele>
        <time>2022-09-22T15:43:56Z</time>
      </trkpt>
      <trkpt lat="39.8653950" lon="3.1365170">
        <ele>-17.0</ele>
        <time>2022-09-22T15:43:57Z</time>
      </trkpt>
      <trkpt lat="39.8652950" lon="3.1366420">
        <ele>-17.0</ele>
        <time>2022-09-22T15:44:00Z</time>
      </trkpt>
      <trkpt lat="39.8652080" lon="3.1367820">
        <ele>-17.0</ele>
        <time>2022-09-22T15:44:03Z</time>
      </trkpt>
      <trkpt lat="39.8651690" lon="3.1368160">
        <ele>-17.0</ele>
        <time>2022-09-22T15:44:04Z</time>
      </trkpt>
      <trkpt lat="39.8650990" lon="3.1368900">
        <ele>-16.6</ele>
        <time>2022-09-22T15:44:06Z</time>
      </trkpt>
      <trkpt lat="39.8650340" lon="3.1369430">
        <ele>-16.6</ele>
        <time>2022-09-22T15:44:08Z</time>
      </trkpt>
      <trkpt lat="39.8649360" lon="3.1368630">
        <ele>-15.8</ele>
        <time>2022-09-22T15:44:11Z</time>
      </trkpt>
      <trkpt lat="39.8648810" lon="3.1367730">
        <ele>-15.4</ele>
        <time>2022-09-22T15:44:13Z</time>
      </trkpt>
      <trkpt lat="39.8648050" lon="3.1367350">
        <ele>-15.0</ele>
        <time>2022-09-22T15:44:15Z</time>
      </trkpt>
      <trkpt lat="39.8647640" lon="3.1367420">
        <ele>-14.8</ele>
        <time>2022-09-22T15:44:16Z</time>
      </trkpt>
      <trkpt lat="39.8646810" lon="3.1367740">
        <ele>-14.4</ele>
        <time>2022-09-22T15:44:18Z</time>
      </trkpt>
      <trkpt lat="39.8646390" lon="3.1367790">
        <ele>-14.2</ele>
        <time>2022-09-22T15:44:19Z</time>
      </trkpt>
      <trkpt lat="39.8645970" lon="3.1367790">
        <ele>-13.6</ele>
        <time>2022-09-22T15:44:20Z</time>
      </trkpt>
      <trkpt lat="39.8645070" lon="3.1367650">
        <ele>-12.8</ele>
        <time>2022-09-22T15:44:22Z</time>
      </trkpt>
      <trkpt lat="39.8644030" lon="3.1367430">
        <ele>-12.0</ele>
        <time>2022-09-22T15:44:24Z</time>
      </trkpt>
      <trkpt lat="39.8643500" lon="3.1367280">
        <ele>-11.8</ele>
        <time>2022-09-22T15:44:25Z</time>
      </trkpt>
      <trkpt lat="39.8642370" lon="3.1366960">
        <ele>-11.0</ele>
        <time>2022-09-22T15:44:27Z</time>
      </trkpt>
      <trkpt lat="39.8641810" lon="3.1366810">
        <ele>-10.8</ele>
        <time>2022-09-22T15:44:28Z</time>
      </trkpt>
      <trkpt lat="39.8641230" lon="3.1366630">
        <ele>-10.4</ele>
        <time>2022-09-22T15:44:29Z</time>
      </trkpt>
      <trkpt lat="39.8640110" lon="3.1366290">
        <ele>-10.0</ele>
        <time>2022-09-22T15:44:31Z</time>
      </trkpt>
      <trkpt lat="39.8639570" lon="3.1366110">
        <ele>-9.6</ele>
        <time>2022-09-22T15:44:32Z</time>
      </trkpt>
      <trkpt lat="39.8638200" lon="3.1365810">
        <ele>-8.8</ele>
        <time>2022-09-22T15:44:35Z</time>
      </trkpt>
      <trkpt lat="39.8637900" lon="3.1365950">
        <ele>-8.6</ele>
        <time>2022-09-22T15:44:36Z</time>
      </trkpt>
      <trkpt lat="39.8637430" lon="3.1366660">
        <ele>-7.2</ele>
        <time>2022-09-22T15:44:38Z</time>
      </trkpt>
      <trkpt lat="39.8636960" lon="3.1367720">
        <ele>-6.2</ele>
        <time>2022-09-22T15:44:40Z</time>
      </trkpt>
      <trkpt lat="39.8636510" lon="3.1368870">
        <ele>-5.4</ele>
        <time>2022-09-22T15:44:42Z</time>
      </trkpt>
      <trkpt lat="39.8636330" lon="3.1369440">
        <ele>-5.2</ele>
        <time>2022-09-22T15:44:43Z</time>
      </trkpt>
      <trkpt lat="39.8635480" lon="3.1372260">
        <ele>-4.8</ele>
        <time>2022-09-22T15:44:48Z</time>
      </trkpt>
      <trkpt lat="39.8635090" lon="3.1373340">
        <ele>-4.4</ele>
        <time>2022-09-22T15:44:50Z</time>
      </trkpt>
      <trkpt lat="39.8634920" lon="3.1373910">
        <ele>-4.0</ele>
        <time>2022-09-22T15:44:51Z</time>
      </trkpt>
      <trkpt lat="39.8634340" lon="3.1375640">
        <ele>-3.0</ele>
        <time>2022-09-22T15:44:54Z</time>
      </trkpt>
      <trkpt lat="39.8633350" lon="3.1378650">
        <ele>-2.4</ele>
        <time>2022-09-22T15:44:59Z</time>
      </trkpt>
      <trkpt lat="39.8632860" lon="3.1380770">
        <ele>-2.4</ele>
        <time>2022-09-22T15:45:02Z</time>
      </trkpt>
      <trkpt lat="39.8632560" lon="3.1383070">
        <ele>-2.4</ele>
        <time>2022-09-22T15:45:05Z</time>
      </trkpt>
      <trkpt lat="39.8632100" lon="3.1386910">
        <ele>-2.4</ele>
        <time>2022-09-22T15:45:11Z</time>
      </trkpt>
      <trkpt lat="39.8631660" lon="3.1389810">
        <ele>-2.0</ele>
        <time>2022-09-22T15:45:17Z</time>
      </trkpt>
      <trkpt lat="39.8631380" lon="3.1390710">
        <ele>-1.4</ele>
        <time>2022-09-22T15:45:19Z</time>
      </trkpt>
      <trkpt lat="39.8631160" lon="3.1391090">
        <ele>-1.0</ele>
        <time>2022-09-22T15:45:20Z</time>
      </trkpt>
      <trkpt lat="39.8630200" lon="3.1392040">
        <ele>0.0</ele>
        <time>2022-09-22T15:45:23Z</time>
      </trkpt>
      <trkpt lat="39.8629800" lon="3.1392320">
        <ele>0.2</ele>
        <time>2022-09-22T15:45:24Z</time>
      </trkpt>
      <trkpt lat="39.8628170" lon="3.1393250">
        <ele>0.8</ele>
        <time>2022-09-22T15:45:28Z</time>
      </trkpt>
      <trkpt lat="39.8627370" lon="3.1393690">
        <ele>1.2</ele>
        <time>2022-09-22T15:45:30Z</time>
      </trkpt>
      <trkpt lat="39.8625610" lon="3.1394520">
        <ele>1.6</ele>
        <time>2022-09-22T15:45:35Z</time>
      </trkpt>
      <trkpt lat="39.8624530" lon="3.1394970">
        <ele>2.4</ele>
        <time>2022-09-22T15:45:38Z</time>
      </trkpt>
      <trkpt lat="39.8623260" lon="3.1395650">
        <ele>2.6</ele>
        <time>2022-09-22T15:45:41Z</time>
      </trkpt>
      <trkpt lat="39.8622840" lon="3.1395940">
        <ele>2.8</ele>
        <time>2022-09-22T15:45:42Z</time>
      </trkpt>
      <trkpt lat="39.8621000" lon="3.1396990">
        <ele>2.8</ele>
        <time>2022-09-22T15:45:46Z</time>
      </trkpt>
      <trkpt lat="39.8620520" lon="3.1397210">
        <ele>2.8</ele>
        <time>2022-09-22T15:45:47Z</time>
      </trkpt>
      <trkpt lat="39.8619210" lon="3.1397920">
        <ele>2.6</ele>
        <time>2022-09-22T15:45:50Z</time>
      </trkpt>
      <trkpt lat="39.8617570" lon="3.1398760">
        <ele>2.4</ele>
        <time>2022-09-22T15:45:54Z</time>
      </trkpt>
      <trkpt lat="39.8616420" lon="3.1398900">
        <ele>2.4</ele>
        <time>2022-09-22T15:45:58Z</time>
      </trkpt>
      <trkpt lat="39.8615910" lon="3.1398970">
        <ele>2.4</ele>
        <time>2022-09-22T15:46:01Z</time>
      </trkpt>
      <trkpt lat="39.8615850" lon="3.1399230">
        <ele>2.4</ele>
        <time>2022-09-22T15:46:02Z</time>
      </trkpt>
      <trkpt lat="39.8616010" lon="3.1400040">
        <ele>2.4</ele>
        <time>2022-09-22T15:46:04Z</time>
      </trkpt>
      <trkpt lat="39.8615810" lon="3.1401040">
        <ele>2.6</ele>
        <time>2022-09-22T15:46:06Z</time>
      </trkpt>
      <trkpt lat="39.8615360" lon="3.1402000">
        <ele>2.6</ele>
        <time>2022-09-22T15:46:08Z</time>
      </trkpt>
      <trkpt lat="39.8613840" lon="3.1404940">
        <ele>2.4</ele>
        <time>2022-09-22T15:46:14Z</time>
      </trkpt>
      <trkpt lat="39.8611850" lon="3.1408820">
        <ele>2.2</ele>
        <time>2022-09-22T15:46:22Z</time>
      </trkpt>
      <trkpt lat="39.8609690" lon="3.1413630">
        <ele>2.4</ele>
        <time>2022-09-22T15:46:32Z</time>
      </trkpt>
      <trkpt lat="39.8609020" lon="3.1415190">
        <ele>2.8</ele>
        <time>2022-09-22T15:46:36Z</time>
      </trkpt>
      <trkpt lat="39.8608920" lon="3.1415470">
        <ele>3.0</ele>
        <time>2022-09-22T15:46:37Z</time>
      </trkpt>
      <trkpt lat="39.8608840" lon="3.1415690">
        <ele>3.2</ele>
        <time>2022-09-22T15:46:38Z</time>
      </trkpt>
      <trkpt lat="39.8608800" lon="3.1415780">
        <ele>3.4</ele>
        <time>2022-09-22T15:46:40Z</time>
      </trkpt>
      <trkpt lat="39.8604230" lon="3.1423490">
        <ele>7.2</ele>
        <time>2022-09-22T15:52:07Z</time>
      </trkpt>
      <trkpt lat="39.8603670" lon="3.1425260">
        <ele>7.2</ele>
        <time>2022-09-22T15:52:11Z</time>
      </trkpt>
      <trkpt lat="39.8603390" lon="3.1426220">
        <ele>7.2</ele>
        <time>2022-09-22T15:52:13Z</time>
      </trkpt>
      <trkpt lat="39.8602850" lon="3.1427600">
        <ele>7.6</ele>
        <time>2022-09-22T15:52:16Z</time>
      </trkpt>
      <trkpt lat="39.8602300" lon="3.1428850">
        <ele>8.2</ele>
        <time>2022-09-22T15:52:19Z</time>
      </trkpt>
      <trkpt lat="39.8601530" lon="3.1430490">
        <ele>8.8</ele>
        <time>2022-09-22T15:52:23Z</time>
      </trkpt>
      <trkpt lat="39.8601130" lon="3.1431280">
        <ele>9.0</ele>
        <time>2022-09-22T15:52:25Z</time>
      </trkpt>
      <trkpt lat="39.8600960" lon="3.1431680">
        <ele>9.4</ele>
        <time>2022-09-22T15:52:26Z</time>
      </trkpt>
      <trkpt lat="39.8600520" lon="3.1432850">
        <ele>10.4</ele>
        <time>2022-09-22T15:52:29Z</time>
      </trkpt>
      <trkpt lat="39.8600060" lon="3.1434560">
        <ele>11.6</ele>
        <time>2022-09-22T15:52:33Z</time>
      </trkpt>
      <trkpt lat="39.8599940" lon="3.1435040">
        <ele>11.8</ele>
        <time>2022-09-22T15:52:34Z</time>
      </trkpt>
      <trkpt lat="39.8599610" lon="3.1436470">
        <ele>12.8</ele>
        <time>2022-09-22T15:52:37Z</time>
      </trkpt>
      <trkpt lat="39.8599100" lon="3.1438780">
        <ele>14.0</ele>
        <time>2022-09-22T15:52:42Z</time>
      </trkpt>
      <trkpt lat="39.8598340" lon="3.1441220">
        <ele>14.8</ele>
        <time>2022-09-22T15:52:48Z</time>
      </trkpt>
      <trkpt lat="39.8598180" lon="3.1441610">
        <ele>15.0</ele>
        <time>2022-09-22T15:52:49Z</time>
      </trkpt>
      <trkpt lat="39.8597360" lon="3.1443620">
        <ele>16.0</ele>
        <time>2022-09-22T15:52:54Z</time>
      </trkpt>
      <trkpt lat="39.8597190" lon="3.1444080">
        <ele>16.2</ele>
        <time>2022-09-22T15:52:55Z</time>
      </trkpt>
      <trkpt lat="39.8596720" lon="3.1445480">
        <ele>17.0</ele>
        <time>2022-09-22T15:52:58Z</time>
      </trkpt>
      <trkpt lat="39.8596290" lon="3.1447230">
        <ele>17.6</ele>
        <time>2022-09-22T15:53:02Z</time>
      </trkpt>
      <trkpt lat="39.8595930" lon="3.1448450">
        <ele>18.2</ele>
        <time>2022-09-22T15:53:05Z</time>
      </trkpt>
      <trkpt lat="39.8595550" lon="3.1449750">
        <ele>18.6</ele>
        <time>2022-09-22T15:53:08Z</time>
      </trkpt>
      <trkpt lat="39.8594990" lon="3.1451480">
        <ele>19.2</ele>
        <time>2022-09-22T15:53:12Z</time>
      </trkpt>
      <trkpt lat="39.8594720" lon="3.1452310">
        <ele>20.0</ele>
        <time>2022-09-22T15:53:14Z</time>
      </trkpt>
      <trkpt lat="39.8594600" lon="3.1452720">
        <ele>20.2</ele>
        <time>2022-09-22T15:53:15Z</time>
      </trkpt>
      <trkpt lat="39.8594060" lon="3.1454740">
        <ele>21.2</ele>
        <time>2022-09-22T15:53:20Z</time>
      </trkpt>
      <trkpt lat="39.8593930" lon="3.1455170">
        <ele>21.4</ele>
        <time>2022-09-22T15:53:21Z</time>
      </trkpt>
      <trkpt lat="39.8593270" lon="3.1457210">
        <ele>22.8</ele>
        <time>2022-09-22T15:53:26Z</time>
      </trkpt>
      <trkpt lat="39.8593180" lon="3.1457580">
        <ele>23.0</ele>
        <time>2022-09-22T15:53:27Z</time>
      </trkpt>
      <trkpt lat="39.8592450" lon="3.1459470">
        <ele>23.8</ele>
        <time>2022-09-22T15:53:32Z</time>
      </trkpt>
      <trkpt lat="39.8591840" lon="3.1460640">
        <ele>24.4</ele>
        <time>2022-09-22T15:53:36Z</time>
      </trkpt>
      <trkpt lat="39.8591610" lon="3.1461010">
        <ele>24.8</ele>
        <time>2022-09-22T15:53:38Z</time>
      </trkpt>
      <trkpt lat="39.8591590" lon="3.1461210">
        <ele>25.0</ele>
        <time>2022-09-22T15:53:40Z</time>
      </trkpt>
      <trkpt lat="39.8591150" lon="3.1462120">
        <ele>25.6</ele>
        <time>2022-09-22T15:54:32Z</time>
      </trkpt>
      <trkpt lat="39.8591020" lon="3.1462400">
        <ele>25.6</ele>
        <time>2022-09-22T15:54:33Z</time>
      </trkpt>
      <trkpt lat="39.8590180" lon="3.1464060">
        <ele>25.6</ele>
        <time>2022-09-22T15:54:37Z</time>
      </trkpt>
      <trkpt lat="39.8589970" lon="3.1464430">
        <ele>25.6</ele>
        <time>2022-09-22T15:54:38Z</time>
      </trkpt>
      <trkpt lat="39.8588790" lon="3.1465880">
        <ele>25.8</ele>
        <time>2022-09-22T15:54:42Z</time>
      </trkpt>
      <trkpt lat="39.8588410" lon="3.1466280">
        <ele>26.0</ele>
        <time>2022-09-22T15:54:43Z</time>
      </trkpt>
      <trkpt lat="39.8588030" lon="3.1466630">
        <ele>26.0</ele>
        <time>2022-09-22T15:54:44Z</time>
      </trkpt>
      <trkpt lat="39.8586840" lon="3.1467700">
        <ele>26.8</ele>
        <time>2022-09-22T15:54:47Z</time>
      </trkpt>
      <trkpt lat="39.8585920" lon="3.1468390">
        <ele>27.0</ele>
        <time>2022-09-22T15:54:49Z</time>
      </trkpt>
      <trkpt lat="39.8583080" lon="3.1470070">
        <ele>27.8</ele>
        <time>2022-09-22T15:54:55Z</time>
      </trkpt>
      <trkpt lat="39.8582130" lon="3.1470650">
        <ele>27.8</ele>
        <time>2022-09-22T15:54:57Z</time>
      </trkpt>
      <trkpt lat="39.8581240" lon="3.1471390">
        <ele>27.8</ele>
        <time>2022-09-22T15:54:59Z</time>
      </trkpt>
      <trkpt lat="39.8580360" lon="3.1472190">
        <ele>27.8</ele>
        <time>2022-09-22T15:55:01Z</time>
      </trkpt>
      <trkpt lat="39.8579900" lon="3.1472610">
        <ele>28.0</ele>
        <time>2022-09-22T15:55:02Z</time>
      </trkpt>
      <trkpt lat="39.8577190" lon="3.1475020">
        <ele>28.0</ele>
        <time>2022-09-22T15:55:07Z</time>
      </trkpt>
      <trkpt lat="39.8575350" lon="3.1476890">
        <ele>28.0</ele>
        <time>2022-09-22T15:55:10Z</time>
      </trkpt>
      <trkpt lat="39.8573560" lon="3.1478750">
        <ele>27.8</ele>
        <time>2022-09-22T15:55:13Z</time>
      </trkpt>
      <trkpt lat="39.8572940" lon="3.1479240">
        <ele>27.4</ele>
        <time>2022-09-22T15:55:14Z</time>
      </trkpt>
      <trkpt lat="39.8572300" lon="3.1479650">
        <ele>26.6</ele>
        <time>2022-09-22T15:55:15Z</time>
      </trkpt>
      <trkpt lat="39.8571030" lon="3.1480330">
        <ele>25.4</ele>
        <time>2022-09-22T15:55:17Z</time>
      </trkpt>
      <trkpt lat="39.8570430" lon="3.1480640">
        <ele>24.8</ele>
        <time>2022-09-22T15:55:18Z</time>
      </trkpt>
      <trkpt lat="39.8569230" lon="3.1481260">
        <ele>24.2</ele>
        <time>2022-09-22T15:55:20Z</time>
      </trkpt>
      <trkpt lat="39.8566890" lon="3.1482170">
        <ele>24.2</ele>
        <time>2022-09-22T15:55:24Z</time>
      </trkpt>
      <trkpt lat="39.8563430" lon="3.1483580">
        <ele>24.8</ele>
        <time>2022-09-22T15:55:31Z</time>
      </trkpt>
      <trkpt lat="39.8562510" lon="3.1483940">
        <ele>25.2</ele>
        <time>2022-09-22T15:55:33Z</time>
      </trkpt>
      <trkpt lat="39.8562090" lon="3.1484150">
        <ele>25.2</ele>
        <time>2022-09-22T15:55:34Z</time>
      </trkpt>
      <trkpt lat="39.8560280" lon="3.1484950">
        <ele>26.4</ele>
        <time>2022-09-22T15:55:38Z</time>
      </trkpt>
      <trkpt lat="39.8558870" lon="3.1485630">
        <ele>27.0</ele>
        <time>2022-09-22T15:55:41Z</time>
      </trkpt>
      <trkpt lat="39.8557960" lon="3.1486090">
        <ele>27.4</ele>
        <time>2022-09-22T15:55:43Z</time>
      </trkpt>
      <trkpt lat="39.8556610" lon="3.1486870">
        <ele>28.0</ele>
        <time>2022-09-22T15:55:46Z</time>
      </trkpt>
      <trkpt lat="39.8556200" lon="3.1487210">
        <ele>28.2</ele>
        <time>2022-09-22T15:55:47Z</time>
      </trkpt>
      <trkpt lat="39.8555040" lon="3.1488410">
        <ele>28.6</ele>
        <time>2022-09-22T15:55:50Z</time>
      </trkpt>
      <trkpt lat="39.8553530" lon="3.1490020">
        <ele>29.4</ele>
        <time>2022-09-22T15:55:54Z</time>
      </trkpt>
      <trkpt lat="39.8552850" lon="3.1490920">
        <ele>29.8</ele>
        <time>2022-09-22T15:55:56Z</time>
      </trkpt>
      <trkpt lat="39.8551860" lon="3.1492290">
        <ele>30.2</ele>
        <time>2022-09-22T15:55:59Z</time>
      </trkpt>
      <trkpt lat="39.8550300" lon="3.1494860">
        <ele>30.8</ele>
        <time>2022-09-22T15:56:04Z</time>
      </trkpt>
      <trkpt lat="39.8549670" lon="3.1495870">
        <ele>31.0</ele>
        <time>2022-09-22T15:56:06Z</time>
      </trkpt>
      <trkpt lat="39.8547800" lon="3.1498520">
        <ele>31.8</ele>
        <time>2022-09-22T15:56:12Z</time>
      </trkpt>
      <trkpt lat="39.8547180" lon="3.1499310">
        <ele>32.2</ele>
        <time>2022-09-22T15:56:14Z</time>
      </trkpt>
      <trkpt lat="39.8545570" lon="3.1501070">
        <ele>32.8</ele>
        <time>2022-09-22T15:56:19Z</time>
      </trkpt>
      <trkpt lat="39.8545260" lon="3.1501370">
        <ele>33.0</ele>
        <time>2022-09-22T15:56:20Z</time>
      </trkpt>
      <trkpt lat="39.8543850" lon="3.1502450">
        <ele>33.8</ele>
        <time>2022-09-22T15:56:24Z</time>
      </trkpt>
      <trkpt lat="39.8543150" lon="3.1503050">
        <ele>34.0</ele>
        <time>2022-09-22T15:56:26Z</time>
      </trkpt>
      <trkpt lat="39.8541450" lon="3.1504740">
        <ele>34.8</ele>
        <time>2022-09-22T15:56:31Z</time>
      </trkpt>
      <trkpt lat="39.8540360" lon="3.1505700">
        <ele>35.0</ele>
        <time>2022-09-22T15:56:34Z</time>
      </trkpt>
      <trkpt lat="39.8539230" lon="3.1506660">
        <ele>35.6</ele>
        <time>2022-09-22T15:56:37Z</time>
      </trkpt>
      <trkpt lat="39.8538580" lon="3.1507420">
        <ele>36.2</ele>
        <time>2022-09-22T15:56:39Z</time>
      </trkpt>
      <trkpt lat="39.8537240" lon="3.1509550">
        <ele>37.2</ele>
        <time>2022-09-22T15:56:44Z</time>
      </trkpt>
      <trkpt lat="39.8536990" lon="3.1509960">
        <ele>37.4</ele>
        <time>2022-09-22T15:56:45Z</time>
      </trkpt>
      <trkpt lat="39.8535670" lon="3.1512040">
        <ele>38.4</ele>
        <time>2022-09-22T15:56:50Z</time>
      </trkpt>
      <trkpt lat="39.8535400" lon="3.1512440">
        <ele>38.6</ele>
        <time>2022-09-22T15:56:51Z</time>
      </trkpt>
      <trkpt lat="39.8534610" lon="3.1513670">
        <ele>39.6</ele>
        <time>2022-09-22T15:56:54Z</time>
      </trkpt>
      <trkpt lat="39.8534350" lon="3.1514090">
        <ele>39.8</ele>
        <time>2022-09-22T15:56:55Z</time>
      </trkpt>
      <trkpt lat="39.8533080" lon="3.1516110">
        <ele>40.8</ele>
        <time>2022-09-22T15:57:00Z</time>
      </trkpt>
      <trkpt lat="39.8532590" lon="3.1516820">
        <ele>41.2</ele>
        <time>2022-09-22T15:57:02Z</time>
      </trkpt>
      <trkpt lat="39.8531880" lon="3.1517880">
        <ele>41.8</ele>
        <time>2022-09-22T15:57:05Z</time>
      </trkpt>
      <trkpt lat="39.8530700" lon="3.1519370">
        <ele>42.8</ele>
        <time>2022-09-22T15:57:09Z</time>
      </trkpt>
      <trkpt lat="39.8530350" lon="3.1519740">
        <ele>43.2</ele>
        <time>2022-09-22T15:57:10Z</time>
      </trkpt>
      <trkpt lat="39.8528910" lon="3.1521210">
        <ele>44.0</ele>
        <time>2022-09-22T15:57:14Z</time>
      </trkpt>
      <trkpt lat="39.8526710" lon="3.1523390">
        <ele>44.6</ele>
        <time>2022-09-22T15:57:20Z</time>
      </trkpt>
      <trkpt lat="39.8525980" lon="3.1524130">
        <ele>44.8</ele>
        <time>2022-09-22T15:57:22Z</time>
      </trkpt>
      <trkpt lat="39.8525350" lon="3.1524930">
        <ele>45.2</ele>
        <time>2022-09-22T15:57:24Z</time>
      </trkpt>
      <trkpt lat="39.8524580" lon="3.1526270">
        <ele>45.4</ele>
        <time>2022-09-22T15:57:27Z</time>
      </trkpt>
      <trkpt lat="39.8523270" lon="3.1528440">
        <ele>46.0</ele>
        <time>2022-09-22T15:57:32Z</time>
      </trkpt>
      <trkpt lat="39.8522370" lon="3.1530080">
        <ele>46.8</ele>
        <time>2022-09-22T15:57:36Z</time>
      </trkpt>
      <trkpt lat="39.8522140" lon="3.1530480">
        <ele>47.2</ele>
        <time>2022-09-22T15:57:37Z</time>
      </trkpt>
      <trkpt lat="39.8521470" lon="3.1531590">
        <ele>48.2</ele>
        <time>2022-09-22T15:57:40Z</time>
      </trkpt>
      <trkpt lat="39.8520630" lon="3.1532990">
        <ele>49.4</ele>
        <time>2022-09-22T15:57:44Z</time>
      </trkpt>
      <trkpt lat="39.8519770" lon="3.1534330">
        <ele>50.6</ele>
        <time>2022-09-22T15:57:48Z</time>
      </trkpt>
      <trkpt lat="39.8519170" lon="3.1535360">
        <ele>51.8</ele>
        <time>2022-09-22T15:57:51Z</time>
      </trkpt>
      <trkpt lat="39.8518770" lon="3.1536020">
        <ele>52.2</ele>
        <time>2022-09-22T15:57:53Z</time>
      </trkpt>
      <trkpt lat="39.8518180" lon="3.1536950">
        <ele>53.0</ele>
        <time>2022-09-22T15:57:56Z</time>
      </trkpt>
      <trkpt lat="39.8517400" lon="3.1538200">
        <ele>54.0</ele>
        <time>2022-09-22T15:58:00Z</time>
      </trkpt>
      <trkpt lat="39.8516610" lon="3.1539490">
        <ele>55.0</ele>
        <time>2022-09-22T15:58:04Z</time>
      </trkpt>
      <trkpt lat="39.8516420" lon="3.1539820">
        <ele>55.2</ele>
        <time>2022-09-22T15:58:05Z</time>
      </trkpt>
      <trkpt lat="39.8515630" lon="3.1541270">
        <ele>56.2</ele>
        <time>2022-09-22T15:58:09Z</time>
      </trkpt>
      <trkpt lat="39.8514840" lon="3.1542780">
        <ele>57.0</ele>
        <time>2022-09-22T15:58:13Z</time>
      </trkpt>
      <trkpt lat="39.8514620" lon="3.1543160">
        <ele>57.4</ele>
        <time>2022-09-22T15:58:14Z</time>
      </trkpt>
      <trkpt lat="39.8513390" lon="3.1545430">
        <ele>58.6</ele>
        <time>2022-09-22T15:58:20Z</time>
      </trkpt>
      <trkpt lat="39.8512950" lon="3.1546220">
        <ele>59.6</ele>
        <time>2022-09-22T15:58:22Z</time>
      </trkpt>
      <trkpt lat="39.8512740" lon="3.1546630">
        <ele>59.8</ele>
        <time>2022-09-22T15:58:23Z</time>
      </trkpt>
      <trkpt lat="39.8511900" lon="3.1548260">
        <ele>61.0</ele>
        <time>2022-09-22T15:58:27Z</time>
      </trkpt>
      <trkpt lat="39.8511310" lon="3.1549450">
        <ele>61.6</ele>
        <time>2022-09-22T15:58:30Z</time>
      </trkpt>
      <trkpt lat="39.8510910" lon="3.1550210">
        <ele>62.0</ele>
        <time>2022-09-22T15:58:32Z</time>
      </trkpt>
      <trkpt lat="39.8509520" lon="3.1552900">
        <ele>62.6</ele>
        <time>2022-09-22T15:58:39Z</time>
      </trkpt>
      <trkpt lat="39.8509250" lon="3.1553840">
        <ele>63.0</ele>
        <time>2022-09-22T15:58:41Z</time>
      </trkpt>
      <trkpt lat="39.8509200" lon="3.1554360">
        <ele>63.2</ele>
        <time>2022-09-22T15:58:42Z</time>
      </trkpt>
      <trkpt lat="39.8509250" lon="3.1555380">
        <ele>63.6</ele>
        <time>2022-09-22T15:58:44Z</time>
      </trkpt>
      <trkpt lat="39.8510120" lon="3.1557510">
        <ele>63.8</ele>
        <time>2022-09-22T15:58:48Z</time>
      </trkpt>
      <trkpt lat="39.8510900" lon="3.1558670">
        <ele>63.8</ele>
        <time>2022-09-22T15:58:50Z</time>
      </trkpt>
      <trkpt lat="39.8511280" lon="3.1559300">
        <ele>63.8</ele>
        <time>2022-09-22T15:58:51Z</time>
      </trkpt>
      <trkpt lat="39.8511550" lon="3.1560010">
        <ele>63.8</ele>
        <time>2022-09-22T15:58:52Z</time>
      </trkpt>
      <trkpt lat="39.8511400" lon="3.1562510">
        <ele>63.4</ele>
        <time>2022-09-22T15:58:55Z</time>
      </trkpt>
      <trkpt lat="39.8511160" lon="3.1563330">
        <ele>63.0</ele>
        <time>2022-09-22T15:58:56Z</time>
      </trkpt>
      <trkpt lat="39.8510820" lon="3.1564820">
        <ele>62.2</ele>
        <time>2022-09-22T15:58:58Z</time>
      </trkpt>
      <trkpt lat="39.8510800" lon="3.1565440">
        <ele>61.6</ele>
        <time>2022-09-22T15:58:59Z</time>
      </trkpt>
      <trkpt lat="39.8511070" lon="3.1566280">
        <ele>60.8</ele>
        <time>2022-09-22T15:59:01Z</time>
      </trkpt>
      <trkpt lat="39.8511340" lon="3.1566520">
        <ele>60.2</ele>
        <time>2022-09-22T15:59:02Z</time>
      </trkpt>
      <trkpt lat="39.8511880" lon="3.1566580">
        <ele>59.8</ele>
        <time>2022-09-22T15:59:04Z</time>
      </trkpt>
      <trkpt lat="39.8512260" lon="3.1566580">
        <ele>59.4</ele>
        <time>2022-09-22T15:59:06Z</time>
      </trkpt>
      <trkpt lat="39.8513140" lon="3.1567040">
        <ele>59.4</ele>
        <time>2022-09-22T15:59:10Z</time>
      </trkpt>
      <trkpt lat="39.8513350" lon="3.1567130">
        <ele>59.4</ele>
        <time>2022-09-22T15:59:11Z</time>
      </trkpt>
      <trkpt lat="39.8513840" lon="3.1567720">
        <ele>60.8</ele>
        <time>2022-09-22T15:59:14Z</time>
      </trkpt>
      <trkpt lat="39.8514130" lon="3.1568190">
        <ele>61.8</ele>
        <time>2022-09-22T15:59:16Z</time>
      </trkpt>
      <trkpt lat="39.8514260" lon="3.1568400">
        <ele>62.0</ele>
        <time>2022-09-22T15:59:17Z</time>
      </trkpt>
      <trkpt lat="39.8514500" lon="3.1568760">
        <ele>63.2</ele>
        <time>2022-09-22T15:59:19Z</time>
      </trkpt>
      <trkpt lat="39.8515010" lon="3.1569190">
        <ele>64.2</ele>
        <time>2022-09-22T15:59:22Z</time>
      </trkpt>
      <trkpt lat="39.8515200" lon="3.1569300">
        <ele>64.6</ele>
        <time>2022-09-22T15:59:23Z</time>
      </trkpt>
      <trkpt lat="39.8515880" lon="3.1569400">
        <ele>65.4</ele>
        <time>2022-09-22T15:59:26Z</time>
      </trkpt>
      <trkpt lat="39.8516270" lon="3.1569180">
        <ele>66.0</ele>
        <time>2022-09-22T15:59:28Z</time>
      </trkpt>
      <trkpt lat="39.8516450" lon="3.1569010">
        <ele>66.4</ele>
        <time>2022-09-22T15:59:29Z</time>
      </trkpt>
      <trkpt lat="39.8516840" lon="3.1568420">
        <ele>67.6</ele>
        <time>2022-09-22T15:59:32Z</time>
      </trkpt>
      <trkpt lat="39.8517070" lon="3.1568020">
        <ele>68.2</ele>
        <time>2022-09-22T15:59:34Z</time>
      </trkpt>
      <trkpt lat="39.8517220" lon="3.1567850">
        <ele>68.6</ele>
        <time>2022-09-22T15:59:35Z</time>
      </trkpt>
      <trkpt lat="39.8517700" lon="3.1567280">
        <ele>70.0</ele>
        <time>2022-09-22T15:59:38Z</time>
      </trkpt>
      <trkpt lat="39.8518030" lon="3.1566910">
        <ele>70.6</ele>
        <time>2022-09-22T15:59:40Z</time>
      </trkpt>
      <trkpt lat="39.8518190" lon="3.1566740">
        <ele>71.0</ele>
        <time>2022-09-22T15:59:41Z</time>
      </trkpt>
      <trkpt lat="39.8518780" lon="3.1565960">
        <ele>72.2</ele>
        <time>2022-09-22T15:59:45Z</time>
      </trkpt>
      <trkpt lat="39.8519200" lon="3.1565360">
        <ele>73.4</ele>
        <time>2022-09-22T15:59:48Z</time>
      </trkpt>
      <trkpt lat="39.8519810" lon="3.1564580">
        <ele>74.6</ele>
        <time>2022-09-22T15:59:52Z</time>
      </trkpt>
      <trkpt lat="39.8520210" lon="3.1564050">
        <ele>75.6</ele>
        <time>2022-09-22T15:59:55Z</time>
      </trkpt>
      <trkpt lat="39.8520340" lon="3.1563900">
        <ele>76.0</ele>
        <time>2022-09-22T15:59:56Z</time>
      </trkpt>
      <trkpt lat="39.8520570" lon="3.1563580">
        <ele>76.4</ele>
        <time>2022-09-22T15:59:58Z</time>
      </trkpt>
      <trkpt lat="39.8521080" lon="3.1563000">
        <ele>77.6</ele>
        <time>2022-09-22T16:00:01Z</time>
      </trkpt>
      <trkpt lat="39.8521290" lon="3.1562800">
        <ele>78.0</ele>
        <time>2022-09-22T16:00:02Z</time>
      </trkpt>
      <trkpt lat="39.8521720" lon="3.1562310">
        <ele>78.6</ele>
        <time>2022-09-22T16:00:04Z</time>
      </trkpt>
      <trkpt lat="39.8522940" lon="3.1561180">
        <ele>79.8</ele>
        <time>2022-09-22T16:00:09Z</time>
      </trkpt>
      <trkpt lat="39.8523200" lon="3.1561050">
        <ele>80.0</ele>
        <time>2022-09-22T16:00:10Z</time>
      </trkpt>
      <trkpt lat="39.8525060" lon="3.1560710">
        <ele>80.6</ele>
        <time>2022-09-22T16:00:15Z</time>
      </trkpt>
      <trkpt lat="39.8526570" lon="3.1560520">
        <ele>80.6</ele>
        <time>2022-09-22T16:00:18Z</time>
      </trkpt>
      <trkpt lat="39.8527950" lon="3.1560130">
        <ele>80.6</ele>
        <time>2022-09-22T16:00:21Z</time>
      </trkpt>
      <trkpt lat="39.8529630" lon="3.1559760">
        <ele>80.8</ele>
        <time>2022-09-22T16:00:25Z</time>
      </trkpt>
      <trkpt lat="39.8530050" lon="3.1559700">
        <ele>80.8</ele>
        <time>2022-09-22T16:00:26Z</time>
      </trkpt>
      <trkpt lat="39.8533020" lon="3.1559420">
        <ele>81.0</ele>
        <time>2022-09-22T16:00:32Z</time>
      </trkpt>
      <trkpt lat="39.8535110" lon="3.1559410">
        <ele>81.0</ele>
        <time>2022-09-22T16:00:36Z</time>
      </trkpt>
      <trkpt lat="39.8535620" lon="3.1559450">
        <ele>81.0</ele>
        <time>2022-09-22T16:00:37Z</time>
      </trkpt>
      <trkpt lat="39.8536140" lon="3.1559560">
        <ele>81.0</ele>
        <time>2022-09-22T16:00:38Z</time>
      </trkpt>
      <trkpt lat="39.8538010" lon="3.1560220">
        <ele>81.0</ele>
        <time>2022-09-22T16:00:42Z</time>
      </trkpt>
      <trkpt lat="39.8538340" lon="3.1560420">
        <ele>81.0</ele>
        <time>2022-09-22T16:00:43Z</time>
      </trkpt>
      <trkpt lat="39.8539980" lon="3.1561240">
        <ele>81.0</ele>
        <time>2022-09-22T16:00:49Z</time>
      </trkpt>
      <trkpt lat="39.8540510" lon="3.1561410">
        <ele>81.6</ele>
        <time>2022-09-22T16:00:51Z</time>
      </trkpt>
      <trkpt lat="39.8541070" lon="3.1561540">
        <ele>82.8</ele>
        <time>2022-09-22T16:00:53Z</time>
      </trkpt>
      <trkpt lat="39.8541810" lon="3.1561730">
        <ele>84.0</ele>
        <time>2022-09-22T16:00:56Z</time>
      </trkpt>
      <trkpt lat="39.8542070" lon="3.1561770">
        <ele>84.6</ele>
        <time>2022-09-22T16:00:57Z</time>
      </trkpt>
      <trkpt lat="39.8542580" lon="3.1561920">
        <ele>85.4</ele>
        <time>2022-09-22T16:00:59Z</time>
      </trkpt>
      <trkpt lat="39.8543150" lon="3.1562090">
        <ele>86.4</ele>
        <time>2022-09-22T16:01:01Z</time>
      </trkpt>
      <trkpt lat="39.8543940" lon="3.1562190">
        <ele>87.6</ele>
        <time>2022-09-22T16:01:03Z</time>
      </trkpt>
      <trkpt lat="39.8545240" lon="3.1562650">
        <ele>87.8</ele>
        <time>2022-09-22T16:01:06Z</time>
      </trkpt>
      <trkpt lat="39.8546410" lon="3.1563470">
        <ele>87.8</ele>
        <time>2022-09-22T16:01:09Z</time>
      </trkpt>
      <trkpt lat="39.8546790" lon="3.1563680">
        <ele>87.8</ele>
        <time>2022-09-22T16:01:10Z</time>
      </trkpt>
      <trkpt lat="39.8547970" lon="3.1563520">
        <ele>87.0</ele>
        <time>2022-09-22T16:01:13Z</time>
      </trkpt>
      <trkpt lat="39.8548370" lon="3.1563360">
        <ele>86.0</ele>
        <time>2022-09-22T16:01:14Z</time>
      </trkpt>
      <trkpt lat="39.8548840" lon="3.1563200">
        <ele>85.6</ele>
        <time>2022-09-22T16:01:15Z</time>
      </trkpt>
      <trkpt lat="39.8549360" lon="3.1563060">
        <ele>84.2</ele>
        <time>2022-09-22T16:01:16Z</time>
      </trkpt>
      <trkpt lat="39.8549890" lon="3.1562880">
        <ele>83.6</ele>
        <time>2022-09-22T16:01:17Z</time>
      </trkpt>
      <trkpt lat="39.8550380" lon="3.1562610">
        <ele>83.0</ele>
        <time>2022-09-22T16:01:18Z</time>
      </trkpt>
      <trkpt lat="39.8551150" lon="3.1562050">
        <ele>81.8</ele>
        <time>2022-09-22T16:01:20Z</time>
      </trkpt>
      <trkpt lat="39.8551920" lon="3.1561590">
        <ele>80.2</ele>
        <time>2022-09-22T16:01:22Z</time>
      </trkpt>
      <trkpt lat="39.8552380" lon="3.1561400">
        <ele>79.0</ele>
        <time>2022-09-22T16:01:23Z</time>
      </trkpt>
      <trkpt lat="39.8552760" lon="3.1561200">
        <ele>78.0</ele>
        <time>2022-09-22T16:01:24Z</time>
      </trkpt>
      <trkpt lat="39.8553380" lon="3.1560680">
        <ele>76.8</ele>
        <time>2022-09-22T16:01:26Z</time>
      </trkpt>
      <trkpt lat="39.8553680" lon="3.1560470">
        <ele>76.6</ele>
        <time>2022-09-22T16:01:27Z</time>
      </trkpt>
      <trkpt lat="39.8553960" lon="3.1560410">
        <ele>76.4</ele>
        <time>2022-09-22T16:01:28Z</time>
      </trkpt>
      <trkpt lat="39.8554550" lon="3.1560350">
        <ele>75.6</ele>
        <time>2022-09-22T16:01:30Z</time>
      </trkpt>
      <trkpt lat="39.8554850" lon="3.1560190">
        <ele>75.4</ele>
        <time>2022-09-22T16:01:31Z</time>
      </trkpt>
      <trkpt lat="39.8555850" lon="3.1559620">
        <ele>74.4</ele>
        <time>2022-09-22T16:01:34Z</time>
      </trkpt>
      <trkpt lat="39.8556470" lon="3.1559110">
        <ele>73.6</ele>
        <time>2022-09-22T16:01:36Z</time>
      </trkpt>
      <trkpt lat="39.8556740" lon="3.1558810">
        <ele>73.2</ele>
        <time>2022-09-22T16:01:37Z</time>
      </trkpt>
      <trkpt lat="39.8557440" lon="3.1558340">
        <ele>71.8</ele>
        <time>2022-09-22T16:01:40Z</time>
      </trkpt>
      <trkpt lat="39.8557610" lon="3.1558310">
        <ele>71.4</ele>
        <time>2022-09-22T16:01:41Z</time>
      </trkpt>
      <trkpt lat="39.8557900" lon="3.1558480">
        <ele>70.4</ele>
        <time>2022-09-22T16:01:43Z</time>
      </trkpt>
      <trkpt lat="39.8558280" lon="3.1559300">
        <ele>68.8</ele>
        <time>2022-09-22T16:01:46Z</time>
      </trkpt>
      <trkpt lat="39.8558170" lon="3.1560560">
        <ele>67.8</ele>
        <time>2022-09-22T16:01:49Z</time>
      </trkpt>
      <trkpt lat="39.8558230" lon="3.1560950">
        <ele>67.2</ele>
        <time>2022-09-22T16:01:50Z</time>
      </trkpt>
      <trkpt lat="39.8558340" lon="3.1561260">
        <ele>66.6</ele>
        <time>2022-09-22T16:01:51Z</time>
      </trkpt>
      <trkpt lat="39.8558600" lon="3.1561630">
        <ele>65.6</ele>
        <time>2022-09-22T16:01:53Z</time>
      </trkpt>
      <trkpt lat="39.8558710" lon="3.1561710">
        <ele>64.8</ele>
        <time>2022-09-22T16:01:54Z</time>
      </trkpt>
      <trkpt lat="39.8558830" lon="3.1561720">
        <ele>64.2</ele>
        <time>2022-09-22T16:01:55Z</time>
      </trkpt>
      <trkpt lat="39.8559120" lon="3.1561590">
        <ele>63.4</ele>
        <time>2022-09-22T16:01:57Z</time>
      </trkpt>
      <trkpt lat="39.8559370" lon="3.1561590">
        <ele>63.0</ele>
        <time>2022-09-22T16:01:58Z</time>
      </trkpt>
      <trkpt lat="39.8559730" lon="3.1561720">
        <ele>62.4</ele>
        <time>2022-09-22T16:01:59Z</time>
      </trkpt>
      <trkpt lat="39.8560240" lon="3.1561820">
        <ele>62.0</ele>
        <time>2022-09-22T16:02:00Z</time>
      </trkpt>
      <trkpt lat="39.8561120" lon="3.1561560">
        <ele>61.4</ele>
        <time>2022-09-22T16:02:02Z</time>
      </trkpt>
      <trkpt lat="39.8561420" lon="3.1561360">
        <ele>61.2</ele>
        <time>2022-09-22T16:02:03Z</time>
      </trkpt>
      <trkpt lat="39.8561970" lon="3.1561220">
        <ele>60.6</ele>
        <time>2022-09-22T16:02:05Z</time>
      </trkpt>
      <trkpt lat="39.8562510" lon="3.1561170">
        <ele>60.4</ele>
        <time>2022-09-22T16:02:07Z</time>
      </trkpt>
      <trkpt lat="39.8563040" lon="3.1561210">
        <ele>60.2</ele>
        <time>2022-09-22T16:02:09Z</time>
      </trkpt>
      <trkpt lat="39.8563470" lon="3.1561250">
        <ele>60.2</ele>
        <time>2022-09-22T16:02:11Z</time>
      </trkpt>
      <trkpt lat="39.8563670" lon="3.1561200">
        <ele>60.2</ele>
        <time>2022-09-22T16:02:12Z</time>
      </trkpt>
      <trkpt lat="39.8564120" lon="3.1561080">
        <ele>60.2</ele>
        <time>2022-09-22T16:02:14Z</time>
      </trkpt>
      <trkpt lat="39.8564550" lon="3.1561030">
        <ele>61.0</ele>
        <time>2022-09-22T16:02:16Z</time>
      </trkpt>
      <trkpt lat="39.8565030" lon="3.1560920">
        <ele>62.0</ele>
        <time>2022-09-22T16:02:18Z</time>
      </trkpt>
      <trkpt lat="39.8566130" lon="3.1560720">
        <ele>63.0</ele>
        <time>2022-09-22T16:02:22Z</time>
      </trkpt>
      <trkpt lat="39.8567010" lon="3.1560750">
        <ele>63.4</ele>
        <time>2022-09-22T16:02:25Z</time>
      </trkpt>
      <trkpt lat="39.8569210" lon="3.1561260">
        <ele>64.0</ele>
        <time>2022-09-22T16:02:32Z</time>
      </trkpt>
      <trkpt lat="39.8570920" lon="3.1561740">
        <ele>64.6</ele>
        <time>2022-09-22T16:02:38Z</time>
      </trkpt>
      <trkpt lat="39.8570990" lon="3.1561770">
        <ele>64.8</ele>
        <time>2022-09-22T16:02:40Z</time>
      </trkpt>
      <trkpt lat="39.8571450" lon="3.1561910">
        <ele>65.6</ele>
        <time>2022-09-22T16:05:12Z</time>
      </trkpt>
      <trkpt lat="39.8572000" lon="3.1562090">
        <ele>65.6</ele>
        <time>2022-09-22T16:05:14Z</time>
      </trkpt>
      <trkpt lat="39.8572310" lon="3.1562190">
        <ele>65.6</ele>
        <time>2022-09-22T16:05:15Z</time>
      </trkpt>
      <trkpt lat="39.8572870" lon="3.1562360">
        <ele>65.4</ele>
        <time>2022-09-22T16:05:17Z</time>
      </trkpt>
      <trkpt lat="39.8573130" lon="3.1562470">
        <ele>65.4</ele>
        <time>2022-09-22T16:05:18Z</time>
      </trkpt>
      <trkpt lat="39.8573820" lon="3.1562860">
        <ele>65.4</ele>
        <time>2022-09-22T16:05:21Z</time>
      </trkpt>
      <trkpt lat="39.8574320" lon="3.1563050">
        <ele>65.4</ele>
        <time>2022-09-22T16:05:23Z</time>
      </trkpt>
      <trkpt lat="39.8574620" lon="3.1563200">
        <ele>65.4</ele>
        <time>2022-09-22T16:05:24Z</time>
      </trkpt>
      <trkpt lat="39.8575210" lon="3.1563540">
        <ele>65.2</ele>
        <time>2022-09-22T16:05:26Z</time>
      </trkpt>
      <trkpt lat="39.8576140" lon="3.1563890">
        <ele>65.2</ele>
        <time>2022-09-22T16:05:29Z</time>
      </trkpt>
      <trkpt lat="39.8576510" lon="3.1563960">
        <ele>65.2</ele>
        <time>2022-09-22T16:05:30Z</time>
      </trkpt>
      <trkpt lat="39.8577670" lon="3.1564090">
        <ele>65.2</ele>
        <time>2022-09-22T16:05:33Z</time>
      </trkpt>
      <trkpt lat="39.8578660" lon="3.1564100">
        <ele>65.2</ele>
        <time>2022-09-22T16:05:35Z</time>
      </trkpt>
      <trkpt lat="39.8579810" lon="3.1564280">
        <ele>65.2</ele>
        <time>2022-09-22T16:05:37Z</time>
      </trkpt>
      <trkpt lat="39.8580770" lon="3.1565080">
        <ele>65.2</ele>
        <time>2022-09-22T16:05:39Z</time>
      </trkpt>
      <trkpt lat="39.8581480" lon="3.1565910">
        <ele>64.6</ele>
        <time>2022-09-22T16:05:41Z</time>
      </trkpt>
      <trkpt lat="39.8581760" lon="3.1566200">
        <ele>64.4</ele>
        <time>2022-09-22T16:05:42Z</time>
      </trkpt>
      <trkpt lat="39.8582010" lon="3.1566380">
        <ele>64.0</ele>
        <time>2022-09-22T16:05:43Z</time>
      </trkpt>
      <trkpt lat="39.8582450" lon="3.1566450">
        <ele>63.8</ele>
        <time>2022-09-22T16:05:45Z</time>
      </trkpt>
      <trkpt lat="39.8582890" lon="3.1566400">
        <ele>63.8</ele>
        <time>2022-09-22T16:05:47Z</time>
      </trkpt>
      <trkpt lat="39.8583070" lon="3.1566340">
        <ele>63.8</ele>
        <time>2022-09-22T16:05:48Z</time>
      </trkpt>
      <trkpt lat="39.8583410" lon="3.1566360">
        <ele>63.8</ele>
        <time>2022-09-22T16:05:50Z</time>
      </trkpt>
      <trkpt lat="39.8583760" lon="3.1566530">
        <ele>63.8</ele>
        <time>2022-09-22T16:05:52Z</time>
      </trkpt>
      <trkpt lat="39.8583950" lon="3.1566580">
        <ele>64.4</ele>
        <time>2022-09-22T16:05:53Z</time>
      </trkpt>
      <trkpt lat="39.8584300" lon="3.1566740">
        <ele>64.6</ele>
        <time>2022-09-22T16:05:55Z</time>
      </trkpt>
      <trkpt lat="39.8584730" lon="3.1566850">
        <ele>65.4</ele>
        <time>2022-09-22T16:05:57Z</time>
      </trkpt>
      <trkpt lat="39.8584950" lon="3.1566900">
        <ele>65.6</ele>
        <time>2022-09-22T16:05:58Z</time>
      </trkpt>
      <trkpt lat="39.8585160" lon="3.1566970">
        <ele>65.8</ele>
        <time>2022-09-22T16:05:59Z</time>
      </trkpt>
      <trkpt lat="39.8585530" lon="3.1567140">
        <ele>66.6</ele>
        <time>2022-09-22T16:06:01Z</time>
      </trkpt>
      <trkpt lat="39.8585890" lon="3.1567340">
        <ele>67.0</ele>
        <time>2022-09-22T16:06:03Z</time>
      </trkpt>
      <trkpt lat="39.8586210" lon="3.1567530">
        <ele>67.6</ele>
        <time>2022-09-22T16:06:05Z</time>
      </trkpt>
      <trkpt lat="39.8586650" lon="3.1567820">
        <ele>69.0</ele>
        <time>2022-09-22T16:06:08Z</time>
      </trkpt>
      <trkpt lat="39.8586940" lon="3.1567960">
        <ele>70.4</ele>
        <time>2022-09-22T16:06:10Z</time>
      </trkpt>
      <trkpt lat="39.8587190" lon="3.1568210">
        <ele>71.0</ele>
        <time>2022-09-22T16:06:12Z</time>
      </trkpt>
      <trkpt lat="39.8587380" lon="3.1568570">
        <ele>71.6</ele>
        <time>2022-09-22T16:06:14Z</time>
      </trkpt>
      <trkpt lat="39.8587410" lon="3.1568760">
        <ele>72.0</ele>
        <time>2022-09-22T16:06:15Z</time>
      </trkpt>
      <trkpt lat="39.8587550" lon="3.1569480">
        <ele>72.8</ele>
        <time>2022-09-22T16:06:18Z</time>
      </trkpt>
      <trkpt lat="39.8587740" lon="3.1570090">
        <ele>73.8</ele>
        <time>2022-09-22T16:06:21Z</time>
      </trkpt>
      <trkpt lat="39.8587770" lon="3.1570500">
        <ele>74.4</ele>
        <time>2022-09-22T16:06:23Z</time>
      </trkpt>
      <trkpt lat="39.8587700" lon="3.1570930">
        <ele>75.0</ele>
        <time>2022-09-22T16:06:25Z</time>
      </trkpt>
      <trkpt lat="39.8587650" lon="3.1571160">
        <ele>75.0</ele>
        <time>2022-09-22T16:06:26Z</time>
      </trkpt>
      <trkpt lat="39.8587510" lon="3.1571790">
        <ele>76.0</ele>
        <time>2022-09-22T16:06:29Z</time>
      </trkpt>
      <trkpt lat="39.8587510" lon="3.1571980">
        <ele>76.2</ele>
        <time>2022-09-22T16:06:30Z</time>
      </trkpt>
      <trkpt lat="39.8587560" lon="3.1572510">
        <ele>77.0</ele>
        <time>2022-09-22T16:06:33Z</time>
      </trkpt>
      <trkpt lat="39.8587630" lon="3.1572650">
        <ele>77.2</ele>
        <time>2022-09-22T16:06:34Z</time>
      </trkpt>
      <trkpt lat="39.8588100" lon="3.1573020">
        <ele>78.4</ele>
        <time>2022-09-22T16:06:38Z</time>
      </trkpt>
      <trkpt lat="39.8588230" lon="3.1573080">
        <ele>79.0</ele>
        <time>2022-09-22T16:06:39Z</time>
      </trkpt>
      <trkpt lat="39.8588510" lon="3.1573180">
        <ele>79.8</ele>
        <time>2022-09-22T16:06:41Z</time>
      </trkpt>
      <trkpt lat="39.8588960" lon="3.1573390">
        <ele>80.8</ele>
        <time>2022-09-22T16:06:44Z</time>
      </trkpt>
      <trkpt lat="39.8589250" lon="3.1573390">
        <ele>81.2</ele>
        <time>2022-09-22T16:06:46Z</time>
      </trkpt>
      <trkpt lat="39.8589520" lon="3.1573340">
        <ele>81.8</ele>
        <time>2022-09-22T16:06:48Z</time>
      </trkpt>
      <trkpt lat="39.8590360" lon="3.1573080">
        <ele>82.8</ele>
        <time>2022-09-22T16:06:53Z</time>
      </trkpt>
      <trkpt lat="39.8590800" lon="3.1572860">
        <ele>84.0</ele>
        <time>2022-09-22T16:06:56Z</time>
      </trkpt>
      <trkpt lat="39.8591630" lon="3.1572470">
        <ele>85.0</ele>
        <time>2022-09-22T16:07:02Z</time>
      </trkpt>
      <trkpt lat="39.8592280" lon="3.1572080">
        <ele>86.2</ele>
        <time>2022-09-22T16:07:06Z</time>
      </trkpt>
      <trkpt lat="39.8592610" lon="3.1571930">
        <ele>86.8</ele>
        <time>2022-09-22T16:07:08Z</time>
      </trkpt>
      <trkpt lat="39.8592840" lon="3.1571670">
        <ele>87.2</ele>
        <time>2022-09-22T16:07:10Z</time>
      </trkpt>
      <trkpt lat="39.8593660" lon="3.1570950">
        <ele>88.6</ele>
        <time>2022-09-22T16:07:16Z</time>
      </trkpt>
      <trkpt lat="39.8593800" lon="3.1570860">
        <ele>88.8</ele>
        <time>2022-09-22T16:07:17Z</time>
      </trkpt>
      <trkpt lat="39.8594250" lon="3.1570580">
        <ele>89.6</ele>
        <time>2022-09-22T16:07:20Z</time>
      </trkpt>
      <trkpt lat="39.8594850" lon="3.1569880">
        <ele>90.4</ele>
        <time>2022-09-22T16:07:24Z</time>
      </trkpt>
      <trkpt lat="39.8595020" lon="3.1569730">
        <ele>90.6</ele>
        <time>2022-09-22T16:07:25Z</time>
      </trkpt>
      <trkpt lat="39.8595700" lon="3.1569150">
        <ele>91.4</ele>
        <time>2022-09-22T16:07:29Z</time>
      </trkpt>
      <trkpt lat="39.8596040" lon="3.1568810">
        <ele>91.8</ele>
        <time>2022-09-22T16:07:31Z</time>
      </trkpt>
      <trkpt lat="39.8596890" lon="3.1568190">
        <ele>92.6</ele>
        <time>2022-09-22T16:07:36Z</time>
      </trkpt>
      <trkpt lat="39.8597030" lon="3.1568060">
        <ele>92.8</ele>
        <time>2022-09-22T16:07:37Z</time>
      </trkpt>
      <trkpt lat="39.8597770" lon="3.1567500">
        <ele>93.6</ele>
        <time>2022-09-22T16:07:42Z</time>
      </trkpt>
      <trkpt lat="39.8598260" lon="3.1567290">
        <ele>94.8</ele>
        <time>2022-09-22T16:07:45Z</time>
      </trkpt>
      <trkpt lat="39.8598950" lon="3.1567020">
        <ele>96.2</ele>
        <time>2022-09-22T16:07:49Z</time>
      </trkpt>
      <trkpt lat="39.8599800" lon="3.1566770">
        <ele>97.4</ele>
        <time>2022-09-22T16:07:54Z</time>
      </trkpt>
      <trkpt lat="39.8600650" lon="3.1566600">
        <ele>98.4</ele>
        <time>2022-09-22T16:07:59Z</time>
      </trkpt>
      <trkpt lat="39.8601200" lon="3.1566560">
        <ele>99.2</ele>
        <time>2022-09-22T16:08:02Z</time>
      </trkpt>
      <trkpt lat="39.8601560" lon="3.1566590">
        <ele>99.6</ele>
        <time>2022-09-22T16:08:04Z</time>
      </trkpt>
      <trkpt lat="39.8602450" lon="3.1566340">
        <ele>100.8</ele>
        <time>2022-09-22T16:08:08Z</time>
      </trkpt>
      <trkpt lat="39.8603740" lon="3.1566150">
        <ele>100.8</ele>
        <time>2022-09-22T16:08:12Z</time>
      </trkpt>
      <trkpt lat="39.8604610" lon="3.1566070">
        <ele>100.8</ele>
        <time>2022-09-22T16:08:15Z</time>
      </trkpt>
      <trkpt lat="39.8604880" lon="3.1566340">
        <ele>100.4</ele>
        <time>2022-09-22T16:08:16Z</time>
      </trkpt>
      <trkpt lat="39.8605290" lon="3.1567060">
        <ele>99.8</ele>
        <time>2022-09-22T16:08:18Z</time>
      </trkpt>
      <trkpt lat="39.8605490" lon="3.1567260">
        <ele>99.4</ele>
        <time>2022-09-22T16:08:19Z</time>
      </trkpt>
      <trkpt lat="39.8605700" lon="3.1567380">
        <ele>99.2</ele>
        <time>2022-09-22T16:08:20Z</time>
      </trkpt>
      <trkpt lat="39.8605940" lon="3.1567410">
        <ele>98.4</ele>
        <time>2022-09-22T16:08:21Z</time>
      </trkpt>
      <trkpt lat="39.8606220" lon="3.1567380">
        <ele>97.2</ele>
        <time>2022-09-22T16:08:22Z</time>
      </trkpt>
      <trkpt lat="39.8606880" lon="3.1567220">
        <ele>95.8</ele>
        <time>2022-09-22T16:08:24Z</time>
      </trkpt>
      <trkpt lat="39.8607270" lon="3.1567140">
        <ele>94.8</ele>
        <time>2022-09-22T16:08:25Z</time>
      </trkpt>
      <trkpt lat="39.8608160" lon="3.1566960">
        <ele>93.4</ele>
        <time>2022-09-22T16:08:27Z</time>
      </trkpt>
      <trkpt lat="39.8608640" lon="3.1566890">
        <ele>93.0</ele>
        <time>2022-09-22T16:08:28Z</time>
      </trkpt>
      <trkpt lat="39.8609220" lon="3.1566830">
        <ele>92.2</ele>
        <time>2022-09-22T16:08:29Z</time>
      </trkpt>
      <trkpt lat="39.8609790" lon="3.1566820">
        <ele>91.4</ele>
        <time>2022-09-22T16:08:30Z</time>
      </trkpt>
      <trkpt lat="39.8610310" lon="3.1566810">
        <ele>90.6</ele>
        <time>2022-09-22T16:08:31Z</time>
      </trkpt>
      <trkpt lat="39.8610840" lon="3.1566750">
        <ele>89.8</ele>
        <time>2022-09-22T16:08:32Z</time>
      </trkpt>
      <trkpt lat="39.8611370" lon="3.1566690">
        <ele>88.8</ele>
        <time>2022-09-22T16:08:33Z</time>
      </trkpt>
      <trkpt lat="39.8611870" lon="3.1566740">
        <ele>87.4</ele>
        <time>2022-09-22T16:08:34Z</time>
      </trkpt>
      <trkpt lat="39.8612320" lon="3.1566850">
        <ele>85.8</ele>
        <time>2022-09-22T16:08:35Z</time>
      </trkpt>
      <trkpt lat="39.8612730" lon="3.1566920">
        <ele>84.6</ele>
        <time>2022-09-22T16:08:36Z</time>
      </trkpt>
      <trkpt lat="39.8613080" lon="3.1566980">
        <ele>82.8</ele>
        <time>2022-09-22T16:08:37Z</time>
      </trkpt>
      <trkpt lat="39.8613310" lon="3.1567110">
        <ele>79.6</ele>
        <time>2022-09-22T16:08:38Z</time>
      </trkpt>
      <trkpt lat="39.8613530" lon="3.1567280">
        <ele>78.6</ele>
        <time>2022-09-22T16:08:39Z</time>
      </trkpt>
      <trkpt lat="39.8613760" lon="3.1567460">
        <ele>77.8</ele>
        <time>2022-09-22T16:08:40Z</time>
      </trkpt>
      <trkpt lat="39.8613970" lon="3.1567590">
        <ele>76.2</ele>
        <time>2022-09-22T16:08:41Z</time>
      </trkpt>
      <trkpt lat="39.8614150" lon="3.1567700">
        <ele>74.6</ele>
        <time>2022-09-22T16:08:42Z</time>
      </trkpt>
      <trkpt lat="39.8614290" lon="3.1567800">
        <ele>73.0</ele>
        <time>2022-09-22T16:08:43Z</time>
      </trkpt>
      <trkpt lat="39.8614390" lon="3.1567820">
        <ele>71.6</ele>
        <time>2022-09-22T16:08:44Z</time>
      </trkpt>
      <trkpt lat="39.8614750" lon="3.1567710">
        <ele>70.2</ele>
        <time>2022-09-22T16:08:46Z</time>
      </trkpt>
      <trkpt lat="39.8615360" lon="3.1567440">
        <ele>68.8</ele>
        <time>2022-09-22T16:08:48Z</time>
      </trkpt>
      <trkpt lat="39.8616220" lon="3.1567080">
        <ele>67.6</ele>
        <time>2022-09-22T16:08:50Z</time>
      </trkpt>
      <trkpt lat="39.8616670" lon="3.1566890">
        <ele>67.0</ele>
        <time>2022-09-22T16:08:51Z</time>
      </trkpt>
      <trkpt lat="39.8617120" lon="3.1566890">
        <ele>66.6</ele>
        <time>2022-09-22T16:08:52Z</time>
      </trkpt>
      <trkpt lat="39.8617550" lon="3.1567090">
        <ele>66.2</ele>
        <time>2022-09-22T16:08:53Z</time>
      </trkpt>
      <trkpt lat="39.8618490" lon="3.1567650">
        <ele>65.2</ele>
        <time>2022-09-22T16:08:55Z</time>
      </trkpt>
      <trkpt lat="39.8619300" lon="3.1568300">
        <ele>63.4</ele>
        <time>2022-09-22T16:08:57Z</time>
      </trkpt>
      <trkpt lat="39.8619610" lon="3.1568640">
        <ele>62.4</ele>
        <time>2022-09-22T16:08:58Z</time>
      </trkpt>
      <trkpt lat="39.8619830" lon="3.1569100">
        <ele>60.8</ele>
        <time>2022-09-22T16:09:00Z</time>
      </trkpt>
      <trkpt lat="39.8619780" lon="3.1569250">
        <ele>59.8</ele>
        <time>2022-09-22T16:09:01Z</time>
      </trkpt>
      <trkpt lat="39.8619780" lon="3.1569270">
        <ele>58.4</ele>
        <time>2022-09-22T16:09:02Z</time>
      </trkpt>
      <trkpt lat="39.8619770" lon="3.1569280">
        <ele>57.2</ele>
        <time>2022-09-22T16:09:03Z</time>
      </trkpt>
      <trkpt lat="39.8618990" lon="3.1569890">
        <ele>51.8</ele>
        <time>2022-09-22T16:09:20Z</time>
      </trkpt>
      <trkpt lat="39.8619040" lon="3.1570220">
        <ele>52.0</ele>
        <time>2022-09-22T16:09:21Z</time>
      </trkpt>
      <trkpt lat="39.8619170" lon="3.1571940">
        <ele>52.4</ele>
        <time>2022-09-22T16:09:25Z</time>
      </trkpt>
      <trkpt lat="39.8619170" lon="3.1572510">
        <ele>52.4</ele>
        <time>2022-09-22T16:09:26Z</time>
      </trkpt>
      <trkpt lat="39.8619180" lon="3.1573750">
        <ele>52.4</ele>
        <time>2022-09-22T16:09:28Z</time>
      </trkpt>
      <trkpt lat="39.8619330" lon="3.1575020">
        <ele>52.4</ele>
        <time>2022-09-22T16:09:30Z</time>
      </trkpt>
      <trkpt lat="39.8619420" lon="3.1575640">
        <ele>52.0</ele>
        <time>2022-09-22T16:09:31Z</time>
      </trkpt>
      <trkpt lat="39.8619410" lon="3.1576260">
        <ele>51.8</ele>
        <time>2022-09-22T16:09:32Z</time>
      </trkpt>
      <trkpt lat="39.8619130" lon="3.1577240">
        <ele>50.6</ele>
        <time>2022-09-22T16:09:34Z</time>
      </trkpt>
      <trkpt lat="39.8619000" lon="3.1577810">
        <ele>50.0</ele>
        <time>2022-09-22T16:09:36Z</time>
      </trkpt>
      <trkpt lat="39.8618970" lon="3.1578020">
        <ele>49.2</ele>
        <time>2022-09-22T16:09:37Z</time>
      </trkpt>
      <trkpt lat="39.8618900" lon="3.1578250">
        <ele>49.0</ele>
        <time>2022-09-22T16:09:38Z</time>
      </trkpt>
      <trkpt lat="39.8618710" lon="3.1578620">
        <ele>49.0</ele>
        <time>2022-09-22T16:09:40Z</time>
      </trkpt>
      <trkpt lat="39.8618620" lon="3.1578700">
        <ele>49.0</ele>
        <time>2022-09-22T16:09:41Z</time>
      </trkpt>
      <trkpt lat="39.8618500" lon="3.1578920">
        <ele>49.0</ele>
        <time>2022-09-22T16:09:43Z</time>
      </trkpt>
      <trkpt lat="39.8618300" lon="3.1579430">
        <ele>49.0</ele>
        <time>2022-09-22T16:09:45Z</time>
      </trkpt>
      <trkpt lat="39.8618130" lon="3.1580090">
        <ele>49.0</ele>
        <time>2022-09-22T16:09:47Z</time>
      </trkpt>
      <trkpt lat="39.8617990" lon="3.1580830">
        <ele>49.2</ele>
        <time>2022-09-22T16:09:49Z</time>
      </trkpt>
      <trkpt lat="39.8617580" lon="3.1582320">
        <ele>50.0</ele>
        <time>2022-09-22T16:09:53Z</time>
      </trkpt>
      <trkpt lat="39.8617120" lon="3.1584580">
        <ele>50.2</ele>
        <time>2022-09-22T16:09:59Z</time>
      </trkpt>
      <trkpt lat="39.8616760" lon="3.1585850">
        <ele>50.2</ele>
        <time>2022-09-22T16:10:02Z</time>
      </trkpt>
      <trkpt lat="39.8616660" lon="3.1586630">
        <ele>50.4</ele>
        <time>2022-09-22T16:10:04Z</time>
      </trkpt>
      <trkpt lat="39.8616250" lon="3.1589060">
        <ele>50.6</ele>
        <time>2022-09-22T16:10:10Z</time>
      </trkpt>
      <trkpt lat="39.8616270" lon="3.1590640">
        <ele>50.6</ele>
        <time>2022-09-22T16:10:13Z</time>
      </trkpt>
      <trkpt lat="39.8616250" lon="3.1591890">
        <ele>50.6</ele>
        <time>2022-09-22T16:10:15Z</time>
      </trkpt>
      <trkpt lat="39.8615810" lon="3.1594050">
        <ele>49.8</ele>
        <time>2022-09-22T16:10:19Z</time>
      </trkpt>
      <trkpt lat="39.8615700" lon="3.1594500">
        <ele>49.8</ele>
        <time>2022-09-22T16:10:20Z</time>
      </trkpt>
      <trkpt lat="39.8615490" lon="3.1595510">
        <ele>49.4</ele>
        <time>2022-09-22T16:10:22Z</time>
      </trkpt>
      <trkpt lat="39.8615190" lon="3.1596490">
        <ele>49.2</ele>
        <time>2022-09-22T16:10:24Z</time>
      </trkpt>
      <trkpt lat="39.8615110" lon="3.1596900">
        <ele>49.0</ele>
        <time>2022-09-22T16:10:25Z</time>
      </trkpt>
      <trkpt lat="39.8615210" lon="3.1597350">
        <ele>49.0</ele>
        <time>2022-09-22T16:10:27Z</time>
      </trkpt>
      <trkpt lat="39.8615340" lon="3.1597350">
        <ele>48.8</ele>
        <time>2022-09-22T16:10:28Z</time>
      </trkpt>
      <trkpt lat="39.8616010" lon="3.1596810">
        <ele>48.6</ele>
        <time>2022-09-22T16:10:31Z</time>
      </trkpt>
      <trkpt lat="39.8616360" lon="3.1596530">
        <ele>48.2</ele>
        <time>2022-09-22T16:10:32Z</time>
      </trkpt>
      <trkpt lat="39.8616750" lon="3.1596210">
        <ele>48.0</ele>
        <time>2022-09-22T16:10:33Z</time>
      </trkpt>
      <trkpt lat="39.8618350" lon="3.1594390">
        <ele>46.8</ele>
        <time>2022-09-22T16:10:37Z</time>
      </trkpt>
      <trkpt lat="39.8619300" lon="3.1593200">
        <ele>46.6</ele>
        <time>2022-09-22T16:10:39Z</time>
      </trkpt>
      <trkpt lat="39.8620140" lon="3.1591650">
        <ele>45.8</ele>
        <time>2022-09-22T16:10:41Z</time>
      </trkpt>
      <trkpt lat="39.8621330" lon="3.1589050">
        <ele>44.6</ele>
        <time>2022-09-22T16:10:44Z</time>
      </trkpt>
      <trkpt lat="39.8622360" lon="3.1586120">
        <ele>43.2</ele>
        <time>2022-09-22T16:10:47Z</time>
      </trkpt>
      <trkpt lat="39.8623060" lon="3.1584300">
        <ele>41.6</ele>
        <time>2022-09-22T16:10:49Z</time>
      </trkpt>
      <trkpt lat="39.8623440" lon="3.1583610">
        <ele>41.0</ele>
        <time>2022-09-22T16:10:50Z</time>
      </trkpt>
      <trkpt lat="39.8623880" lon="3.1583080">
        <ele>40.2</ele>
        <time>2022-09-22T16:10:51Z</time>
      </trkpt>
      <trkpt lat="39.8624910" lon="3.1582120">
        <ele>39.0</ele>
        <time>2022-09-22T16:10:53Z</time>
      </trkpt>
      <trkpt lat="39.8625510" lon="3.1581710">
        <ele>38.6</ele>
        <time>2022-09-22T16:10:54Z</time>
      </trkpt>
      <trkpt lat="39.8626140" lon="3.1581360">
        <ele>38.0</ele>
        <time>2022-09-22T16:10:55Z</time>
      </trkpt>
      <trkpt lat="39.8626790" lon="3.1581190">
        <ele>37.6</ele>
        <time>2022-09-22T16:10:56Z</time>
      </trkpt>
      <trkpt lat="39.8628410" lon="3.1580460">
        <ele>36.6</ele>
        <time>2022-09-22T16:10:59Z</time>
      </trkpt>
      <trkpt lat="39.8628670" lon="3.1579950">
        <ele>35.6</ele>
        <time>2022-09-22T16:11:00Z</time>
      </trkpt>
      <trkpt lat="39.8628910" lon="3.1579410">
        <ele>34.8</ele>
        <time>2022-09-22T16:11:01Z</time>
      </trkpt>
      <trkpt lat="39.8629210" lon="3.1578990">
        <ele>33.4</ele>
        <time>2022-09-22T16:11:02Z</time>
      </trkpt>
      <trkpt lat="39.8629960" lon="3.1578610">
        <ele>31.0</ele>
        <time>2022-09-22T16:11:04Z</time>
      </trkpt>
      <trkpt lat="39.8630320" lon="3.1578560">
        <ele>29.2</ele>
        <time>2022-09-22T16:11:05Z</time>
      </trkpt>
      <trkpt lat="39.8631020" lon="3.1578410">
        <ele>28.8</ele>
        <time>2022-09-22T16:11:07Z</time>
      </trkpt>
      <trkpt lat="39.8631390" lon="3.1578250">
        <ele>28.8</ele>
        <time>2022-09-22T16:11:08Z</time>
      </trkpt>
      <trkpt lat="39.8632150" lon="3.1577820">
        <ele>28.6</ele>
        <time>2022-09-22T16:11:10Z</time>
      </trkpt>
      <trkpt lat="39.8632850" lon="3.1577310">
        <ele>28.6</ele>
        <time>2022-09-22T16:11:12Z</time>
      </trkpt>
      <trkpt lat="39.8633460" lon="3.1576940">
        <ele>29.0</ele>
        <time>2022-09-22T16:11:14Z</time>
      </trkpt>
      <trkpt lat="39.8633990" lon="3.1576800">
        <ele>29.4</ele>
        <time>2022-09-22T16:11:16Z</time>
      </trkpt>
      <trkpt lat="39.8634700" lon="3.1576520">
        <ele>29.8</ele>
        <time>2022-09-22T16:11:19Z</time>
      </trkpt>
      <trkpt lat="39.8635260" lon="3.1576430">
        <ele>30.4</ele>
        <time>2022-09-22T16:11:21Z</time>
      </trkpt>
      <trkpt lat="39.8635530" lon="3.1576390">
        <ele>31.2</ele>
        <time>2022-09-22T16:11:22Z</time>
      </trkpt>
      <trkpt lat="39.8635780" lon="3.1576380">
        <ele>31.6</ele>
        <time>2022-09-22T16:11:23Z</time>
      </trkpt>
      <trkpt lat="39.8636530" lon="3.1576270">
        <ele>32.8</ele>
        <time>2022-09-22T16:11:26Z</time>
      </trkpt>
      <trkpt lat="39.8636980" lon="3.1576170">
        <ele>33.0</ele>
        <time>2022-09-22T16:11:28Z</time>
      </trkpt>
      <trkpt lat="39.8637190" lon="3.1576100">
        <ele>33.4</ele>
        <time>2022-09-22T16:11:29Z</time>
      </trkpt>
      <trkpt lat="39.8637440" lon="3.1576040">
        <ele>34.0</ele>
        <time>2022-09-22T16:11:30Z</time>
      </trkpt>
      <trkpt lat="39.8638430" lon="3.1575550">
        <ele>35.0</ele>
        <time>2022-09-22T16:11:34Z</time>
      </trkpt>
      <trkpt lat="39.8639230" lon="3.1575360">
        <ele>36.2</ele>
        <time>2022-09-22T16:11:37Z</time>
      </trkpt>
      <trkpt lat="39.8640230" lon="3.1575140">
        <ele>37.4</ele>
        <time>2022-09-22T16:11:41Z</time>
      </trkpt>
      <trkpt lat="39.8640640" lon="3.1575060">
        <ele>38.0</ele>
        <time>2022-09-22T16:11:45Z</time>
      </trkpt>
      <trkpt lat="39.8640600" lon="3.1575140">
        <ele>57.4</ele>
        <time>2022-09-22T16:14:11Z</time>
      </trkpt>
      <trkpt lat="39.8640590" lon="3.1575140">
        <ele>57.2</ele>
        <time>2022-09-22T16:14:12Z</time>
      </trkpt>
      <trkpt lat="39.8640860" lon="3.1575240">
        <ele>57.2</ele>
        <time>2022-09-22T16:14:17Z</time>
      </trkpt>
      <trkpt lat="39.8641400" lon="3.1575090">
        <ele>57.2</ele>
        <time>2022-09-22T16:14:19Z</time>
      </trkpt>
      <trkpt lat="39.8642540" lon="3.1574950">
        <ele>57.2</ele>
        <time>2022-09-22T16:14:22Z</time>
      </trkpt>
      <trkpt lat="39.8642960" lon="3.1575000">
        <ele>57.2</ele>
        <time>2022-09-22T16:14:23Z</time>
      </trkpt>
      <trkpt lat="39.8643390" lon="3.1575070">
        <ele>57.2</ele>
        <time>2022-09-22T16:14:24Z</time>
      </trkpt>
      <trkpt lat="39.8644240" lon="3.1575240">
        <ele>57.2</ele>
        <time>2022-09-22T16:14:26Z</time>
      </trkpt>
      <trkpt lat="39.8645150" lon="3.1575330">
        <ele>57.2</ele>
        <time>2022-09-22T16:14:28Z</time>
      </trkpt>
      <trkpt lat="39.8646190" lon="3.1575360">
        <ele>57.2</ele>
        <time>2022-09-22T16:14:30Z</time>
      </trkpt>
      <trkpt lat="39.8647360" lon="3.1575310">
        <ele>57.0</ele>
        <time>2022-09-22T16:14:32Z</time>
      </trkpt>
      <trkpt lat="39.8648680" lon="3.1575350">
        <ele>57.0</ele>
        <time>2022-09-22T16:14:34Z</time>
      </trkpt>
      <trkpt lat="39.8649390" lon="3.1575400">
        <ele>57.0</ele>
        <time>2022-09-22T16:14:35Z</time>
      </trkpt>
      <trkpt lat="39.8650900" lon="3.1575650">
        <ele>56.8</ele>
        <time>2022-09-22T16:14:37Z</time>
      </trkpt>
      <trkpt lat="39.8652390" lon="3.1576280">
        <ele>56.6</ele>
        <time>2022-09-22T16:14:39Z</time>
      </trkpt>
      <trkpt lat="39.8654670" lon="3.1577440">
        <ele>56.0</ele>
        <time>2022-09-22T16:14:42Z</time>
      </trkpt>
      <trkpt lat="39.8656060" lon="3.1578580">
        <ele>54.2</ele>
        <time>2022-09-22T16:14:44Z</time>
      </trkpt>
      <trkpt lat="39.8657380" lon="3.1579690">
        <ele>53.2</ele>
        <time>2022-09-22T16:14:46Z</time>
      </trkpt>
      <trkpt lat="39.8660030" lon="3.1581840">
        <ele>52.2</ele>
        <time>2022-09-22T16:14:50Z</time>
      </trkpt>
      <trkpt lat="39.8660640" lon="3.1582440">
        <ele>52.0</ele>
        <time>2022-09-22T16:14:51Z</time>
      </trkpt>
      <trkpt lat="39.8661890" lon="3.1583560">
        <ele>51.6</ele>
        <time>2022-09-22T16:14:53Z</time>
      </trkpt>
      <trkpt lat="39.8663910" lon="3.1584680">
        <ele>51.4</ele>
        <time>2022-09-22T16:14:56Z</time>
      </trkpt>
      <trkpt lat="39.8666740" lon="3.1586280">
        <ele>50.8</ele>
        <time>2022-09-22T16:15:00Z</time>
      </trkpt>
      <trkpt lat="39.8667410" lon="3.1586760">
        <ele>50.6</ele>
        <time>2022-09-22T16:15:01Z</time>
      </trkpt>
      <trkpt lat="39.8668060" lon="3.1587300">
        <ele>50.4</ele>
        <time>2022-09-22T16:15:02Z</time>
      </trkpt>
      <trkpt lat="39.8668720" lon="3.1587760">
        <ele>50.4</ele>
        <time>2022-09-22T16:15:03Z</time>
      </trkpt>
      <trkpt lat="39.8670220" lon="3.1588230">
        <ele>50.0</ele>
        <time>2022-09-22T16:15:05Z</time>
      </trkpt>
      <trkpt lat="39.8671030" lon="3.1588310">
        <ele>49.6</ele>
        <time>2022-09-22T16:15:06Z</time>
      </trkpt>
      <trkpt lat="39.8673450" lon="3.1588580">
        <ele>48.6</ele>
        <time>2022-09-22T16:15:09Z</time>
      </trkpt>
      <trkpt lat="39.8674250" lon="3.1588780">
        <ele>48.4</ele>
        <time>2022-09-22T16:15:10Z</time>
      </trkpt>
      <trkpt lat="39.8675060" lon="3.1589080">
        <ele>48.2</ele>
        <time>2022-09-22T16:15:11Z</time>
      </trkpt>
      <trkpt lat="39.8677180" lon="3.1590080">
        <ele>47.4</ele>
        <time>2022-09-22T16:15:14Z</time>
      </trkpt>
      <trkpt lat="39.8677820" lon="3.1590310">
        <ele>47.2</ele>
        <time>2022-09-22T16:15:15Z</time>
      </trkpt>
      <trkpt lat="39.8680320" lon="3.1590810">
        <ele>47.0</ele>
        <time>2022-09-22T16:15:19Z</time>
      </trkpt>
      <trkpt lat="39.8681590" lon="3.1590760">
        <ele>46.8</ele>
        <time>2022-09-22T16:15:21Z</time>
      </trkpt>
      <trkpt lat="39.8682170" lon="3.1590800">
        <ele>46.8</ele>
        <time>2022-09-22T16:15:22Z</time>
      </trkpt>
      <trkpt lat="39.8682800" lon="3.1591260">
        <ele>46.6</ele>
        <time>2022-09-22T16:15:24Z</time>
      </trkpt>
      <trkpt lat="39.8682350" lon="3.1592830">
        <ele>46.6</ele>
        <time>2022-09-22T16:15:28Z</time>
      </trkpt>
      <trkpt lat="39.8681480" lon="3.1594650">
        <ele>46.8</ele>
        <time>2022-09-22T16:15:32Z</time>
      </trkpt>
      <trkpt lat="39.8681100" lon="3.1595400">
        <ele>46.8</ele>
        <time>2022-09-22T16:15:34Z</time>
      </trkpt>
      <trkpt lat="39.8680760" lon="3.1596690">
        <ele>47.0</ele>
        <time>2022-09-22T16:15:37Z</time>
      </trkpt>
      <trkpt lat="39.8680750" lon="3.1597520">
        <ele>47.6</ele>
        <time>2022-09-22T16:15:39Z</time>
      </trkpt>
      <trkpt lat="39.8680810" lon="3.1597850">
        <ele>48.0</ele>
        <time>2022-09-22T16:15:40Z</time>
      </trkpt>
      <trkpt lat="39.8680940" lon="3.1598120">
        <ele>48.4</ele>
        <time>2022-09-22T16:15:41Z</time>
      </trkpt>
      <trkpt lat="39.8681690" lon="3.1598670">
        <ele>49.2</ele>
        <time>2022-09-22T16:15:44Z</time>
      </trkpt>
      <trkpt lat="39.8681970" lon="3.1598950">
        <ele>49.4</ele>
        <time>2022-09-22T16:15:45Z</time>
      </trkpt>
      <trkpt lat="39.8682640" lon="3.1600120">
        <ele>50.6</ele>
        <time>2022-09-22T16:15:48Z</time>
      </trkpt>
      <trkpt lat="39.8684260" lon="3.1602140">
        <ele>51.4</ele>
        <time>2022-09-22T16:15:54Z</time>
      </trkpt>
      <trkpt lat="39.8684980" lon="3.1602440">
        <ele>52.0</ele>
        <time>2022-09-22T16:15:56Z</time>
      </trkpt>
      <trkpt lat="39.8685370" lon="3.1602640">
        <ele>52.2</ele>
        <time>2022-09-22T16:15:57Z</time>
      </trkpt>
      <trkpt lat="39.8686060" lon="3.1603310">
        <ele>52.4</ele>
        <time>2022-09-22T16:15:59Z</time>
      </trkpt>
      <trkpt lat="39.8687880" lon="3.1606640">
        <ele>53.0</ele>
        <time>2022-09-22T16:16:07Z</time>
      </trkpt>
      <trkpt lat="39.8688970" lon="3.1608190">
        <ele>53.4</ele>
        <time>2022-09-22T16:16:11Z</time>
      </trkpt>
      <trkpt lat="39.8689290" lon="3.1608560">
        <ele>53.6</ele>
        <time>2022-09-22T16:16:12Z</time>
      </trkpt>
      <trkpt lat="39.8689840" lon="3.1610100">
        <ele>53.8</ele>
        <time>2022-09-22T16:16:15Z</time>
      </trkpt>
      <trkpt lat="39.8689850" lon="3.1610700">
        <ele>53.8</ele>
        <time>2022-09-22T16:16:16Z</time>
      </trkpt>
      <trkpt lat="39.8689300" lon="3.1612220">
        <ele>54.0</ele>
        <time>2022-09-22T16:16:19Z</time>
      </trkpt>
      <trkpt lat="39.8689050" lon="3.1612620">
        <ele>54.0</ele>
        <time>2022-09-22T16:16:20Z</time>
      </trkpt>
      <trkpt lat="39.8688350" lon="3.1614000">
        <ele>54.4</ele>
        <time>2022-09-22T16:16:24Z</time>
      </trkpt>
      <trkpt lat="39.8687750" lon="3.1616120">
        <ele>55.6</ele>
        <time>2022-09-22T16:16:29Z</time>
      </trkpt>
      <trkpt lat="39.8687600" lon="3.1616530">
        <ele>56.0</ele>
        <time>2022-09-22T16:16:30Z</time>
      </trkpt>
      <trkpt lat="39.8687010" lon="3.1618380">
        <ele>56.6</ele>
        <time>2022-09-22T16:16:34Z</time>
      </trkpt>
      <trkpt lat="39.8686820" lon="3.1618900">
        <ele>56.8</ele>
        <time>2022-09-22T16:16:35Z</time>
      </trkpt>
      <trkpt lat="39.8686560" lon="3.1619320">
        <ele>56.8</ele>
        <time>2022-09-22T16:16:36Z</time>
      </trkpt>
      <trkpt lat="39.8685920" lon="3.1620820">
        <ele>56.8</ele>
        <time>2022-09-22T16:16:40Z</time>
      </trkpt>
      <trkpt lat="39.8686480" lon="3.1621780">
        <ele>57.4</ele>
        <time>2022-09-22T16:16:44Z</time>
      </trkpt>
      <trkpt lat="39.8687190" lon="3.1622070">
        <ele>57.8</ele>
        <time>2022-09-22T16:16:47Z</time>
      </trkpt>
      <trkpt lat="39.8688070" lon="3.1622340">
        <ele>58.6</ele>
        <time>2022-09-22T16:16:50Z</time>
      </trkpt>
      <trkpt lat="39.8688340" lon="3.1622530">
        <ele>59.2</ele>
        <time>2022-09-22T16:16:51Z</time>
      </trkpt>
      <trkpt lat="39.8689100" lon="3.1623450">
        <ele>60.2</ele>
        <time>2022-09-22T16:16:54Z</time>
      </trkpt>
      <trkpt lat="39.8689320" lon="3.1623850">
        <ele>60.4</ele>
        <time>2022-09-22T16:16:55Z</time>
      </trkpt>
      <trkpt lat="39.8690350" lon="3.1626470">
        <ele>60.8</ele>
        <time>2022-09-22T16:17:00Z</time>
      </trkpt>
      <trkpt lat="39.8691710" lon="3.1628140">
        <ele>60.8</ele>
        <time>2022-09-22T16:17:04Z</time>
      </trkpt>
      <trkpt lat="39.8692840" lon="3.1628520">
        <ele>60.8</ele>
        <time>2022-09-22T16:17:06Z</time>
      </trkpt>
      <trkpt lat="39.8693440" lon="3.1628730">
        <ele>60.6</ele>
        <time>2022-09-22T16:17:07Z</time>
      </trkpt>
      <trkpt lat="39.8695150" lon="3.1629830">
        <ele>60.4</ele>
        <time>2022-09-22T16:17:10Z</time>
      </trkpt>
      <trkpt lat="39.8696110" lon="3.1630920">
        <ele>60.2</ele>
        <time>2022-09-22T16:17:12Z</time>
      </trkpt>
      <trkpt lat="39.8697500" lon="3.1632380">
        <ele>59.4</ele>
        <time>2022-09-22T16:17:15Z</time>
      </trkpt>
      <trkpt lat="39.8697980" lon="3.1632790">
        <ele>59.2</ele>
        <time>2022-09-22T16:17:16Z</time>
      </trkpt>
      <trkpt lat="39.8700620" lon="3.1635370">
        <ele>58.4</ele>
        <time>2022-09-22T16:17:21Z</time>
      </trkpt>
      <trkpt lat="39.8701100" lon="3.1635950">
        <ele>58.2</ele>
        <time>2022-09-22T16:17:22Z</time>
      </trkpt>
      <trkpt lat="39.8701540" lon="3.1636570">
        <ele>58.0</ele>
        <time>2022-09-22T16:17:23Z</time>
      </trkpt>
      <trkpt lat="39.8702240" lon="3.1637880">
        <ele>57.6</ele>
        <time>2022-09-22T16:17:25Z</time>
      </trkpt>
      <trkpt lat="39.8702730" lon="3.1639180">
        <ele>56.6</ele>
        <time>2022-09-22T16:17:27Z</time>
      </trkpt>
      <trkpt lat="39.8702990" lon="3.1639740">
        <ele>56.2</ele>
        <time>2022-09-22T16:17:28Z</time>
      </trkpt>
      <trkpt lat="39.8703700" lon="3.1640700">
        <ele>55.6</ele>
        <time>2022-09-22T16:17:30Z</time>
      </trkpt>
      <trkpt lat="39.8704050" lon="3.1641170">
        <ele>55.6</ele>
        <time>2022-09-22T16:17:31Z</time>
      </trkpt>
      <trkpt lat="39.8704920" lon="3.1641980">
        <ele>55.0</ele>
        <time>2022-09-22T16:17:34Z</time>
      </trkpt>
      <trkpt lat="39.8705950" lon="3.1641820">
        <ele>54.6</ele>
        <time>2022-09-22T16:17:37Z</time>
      </trkpt>
      <trkpt lat="39.8707030" lon="3.1641460">
        <ele>54.2</ele>
        <time>2022-09-22T16:17:39Z</time>
      </trkpt>
      <trkpt lat="39.8708290" lon="3.1641080">
        <ele>54.0</ele>
        <time>2022-09-22T16:17:41Z</time>
      </trkpt>
      <trkpt lat="39.8710110" lon="3.1640760">
        <ele>52.8</ele>
        <time>2022-09-22T16:17:44Z</time>
      </trkpt>
      <trkpt lat="39.8710610" lon="3.1640630">
        <ele>51.8</ele>
        <time>2022-09-22T16:17:45Z</time>
      </trkpt>
      <trkpt lat="39.8711040" lon="3.1640470">
        <ele>50.8</ele>
        <time>2022-09-22T16:17:46Z</time>
      </trkpt>
      <trkpt lat="39.8711640" lon="3.1639810">
        <ele>49.6</ele>
        <time>2022-09-22T16:17:48Z</time>
      </trkpt>
      <trkpt lat="39.8712130" lon="3.1638940">
        <ele>48.2</ele>
        <time>2022-09-22T16:17:50Z</time>
      </trkpt>
      <trkpt lat="39.8712390" lon="3.1638560">
        <ele>47.2</ele>
        <time>2022-09-22T16:17:51Z</time>
      </trkpt>
      <trkpt lat="39.8712930" lon="3.1637860">
        <ele>45.8</ele>
        <time>2022-09-22T16:17:53Z</time>
      </trkpt>
      <trkpt lat="39.8713190" lon="3.1637540">
        <ele>45.0</ele>
        <time>2022-09-22T16:17:54Z</time>
      </trkpt>
      <trkpt lat="39.8713450" lon="3.1637310">
        <ele>44.6</ele>
        <time>2022-09-22T16:17:55Z</time>
      </trkpt>
      <trkpt lat="39.8713960" lon="3.1636810">
        <ele>43.0</ele>
        <time>2022-09-22T16:17:57Z</time>
      </trkpt>
      <trkpt lat="39.8714240" lon="3.1636580">
        <ele>42.2</ele>
        <time>2022-09-22T16:17:58Z</time>
      </trkpt>
      <trkpt lat="39.8714560" lon="3.1636330">
        <ele>41.2</ele>
        <time>2022-09-22T16:17:59Z</time>
      </trkpt>
      <trkpt lat="39.8714900" lon="3.1636030">
        <ele>40.0</ele>
        <time>2022-09-22T16:18:00Z</time>
      </trkpt>
      <trkpt lat="39.8715230" lon="3.1635630">
        <ele>39.0</ele>
        <time>2022-09-22T16:18:01Z</time>
      </trkpt>
      <trkpt lat="39.8715610" lon="3.1635190">
        <ele>38.0</ele>
        <time>2022-09-22T16:18:02Z</time>
      </trkpt>
      <trkpt lat="39.8716040" lon="3.1634730">
        <ele>37.2</ele>
        <time>2022-09-22T16:18:03Z</time>
      </trkpt>
      <trkpt lat="39.8716550" lon="3.1634310">
        <ele>36.8</ele>
        <time>2022-09-22T16:18:04Z</time>
      </trkpt>
      <trkpt lat="39.8717490" lon="3.1633420">
        <ele>35.0</ele>
        <time>2022-09-22T16:18:06Z</time>
      </trkpt>
      <trkpt lat="39.8717940" lon="3.1633010">
        <ele>34.2</ele>
        <time>2022-09-22T16:18:07Z</time>
      </trkpt>
      <trkpt lat="39.8718380" lon="3.1632680">
        <ele>33.4</ele>
        <time>2022-09-22T16:18:08Z</time>
      </trkpt>
      <trkpt lat="39.8718810" lon="3.1632280">
        <ele>30.2</ele>
        <time>2022-09-22T16:18:09Z</time>
      </trkpt>
      <trkpt lat="39.8719640" lon="3.1631620">
        <ele>28.8</ele>
        <time>2022-09-22T16:18:11Z</time>
      </trkpt>
      <trkpt lat="39.8719950" lon="3.1631240">
        <ele>26.6</ele>
        <time>2022-09-22T16:18:12Z</time>
      </trkpt>
      <trkpt lat="39.8720190" lon="3.1630780">
        <ele>25.2</ele>
        <time>2022-09-22T16:18:13Z</time>
      </trkpt>
      <trkpt lat="39.8720780" lon="3.1629790">
        <ele>23.8</ele>
        <time>2022-09-22T16:18:15Z</time>
      </trkpt>
      <trkpt lat="39.8721110" lon="3.1629250">
        <ele>23.4</ele>
        <time>2022-09-22T16:18:16Z</time>
      </trkpt>
      <trkpt lat="39.8721390" lon="3.1628770">
        <ele>22.8</ele>
        <time>2022-09-22T16:18:17Z</time>
      </trkpt>
      <trkpt lat="39.8721700" lon="3.1628380">
        <ele>21.8</ele>
        <time>2022-09-22T16:18:18Z</time>
      </trkpt>
      <trkpt lat="39.8722090" lon="3.1627970">
        <ele>21.0</ele>
        <time>2022-09-22T16:18:19Z</time>
      </trkpt>
      <trkpt lat="39.8722560" lon="3.1627430">
        <ele>20.2</ele>
        <time>2022-09-22T16:18:20Z</time>
      </trkpt>
      <trkpt lat="39.8723120" lon="3.1626790">
        <ele>19.6</ele>
        <time>2022-09-22T16:18:21Z</time>
      </trkpt>
      <trkpt lat="39.8723640" lon="3.1626200">
        <ele>18.6</ele>
        <time>2022-09-22T16:18:22Z</time>
      </trkpt>
      <trkpt lat="39.8724040" lon="3.1625730">
        <ele>17.8</ele>
        <time>2022-09-22T16:18:23Z</time>
      </trkpt>
      <trkpt lat="39.8724290" lon="3.1625280">
        <ele>16.8</ele>
        <time>2022-09-22T16:18:24Z</time>
      </trkpt>
      <trkpt lat="39.8724490" lon="3.1624200">
        <ele>15.0</ele>
        <time>2022-09-22T16:18:26Z</time>
      </trkpt>
      <trkpt lat="39.8724440" lon="3.1623570">
        <ele>14.2</ele>
        <time>2022-09-22T16:18:27Z</time>
      </trkpt>
      <trkpt lat="39.8724460" lon="3.1623000">
        <ele>13.4</ele>
        <time>2022-09-22T16:18:28Z</time>
      </trkpt>
      <trkpt lat="39.8724570" lon="3.1622430">
        <ele>11.8</ele>
        <time>2022-09-22T16:18:29Z</time>
      </trkpt>
      <trkpt lat="39.8724650" lon="3.1621820">
        <ele>10.6</ele>
        <time>2022-09-22T16:18:30Z</time>
      </trkpt>
      <trkpt lat="39.8724880" lon="3.1620870">
        <ele>9.2</ele>
        <time>2022-09-22T16:18:32Z</time>
      </trkpt>
      <trkpt lat="39.8725030" lon="3.1620550">
        <ele>8.8</ele>
        <time>2022-09-22T16:18:33Z</time>
      </trkpt>
      <trkpt lat="39.8725300" lon="3.1619880">
        <ele>8.0</ele>
        <time>2022-09-22T16:18:35Z</time>
      </trkpt>
      <trkpt lat="39.8725570" lon="3.1619000">
        <ele>5.6</ele>
        <time>2022-09-22T16:18:38Z</time>
      </trkpt>
      <trkpt lat="39.8725950" lon="3.1617990">
        <ele>4.6</ele>
        <time>2022-09-22T16:18:41Z</time>
      </trkpt>
      <trkpt lat="39.8726200" lon="3.1617600">
        <ele>4.4</ele>
        <time>2022-09-22T16:18:43Z</time>
      </trkpt>
      <trkpt lat="39.8726340" lon="3.1617500">
        <ele>4.2</ele>
        <time>2022-09-22T16:18:46Z</time>
      </trkpt>
      <trkpt lat="39.8726430" lon="3.1617450">
        <ele>4.2</ele>
        <time>2022-09-22T16:18:48Z</time>
      </trkpt>
      <trkpt lat="39.8726710" lon="3.1617260">
        <ele>4.2</ele>
        <time>2022-09-22T16:18:52Z</time>
      </trkpt>
      <trkpt lat="39.8726760" lon="3.1617160">
        <ele>4.2</ele>
        <time>2022-09-22T16:18:53Z</time>
      </trkpt>
      <trkpt lat="39.8726910" lon="3.1616710">
        <ele>4.2</ele>
        <time>2022-09-22T16:18:56Z</time>
      </trkpt>
      <trkpt lat="39.8726990" lon="3.1616290">
        <ele>4.2</ele>
        <time>2022-09-22T16:18:58Z</time>
      </trkpt>
      <trkpt lat="39.8727050" lon="3.1615820">
        <ele>4.2</ele>
        <time>2022-09-22T16:19:00Z</time>
      </trkpt>
      <trkpt lat="39.8726980" lon="3.1615550">
        <ele>4.4</ele>
        <time>2022-09-22T16:19:01Z</time>
      </trkpt>
      <trkpt lat="39.8726760" lon="3.1615010">
        <ele>4.4</ele>
        <time>2022-09-22T16:19:03Z</time>
      </trkpt>
      <trkpt lat="39.8726600" lon="3.1614420">
        <ele>4.6</ele>
        <time>2022-09-22T16:19:05Z</time>
      </trkpt>
      <trkpt lat="39.8726510" lon="3.1613890">
        <ele>5.0</ele>
        <time>2022-09-22T16:19:07Z</time>
      </trkpt>
      <trkpt lat="39.8726610" lon="3.1613270">
        <ele>5.6</ele>
        <time>2022-09-22T16:19:09Z</time>
      </trkpt>
      <trkpt lat="39.8726510" lon="3.1611320">
        <ele>6.2</ele>
        <time>2022-09-22T16:19:13Z</time>
      </trkpt>
      <trkpt lat="39.8726020" lon="3.1610500">
        <ele>6.6</ele>
        <time>2022-09-22T16:19:16Z</time>
      </trkpt>
      <trkpt lat="39.8724970" lon="3.1610110">
        <ele>7.2</ele>
        <time>2022-09-22T16:19:20Z</time>
      </trkpt>
      <trkpt lat="39.8724700" lon="3.1610000">
        <ele>7.2</ele>
        <time>2022-09-22T16:19:21Z</time>
      </trkpt>
      <trkpt lat="39.8724010" lon="3.1609490">
        <ele>7.6</ele>
        <time>2022-09-22T16:19:24Z</time>
      </trkpt>
      <trkpt lat="39.8723790" lon="3.1609270">
        <ele>7.8</ele>
        <time>2022-09-22T16:19:25Z</time>
      </trkpt>
      <trkpt lat="39.8723360" lon="3.1608790">
        <ele>8.2</ele>
        <time>2022-09-22T16:19:27Z</time>
      </trkpt>
      <trkpt lat="39.8722380" lon="3.1608040">
        <ele>9.0</ele>
        <time>2022-09-22T16:19:31Z</time>
      </trkpt>
      <trkpt lat="39.8721840" lon="3.1607940">
        <ele>9.6</ele>
        <time>2022-09-22T16:19:33Z</time>
      </trkpt>
      <trkpt lat="39.8721240" lon="3.1607480">
        <ele>10.0</ele>
        <time>2022-09-22T16:19:36Z</time>
      </trkpt>
      <trkpt lat="39.8721100" lon="3.1607160">
        <ele>10.2</ele>
        <time>2022-09-22T16:19:37Z</time>
      </trkpt>
      <trkpt lat="39.8720950" lon="3.1606790">
        <ele>10.2</ele>
        <time>2022-09-22T16:19:38Z</time>
      </trkpt>
      <trkpt lat="39.8719960" lon="3.1604810">
        <ele>11.2</ele>
        <time>2022-09-22T16:19:43Z</time>
      </trkpt>
      <trkpt lat="39.8719280" lon="3.1603590">
        <ele>11.4</ele>
        <time>2022-09-22T16:19:46Z</time>
      </trkpt>
      <trkpt lat="39.8718150" lon="3.1601570">
        <ele>11.8</ele>
        <time>2022-09-22T16:19:52Z</time>
      </trkpt>
      <trkpt lat="39.8717370" lon="3.1600420">
        <ele>12.6</ele>
        <time>2022-09-22T16:19:56Z</time>
      </trkpt>
      <trkpt lat="39.8716950" lon="3.1599810">
        <ele>12.8</ele>
        <time>2022-09-22T16:19:58Z</time>
      </trkpt>
      <trkpt lat="39.8716490" lon="3.1599230">
        <ele>13.4</ele>
        <time>2022-09-22T16:20:00Z</time>
      </trkpt>
      <trkpt lat="39.8715140" lon="3.1597990">
        <ele>14.4</ele>
        <time>2022-09-22T16:20:05Z</time>
      </trkpt>
      <trkpt lat="39.8714860" lon="3.1597810">
        <ele>15.2</ele>
        <time>2022-09-22T16:20:06Z</time>
      </trkpt>
      <trkpt lat="39.8714310" lon="3.1597410">
        <ele>15.6</ele>
        <time>2022-09-22T16:20:08Z</time>
      </trkpt>
      <trkpt lat="39.8713030" lon="3.1596310">
        <ele>16.6</ele>
        <time>2022-09-22T16:20:13Z</time>
      </trkpt>
      <trkpt lat="39.8712840" lon="3.1596030">
        <ele>16.8</ele>
        <time>2022-09-22T16:20:14Z</time>
      </trkpt>
      <trkpt lat="39.8712570" lon="3.1594930">
        <ele>17.6</ele>
        <time>2022-09-22T16:20:17Z</time>
      </trkpt>
      <trkpt lat="39.8712500" lon="3.1594130">
        <ele>18.0</ele>
        <time>2022-09-22T16:20:19Z</time>
      </trkpt>
      <trkpt lat="39.8712380" lon="3.1592500">
        <ele>19.2</ele>
        <time>2022-09-22T16:20:23Z</time>
      </trkpt>
      <trkpt lat="39.8712360" lon="3.1591700">
        <ele>19.4</ele>
        <time>2022-09-22T16:20:25Z</time>
      </trkpt>
      <trkpt lat="39.8712550" lon="3.1589610">
        <ele>20.2</ele>
        <time>2022-09-22T16:20:30Z</time>
      </trkpt>
      <trkpt lat="39.8712800" lon="3.1588330">
        <ele>21.2</ele>
        <time>2022-09-22T16:20:33Z</time>
      </trkpt>
      <trkpt lat="39.8713210" lon="3.1586510">
        <ele>22.2</ele>
        <time>2022-09-22T16:20:37Z</time>
      </trkpt>
      <trkpt lat="39.8713180" lon="3.1584930">
        <ele>22.8</ele>
        <time>2022-09-22T16:20:40Z</time>
      </trkpt>
      <trkpt lat="39.8712800" lon="3.1583960">
        <ele>23.0</ele>
        <time>2022-09-22T16:20:42Z</time>
      </trkpt>
      <trkpt lat="39.8712190" lon="3.1583050">
        <ele>23.2</ele>
        <time>2022-09-22T16:20:44Z</time>
      </trkpt>
      <trkpt lat="39.8710260" lon="3.1580720">
        <ele>23.2</ele>
        <time>2022-09-22T16:20:49Z</time>
      </trkpt>
      <trkpt lat="39.8709780" lon="3.1580320">
        <ele>23.2</ele>
        <time>2022-09-22T16:20:50Z</time>
      </trkpt>
      <trkpt lat="39.8708340" lon="3.1579310">
        <ele>23.2</ele>
        <time>2022-09-22T16:20:54Z</time>
      </trkpt>
      <trkpt lat="39.8708240" lon="3.1579250">
        <ele>23.2</ele>
        <time>2022-09-22T16:20:56Z</time>
      </trkpt>
      <trkpt lat="39.8708600" lon="3.1579110">
        <ele>23.6</ele>
        <time>2022-09-22T16:21:11Z</time>
      </trkpt>
      <trkpt lat="39.8708740" lon="3.1579160">
        <ele>23.6</ele>
        <time>2022-09-22T16:21:12Z</time>
      </trkpt>
      <trkpt lat="39.8708620" lon="3.1579510">
        <ele>23.6</ele>
        <time>2022-09-22T16:21:15Z</time>
      </trkpt>
      <trkpt lat="39.8708290" lon="3.1579030">
        <ele>23.0</ele>
        <time>2022-09-22T16:21:18Z</time>
      </trkpt>
      <trkpt lat="39.8708200" lon="3.1578630">
        <ele>22.8</ele>
        <time>2022-09-22T16:21:19Z</time>
      </trkpt>
      <trkpt lat="39.8707900" lon="3.1577650">
        <ele>22.8</ele>
        <time>2022-09-22T16:21:21Z</time>
      </trkpt>
      <trkpt lat="39.8707250" lon="3.1575970">
        <ele>22.6</ele>
        <time>2022-09-22T16:21:24Z</time>
      </trkpt>
      <trkpt lat="39.8707010" lon="3.1575360">
        <ele>22.6</ele>
        <time>2022-09-22T16:21:25Z</time>
      </trkpt>
      <trkpt lat="39.8705910" lon="3.1572080">
        <ele>22.0</ele>
        <time>2022-09-22T16:21:30Z</time>
      </trkpt>
      <trkpt lat="39.8705780" lon="3.1571370">
        <ele>21.6</ele>
        <time>2022-09-22T16:21:31Z</time>
      </trkpt>
      <trkpt lat="39.8705720" lon="3.1570620">
        <ele>21.4</ele>
        <time>2022-09-22T16:21:32Z</time>
      </trkpt>
      <trkpt lat="39.8705840" lon="3.1569020">
        <ele>20.8</ele>
        <time>2022-09-22T16:21:34Z</time>
      </trkpt>
      <trkpt lat="39.8705980" lon="3.1568180">
        <ele>20.8</ele>
        <time>2022-09-22T16:21:35Z</time>
      </trkpt>
      <trkpt lat="39.8706170" lon="3.1565440">
        <ele>20.4</ele>
        <time>2022-09-22T16:21:38Z</time>
      </trkpt>
      <trkpt lat="39.8706110" lon="3.1564490">
        <ele>20.2</ele>
        <time>2022-09-22T16:21:39Z</time>
      </trkpt>
      <trkpt lat="39.8706020" lon="3.1563550">
        <ele>20.0</ele>
        <time>2022-09-22T16:21:40Z</time>
      </trkpt>
      <trkpt lat="39.8705820" lon="3.1561780">
        <ele>19.2</ele>
        <time>2022-09-22T16:21:42Z</time>
      </trkpt>
      <trkpt lat="39.8705520" lon="3.1560540">
        <ele>18.4</ele>
        <time>2022-09-22T16:21:44Z</time>
      </trkpt>
      <trkpt lat="39.8705360" lon="3.1560130">
        <ele>18.0</ele>
        <time>2022-09-22T16:21:45Z</time>
      </trkpt>
      <trkpt lat="39.8705030" lon="3.1559580">
        <ele>16.4</ele>
        <time>2022-09-22T16:21:47Z</time>
      </trkpt>
      <trkpt lat="39.8704880" lon="3.1559300">
        <ele>15.8</ele>
        <time>2022-09-22T16:21:48Z</time>
      </trkpt>
      <trkpt lat="39.8704780" lon="3.1559030">
        <ele>15.2</ele>
        <time>2022-09-22T16:21:49Z</time>
      </trkpt>
      <trkpt lat="39.8704490" lon="3.1558350">
        <ele>14.2</ele>
        <time>2022-09-22T16:21:52Z</time>
      </trkpt>
      <trkpt lat="39.8704440" lon="3.1558140">
        <ele>14.2</ele>
        <time>2022-09-22T16:21:53Z</time>
      </trkpt>
      <trkpt lat="39.8704400" lon="3.1557930">
        <ele>14.2</ele>
        <time>2022-09-22T16:21:54Z</time>
      </trkpt>
      <trkpt lat="39.8704240" lon="3.1557280">
        <ele>14.2</ele>
        <time>2022-09-22T16:21:57Z</time>
      </trkpt>
      <trkpt lat="39.8704310" lon="3.1556990">
        <ele>14.2</ele>
        <time>2022-09-22T16:21:58Z</time>
      </trkpt>
      <trkpt lat="39.8704490" lon="3.1556640">
        <ele>14.2</ele>
        <time>2022-09-22T16:21:59Z</time>
      </trkpt>
      <trkpt lat="39.8704930" lon="3.1554770">
        <ele>14.2</ele>
        <time>2022-09-22T16:22:03Z</time>
      </trkpt>
      <trkpt lat="39.8704940" lon="3.1553310">
        <ele>14.2</ele>
        <time>2022-09-22T16:22:07Z</time>
      </trkpt>
      <trkpt lat="39.8705130" lon="3.1552120">
        <ele>14.2</ele>
        <time>2022-09-22T16:22:10Z</time>
      </trkpt>
      <trkpt lat="39.8705490" lon="3.1551380">
        <ele>13.8</ele>
        <time>2022-09-22T16:22:12Z</time>
      </trkpt>
      <trkpt lat="39.8706020" lon="3.1550480">
        <ele>13.2</ele>
        <time>2022-09-22T16:22:15Z</time>
      </trkpt>
      <trkpt lat="39.8706200" lon="3.1550130">
        <ele>12.6</ele>
        <time>2022-09-22T16:22:16Z</time>
      </trkpt>
      <trkpt lat="39.8706690" lon="3.1549780">
        <ele>12.0</ele>
        <time>2022-09-22T16:22:18Z</time>
      </trkpt>
      <trkpt lat="39.8707060" lon="3.1549400">
        <ele>11.4</ele>
        <time>2022-09-22T16:22:20Z</time>
      </trkpt>
      <trkpt lat="39.8707200" lon="3.1549130">
        <ele>11.4</ele>
        <time>2022-09-22T16:22:21Z</time>
      </trkpt>
      <trkpt lat="39.8707580" lon="3.1548480">
        <ele>11.0</ele>
        <time>2022-09-22T16:22:23Z</time>
      </trkpt>
      <trkpt lat="39.8708150" lon="3.1547500">
        <ele>10.8</ele>
        <time>2022-09-22T16:22:25Z</time>
      </trkpt>
      <trkpt lat="39.8708460" lon="3.1546930">
        <ele>10.8</ele>
        <time>2022-09-22T16:22:26Z</time>
      </trkpt>
      <trkpt lat="39.8709390" lon="3.1544690">
        <ele>10.4</ele>
        <time>2022-09-22T16:22:29Z</time>
      </trkpt>
      <trkpt lat="39.8709820" lon="3.1543340">
        <ele>9.6</ele>
        <time>2022-09-22T16:22:31Z</time>
      </trkpt>
      <trkpt lat="39.8709900" lon="3.1542900">
        <ele>8.6</ele>
        <time>2022-09-22T16:22:32Z</time>
      </trkpt>
      <trkpt lat="39.8709810" lon="3.1542720">
        <ele>7.4</ele>
        <time>2022-09-22T16:22:33Z</time>
      </trkpt>
      <trkpt lat="39.8709640" lon="3.1542940">
        <ele>5.4</ele>
        <time>2022-09-22T16:22:35Z</time>
      </trkpt>
      <trkpt lat="39.8709620" lon="3.1543230">
        <ele>4.6</ele>
        <time>2022-09-22T16:22:36Z</time>
      </trkpt>
      <trkpt lat="39.8709600" lon="3.1543570">
        <ele>4.2</ele>
        <time>2022-09-22T16:22:37Z</time>
      </trkpt>
      <trkpt lat="39.8709560" lon="3.1543940">
        <ele>4.0</ele>
        <time>2022-09-22T16:22:38Z</time>
      </trkpt>
      <trkpt lat="39.8709440" lon="3.1544960">
        <ele>3.6</ele>
        <time>2022-09-22T16:22:41Z</time>
      </trkpt>
      <trkpt lat="39.8709500" lon="3.1545210">
        <ele>3.6</ele>
        <time>2022-09-22T16:22:42Z</time>
      </trkpt>
      <trkpt lat="39.8709580" lon="3.1545720">
        <ele>3.6</ele>
        <time>2022-09-22T16:22:45Z</time>
      </trkpt>
      <trkpt lat="39.8709430" lon="3.1545990">
        <ele>3.6</ele>
        <time>2022-09-22T16:22:47Z</time>
      </trkpt>
      <trkpt lat="39.8709440" lon="3.1545330">
        <ele>3.6</ele>
        <time>2022-09-22T16:22:50Z</time>
      </trkpt>
      <trkpt lat="39.8709780" lon="3.1543960">
        <ele>3.8</ele>
        <time>2022-09-22T16:22:53Z</time>
      </trkpt>
      <trkpt lat="39.8710090" lon="3.1542870">
        <ele>3.8</ele>
        <time>2022-09-22T16:22:55Z</time>
      </trkpt>
      <trkpt lat="39.8711220" lon="3.1538550">
        <ele>3.8</ele>
        <time>2022-09-22T16:23:03Z</time>
      </trkpt>
      <trkpt lat="39.8711740" lon="3.1536540">
        <ele>3.4</ele>
        <time>2022-09-22T16:23:09Z</time>
      </trkpt>
      <trkpt lat="39.8712080" lon="3.1535540">
        <ele>3.2</ele>
        <time>2022-09-22T16:23:13Z</time>
      </trkpt>
      <trkpt lat="39.8712540" lon="3.1534320">
        <ele>3.2</ele>
        <time>2022-09-22T16:23:16Z</time>
      </trkpt>
      <trkpt lat="39.8712900" lon="3.1533400">
        <ele>3.4</ele>
        <time>2022-09-22T16:23:18Z</time>
      </trkpt>
      <trkpt lat="39.8713070" lon="3.1532930">
        <ele>3.4</ele>
        <time>2022-09-22T16:23:19Z</time>
      </trkpt>
      <trkpt lat="39.8713420" lon="3.1531500">
        <ele>3.4</ele>
        <time>2022-09-22T16:23:22Z</time>
      </trkpt>
      <trkpt lat="39.8713320" lon="3.1530590">
        <ele>3.4</ele>
        <time>2022-09-22T16:23:24Z</time>
      </trkpt>
      <trkpt lat="39.8712720" lon="3.1529700">
        <ele>3.8</ele>
        <time>2022-09-22T16:23:27Z</time>
      </trkpt>
      <trkpt lat="39.8712450" lon="3.1529560">
        <ele>4.6</ele>
        <time>2022-09-22T16:23:28Z</time>
      </trkpt>
      <trkpt lat="39.8711560" lon="3.1529540">
        <ele>6.0</ele>
        <time>2022-09-22T16:23:31Z</time>
      </trkpt>
      <trkpt lat="39.8710970" lon="3.1529680">
        <ele>6.4</ele>
        <time>2022-09-22T16:23:33Z</time>
      </trkpt>
      <trkpt lat="39.8710420" lon="3.1529880">
        <ele>7.0</ele>
        <time>2022-09-22T16:23:35Z</time>
      </trkpt>
      <trkpt lat="39.8709630" lon="3.1530180">
        <ele>7.8</ele>
        <time>2022-09-22T16:23:38Z</time>
      </trkpt>
      <trkpt lat="39.8709370" lon="3.1530230">
        <ele>8.0</ele>
        <time>2022-09-22T16:23:39Z</time>
      </trkpt>
      <trkpt lat="39.8708850" lon="3.1530290">
        <ele>8.6</ele>
        <time>2022-09-22T16:23:41Z</time>
      </trkpt>
      <trkpt lat="39.8708130" lon="3.1530330">
        <ele>9.4</ele>
        <time>2022-09-22T16:23:44Z</time>
      </trkpt>
      <trkpt lat="39.8707450" lon="3.1530020">
        <ele>10.2</ele>
        <time>2022-09-22T16:23:47Z</time>
      </trkpt>
      <trkpt lat="39.8707230" lon="3.1529900">
        <ele>10.6</ele>
        <time>2022-09-22T16:23:48Z</time>
      </trkpt>
      <trkpt lat="39.8706310" lon="3.1529450">
        <ele>11.6</ele>
        <time>2022-09-22T16:23:52Z</time>
      </trkpt>
      <trkpt lat="39.8705630" lon="3.1529080">
        <ele>12.4</ele>
        <time>2022-09-22T16:23:55Z</time>
      </trkpt>
      <trkpt lat="39.8705420" lon="3.1528910">
        <ele>12.6</ele>
        <time>2022-09-22T16:23:56Z</time>
      </trkpt>
      <trkpt lat="39.8704830" lon="3.1528410">
        <ele>13.8</ele>
        <time>2022-09-22T16:23:59Z</time>
      </trkpt>
      <trkpt lat="39.8704260" lon="3.1527860">
        <ele>14.8</ele>
        <time>2022-09-22T16:24:02Z</time>
      </trkpt>
      <trkpt lat="39.8704080" lon="3.1527680">
        <ele>15.2</ele>
        <time>2022-09-22T16:24:03Z</time>
      </trkpt>
      <trkpt lat="39.8703390" lon="3.1526720">
        <ele>16.4</ele>
        <time>2022-09-22T16:24:07Z</time>
      </trkpt>
      <trkpt lat="39.8703260" lon="3.1526410">
        <ele>16.6</ele>
        <time>2022-09-22T16:24:08Z</time>
      </trkpt>
      <trkpt lat="39.8702810" lon="3.1525510">
        <ele>17.4</ele>
        <time>2022-09-22T16:24:11Z</time>
      </trkpt>
      <trkpt lat="39.8702130" lon="3.1524400">
        <ele>18.6</ele>
        <time>2022-09-22T16:24:15Z</time>
      </trkpt>
      <trkpt lat="39.8701210" lon="3.1523280">
        <ele>19.8</ele>
        <time>2022-09-22T16:24:20Z</time>
      </trkpt>
      <trkpt lat="39.8700750" lon="3.1522770">
        <ele>20.4</ele>
        <time>2022-09-22T16:24:22Z</time>
      </trkpt>
      <trkpt lat="39.8700220" lon="3.1522260">
        <ele>21.0</ele>
        <time>2022-09-22T16:24:24Z</time>
      </trkpt>
      <trkpt lat="39.8698950" lon="3.1521290">
        <ele>22.0</ele>
        <time>2022-09-22T16:24:28Z</time>
      </trkpt>
      <trkpt lat="39.8698630" lon="3.1521040">
        <ele>22.2</ele>
        <time>2022-09-22T16:24:29Z</time>
      </trkpt>
      <trkpt lat="39.8696680" lon="3.1519560">
        <ele>22.8</ele>
        <time>2022-09-22T16:24:35Z</time>
      </trkpt>
      <trkpt lat="39.8695680" lon="3.1518770">
        <ele>23.2</ele>
        <time>2022-09-22T16:24:38Z</time>
      </trkpt>
      <trkpt lat="39.8694460" lon="3.1517420">
        <ele>24.0</ele>
        <time>2022-09-22T16:24:42Z</time>
      </trkpt>
      <trkpt lat="39.8692930" lon="3.1515500">
        <ele>24.4</ele>
        <time>2022-09-22T16:24:47Z</time>
      </trkpt>
      <trkpt lat="39.8692300" lon="3.1514730">
        <ele>24.8</ele>
        <time>2022-09-22T16:24:49Z</time>
      </trkpt>
      <trkpt lat="39.8691270" lon="3.1513510">
        <ele>25.0</ele>
        <time>2022-09-22T16:24:52Z</time>
      </trkpt>
      <trkpt lat="39.8689950" lon="3.1511720">
        <ele>25.4</ele>
        <time>2022-09-22T16:24:56Z</time>
      </trkpt>
      <trkpt lat="39.8689620" lon="3.1511270">
        <ele>25.4</ele>
        <time>2022-09-22T16:24:57Z</time>
      </trkpt>
      <trkpt lat="39.8687620" lon="3.1508560">
        <ele>25.8</ele>
        <time>2022-09-22T16:25:03Z</time>
      </trkpt>
      <trkpt lat="39.8686320" lon="3.1506830">
        <ele>26.4</ele>
        <time>2022-09-22T16:25:07Z</time>
      </trkpt>
      <trkpt lat="39.8685680" lon="3.1505960">
        <ele>26.4</ele>
        <time>2022-09-22T16:25:09Z</time>
      </trkpt>
      <trkpt lat="39.8683450" lon="3.1503000">
        <ele>26.8</ele>
        <time>2022-09-22T16:25:16Z</time>
      </trkpt>
      <trkpt lat="39.8682790" lon="3.1502110">
        <ele>27.0</ele>
        <time>2022-09-22T16:25:18Z</time>
      </trkpt>
      <trkpt lat="39.8681150" lon="3.1499790">
        <ele>27.2</ele>
        <time>2022-09-22T16:25:23Z</time>
      </trkpt>
      <trkpt lat="39.8680510" lon="3.1498840">
        <ele>27.4</ele>
        <time>2022-09-22T16:25:25Z</time>
      </trkpt>
      <trkpt lat="39.8680180" lon="3.1498390">
        <ele>27.4</ele>
        <time>2022-09-22T16:25:26Z</time>
      </trkpt>
      <trkpt lat="39.8679800" lon="3.1497960">
        <ele>27.4</ele>
        <time>2022-09-22T16:25:27Z</time>
      </trkpt>
      <trkpt lat="39.8678240" lon="3.1496950">
        <ele>27.4</ele>
        <time>2022-09-22T16:25:30Z</time>
      </trkpt>
      <trkpt lat="39.8677560" lon="3.1496630">
        <ele>27.4</ele>
        <time>2022-09-22T16:25:31Z</time>
      </trkpt>
      <trkpt lat="39.8676040" lon="3.1495860">
        <ele>27.2</ele>
        <time>2022-09-22T16:25:33Z</time>
      </trkpt>
      <trkpt lat="39.8675240" lon="3.1495340">
        <ele>27.2</ele>
        <time>2022-09-22T16:25:34Z</time>
      </trkpt>
      <trkpt lat="39.8673030" lon="3.1492880">
        <ele>26.2</ele>
        <time>2022-09-22T16:25:37Z</time>
      </trkpt>
      <trkpt lat="39.8671520" lon="3.1490930">
        <ele>25.2</ele>
        <time>2022-09-22T16:25:39Z</time>
      </trkpt>
      <trkpt lat="39.8670840" lon="3.1489800">
        <ele>24.4</ele>
        <time>2022-09-22T16:25:40Z</time>
      </trkpt>
      <trkpt lat="39.8670190" lon="3.1488560">
        <ele>23.4</ele>
        <time>2022-09-22T16:25:41Z</time>
      </trkpt>
      <trkpt lat="39.8669530" lon="3.1487290">
        <ele>22.4</ele>
        <time>2022-09-22T16:25:42Z</time>
      </trkpt>
      <trkpt lat="39.8668830" lon="3.1486000">
        <ele>21.2</ele>
        <time>2022-09-22T16:25:43Z</time>
      </trkpt>
      <trkpt lat="39.8668150" lon="3.1484670">
        <ele>20.0</ele>
        <time>2022-09-22T16:25:44Z</time>
      </trkpt>
      <trkpt lat="39.8667500" lon="3.1483290">
        <ele>18.6</ele>
        <time>2022-09-22T16:25:45Z</time>
      </trkpt>
      <trkpt lat="39.8666890" lon="3.1481850">
        <ele>17.6</ele>
        <time>2022-09-22T16:25:46Z</time>
      </trkpt>
      <trkpt lat="39.8665810" lon="3.1478870">
        <ele>15.6</ele>
        <time>2022-09-22T16:25:48Z</time>
      </trkpt>
      <trkpt lat="39.8665310" lon="3.1477360">
        <ele>14.2</ele>
        <time>2022-09-22T16:25:49Z</time>
      </trkpt>
      <trkpt lat="39.8664830" lon="3.1475870">
        <ele>12.8</ele>
        <time>2022-09-22T16:25:50Z</time>
      </trkpt>
      <trkpt lat="39.8664370" lon="3.1474410">
        <ele>11.4</ele>
        <time>2022-09-22T16:25:51Z</time>
      </trkpt>
      <trkpt lat="39.8663900" lon="3.1472990">
        <ele>10.0</ele>
        <time>2022-09-22T16:25:52Z</time>
      </trkpt>
      <trkpt lat="39.8663440" lon="3.1471600">
        <ele>7.0</ele>
        <time>2022-09-22T16:25:53Z</time>
      </trkpt>
      <trkpt lat="39.8662990" lon="3.1470260">
        <ele>5.8</ele>
        <time>2022-09-22T16:25:54Z</time>
      </trkpt>
      <trkpt lat="39.8662550" lon="3.1468970">
        <ele>4.6</ele>
        <time>2022-09-22T16:25:55Z</time>
      </trkpt>
      <trkpt lat="39.8662130" lon="3.1467700">
        <ele>3.6</ele>
        <time>2022-09-22T16:25:56Z</time>
      </trkpt>
      <trkpt lat="39.8661310" lon="3.1465320">
        <ele>2.0</ele>
        <time>2022-09-22T16:25:58Z</time>
      </trkpt>
      <trkpt lat="39.8659990" lon="3.1460980">
        <ele>1.4</ele>
        <time>2022-09-22T16:26:02Z</time>
      </trkpt>
      <trkpt lat="39.8659710" lon="3.1459940">
        <ele>1.4</ele>
        <time>2022-09-22T16:26:03Z</time>
      </trkpt>
      <trkpt lat="39.8658960" lon="3.1458030">
        <ele>1.4</ele>
        <time>2022-09-22T16:26:05Z</time>
      </trkpt>
      <trkpt lat="39.8657920" lon="3.1456420">
        <ele>1.4</ele>
        <time>2022-09-22T16:26:07Z</time>
      </trkpt>
      <trkpt lat="39.8657330" lon="3.1455690">
        <ele>1.4</ele>
        <time>2022-09-22T16:26:08Z</time>
      </trkpt>
      <trkpt lat="39.8654980" lon="3.1452970">
        <ele>1.8</ele>
        <time>2022-09-22T16:26:12Z</time>
      </trkpt>
      <trkpt lat="39.8651560" lon="3.1448460">
        <ele>2.0</ele>
        <time>2022-09-22T16:26:19Z</time>
      </trkpt>
      <trkpt lat="39.8648620" lon="3.1444620">
        <ele>2.0</ele>
        <time>2022-09-22T16:26:25Z</time>
      </trkpt>
      <trkpt lat="39.8648190" lon="3.1443930">
        <ele>2.0</ele>
        <time>2022-09-22T16:26:26Z</time>
      </trkpt>
      <trkpt lat="39.8647850" lon="3.1443190">
        <ele>2.0</ele>
        <time>2022-09-22T16:26:27Z</time>
      </trkpt>
      <trkpt lat="39.8647440" lon="3.1440830">
        <ele>2.0</ele>
        <time>2022-09-22T16:26:30Z</time>
      </trkpt>
      <trkpt lat="39.8647310" lon="3.1440080">
        <ele>1.8</ele>
        <time>2022-09-22T16:26:31Z</time>
      </trkpt>
      <trkpt lat="39.8646690" lon="3.1438770">
        <ele>1.8</ele>
        <time>2022-09-22T16:26:33Z</time>
      </trkpt>
      <trkpt lat="39.8645090" lon="3.1437660">
        <ele>1.8</ele>
        <time>2022-09-22T16:26:36Z</time>
      </trkpt>
      <trkpt lat="39.8643400" lon="3.1436780">
        <ele>1.8</ele>
        <time>2022-09-22T16:26:39Z</time>
      </trkpt>
      <trkpt lat="39.8641740" lon="3.1435890">
        <ele>1.8</ele>
        <time>2022-09-22T16:26:42Z</time>
      </trkpt>
      <trkpt lat="39.8639590" lon="3.1434850">
        <ele>2.6</ele>
        <time>2022-09-22T16:26:46Z</time>
      </trkpt>
      <trkpt lat="39.8638560" lon="3.1434180">
        <ele>2.8</ele>
        <time>2022-09-22T16:26:48Z</time>
      </trkpt>
      <trkpt lat="39.8638040" lon="3.1433860">
        <ele>3.0</ele>
        <time>2022-09-22T16:26:49Z</time>
      </trkpt>
      <trkpt lat="39.8636920" lon="3.1433260">
        <ele>3.4</ele>
        <time>2022-09-22T16:26:51Z</time>
      </trkpt>
      <trkpt lat="39.8636360" lon="3.1432950">
        <ele>4.2</ele>
        <time>2022-09-22T16:26:52Z</time>
      </trkpt>
      <trkpt lat="39.8635240" lon="3.1432280">
        <ele>4.8</ele>
        <time>2022-09-22T16:26:54Z</time>
      </trkpt>
      <trkpt lat="39.8634680" lon="3.1431940">
        <ele>5.0</ele>
        <time>2022-09-22T16:26:55Z</time>
      </trkpt>
      <trkpt lat="39.8633620" lon="3.1431130">
        <ele>5.2</ele>
        <time>2022-09-22T16:26:57Z</time>
      </trkpt>
      <trkpt lat="39.8633100" lon="3.1430700">
        <ele>5.4</ele>
        <time>2022-09-22T16:26:58Z</time>
      </trkpt>
      <trkpt lat="39.8631620" lon="3.1429340">
        <ele>6.0</ele>
        <time>2022-09-22T16:27:01Z</time>
      </trkpt>
      <trkpt lat="39.8630300" lon="3.1428120">
        <ele>6.4</ele>
        <time>2022-09-22T16:27:04Z</time>
      </trkpt>
      <trkpt lat="39.8629510" lon="3.1427230">
        <ele>6.6</ele>
        <time>2022-09-22T16:27:06Z</time>
      </trkpt>
      <trkpt lat="39.8628770" lon="3.1426360">
        <ele>6.6</ele>
        <time>2022-09-22T16:27:08Z</time>
      </trkpt>
      <trkpt lat="39.8628110" lon="3.1425540">
        <ele>7.2</ele>
        <time>2022-09-22T16:27:10Z</time>
      </trkpt>
      <trkpt lat="39.8627850" lon="3.1424990">
        <ele>7.6</ele>
        <time>2022-09-22T16:27:11Z</time>
      </trkpt>
      <trkpt lat="39.8627310" lon="3.1423760">
        <ele>8.0</ele>
        <time>2022-09-22T16:27:13Z</time>
      </trkpt>
      <trkpt lat="39.8626480" lon="3.1421840">
        <ele>9.0</ele>
        <time>2022-09-22T16:27:16Z</time>
      </trkpt>
      <trkpt lat="39.8625620" lon="3.1419830">
        <ele>10.0</ele>
        <time>2022-09-22T16:27:19Z</time>
      </trkpt>
      <trkpt lat="39.8625050" lon="3.1418560">
        <ele>10.8</ele>
        <time>2022-09-22T16:27:21Z</time>
      </trkpt>
      <trkpt lat="39.8624780" lon="3.1417960">
        <ele>11.0</ele>
        <time>2022-09-22T16:27:22Z</time>
      </trkpt>
      <trkpt lat="39.8623810" lon="3.1415680">
        <ele>12.2</ele>
        <time>2022-09-22T16:27:26Z</time>
      </trkpt>
      <trkpt lat="39.8623300" lon="3.1414600">
        <ele>12.8</ele>
        <time>2022-09-22T16:27:28Z</time>
      </trkpt>
      <trkpt lat="39.8622820" lon="3.1413560">
        <ele>13.6</ele>
        <time>2022-09-22T16:27:30Z</time>
      </trkpt>
      <trkpt lat="39.8621900" lon="3.1411550">
        <ele>14.8</ele>
        <time>2022-09-22T16:27:34Z</time>
      </trkpt>
      <trkpt lat="39.8621050" lon="3.1409520">
        <ele>15.6</ele>
        <time>2022-09-22T16:27:38Z</time>
      </trkpt>
      <trkpt lat="39.8620820" lon="3.1409010">
        <ele>16.0</ele>
        <time>2022-09-22T16:27:39Z</time>
      </trkpt>
      <trkpt lat="39.8619560" lon="3.1405970">
        <ele>17.0</ele>
        <time>2022-09-22T16:27:45Z</time>
      </trkpt>
      <trkpt lat="39.8618760" lon="3.1403860">
        <ele>18.0</ele>
        <time>2022-09-22T16:27:49Z</time>
      </trkpt>
      <trkpt lat="39.8618550" lon="3.1403320">
        <ele>18.4</ele>
        <time>2022-09-22T16:27:50Z</time>
      </trkpt>
      <trkpt lat="39.8617420" lon="3.1400120">
        <ele>19.0</ele>
        <time>2022-09-22T16:27:56Z</time>
      </trkpt>
      <trkpt lat="39.8617460" lon="3.1399570">
        <ele>19.2</ele>
        <time>2022-09-22T16:27:57Z</time>
      </trkpt>
      <trkpt lat="39.8617940" lon="3.1398610">
        <ele>19.4</ele>
        <time>2022-09-22T16:27:59Z</time>
      </trkpt>
      <trkpt lat="39.8618300" lon="3.1398280">
        <ele>19.6</ele>
        <time>2022-09-22T16:28:00Z</time>
      </trkpt>
      <trkpt lat="39.8619650" lon="3.1397530">
        <ele>19.8</ele>
        <time>2022-09-22T16:28:03Z</time>
      </trkpt>
      <trkpt lat="39.8620640" lon="3.1397020">
        <ele>20.0</ele>
        <time>2022-09-22T16:28:05Z</time>
      </trkpt>
      <trkpt lat="39.8623660" lon="3.1395390">
        <ele>20.2</ele>
        <time>2022-09-22T16:28:11Z</time>
      </trkpt>
      <trkpt lat="39.8626920" lon="3.1393600">
        <ele>20.4</ele>
        <time>2022-09-22T16:28:18Z</time>
      </trkpt>
      <trkpt lat="39.8627460" lon="3.1393320">
        <ele>20.6</ele>
        <time>2022-09-22T16:28:19Z</time>
      </trkpt>
      <trkpt lat="39.8629150" lon="3.1392470">
        <ele>20.6</ele>
        <time>2022-09-22T16:28:22Z</time>
      </trkpt>
      <trkpt lat="39.8630260" lon="3.1391850">
        <ele>20.6</ele>
        <time>2022-09-22T16:28:24Z</time>
      </trkpt>
      <trkpt lat="39.8631200" lon="3.1390910">
        <ele>20.6</ele>
        <time>2022-09-22T16:28:26Z</time>
      </trkpt>
      <trkpt lat="39.8631490" lon="3.1390230">
        <ele>20.6</ele>
        <time>2022-09-22T16:28:27Z</time>
      </trkpt>
      <trkpt lat="39.8631820" lon="3.1388590">
        <ele>20.2</ele>
        <time>2022-09-22T16:28:29Z</time>
      </trkpt>
      <trkpt lat="39.8632090" lon="3.1386770">
        <ele>19.8</ele>
        <time>2022-09-22T16:28:31Z</time>
      </trkpt>
      <trkpt lat="39.8632240" lon="3.1385790">
        <ele>19.6</ele>
        <time>2022-09-22T16:28:32Z</time>
      </trkpt>
      <trkpt lat="39.8632380" lon="3.1384760">
        <ele>19.4</ele>
        <time>2022-09-22T16:28:33Z</time>
      </trkpt>
      <trkpt lat="39.8632540" lon="3.1383710">
        <ele>19.2</ele>
        <time>2022-09-22T16:28:34Z</time>
      </trkpt>
      <trkpt lat="39.8632860" lon="3.1381620">
        <ele>18.6</ele>
        <time>2022-09-22T16:28:36Z</time>
      </trkpt>
      <trkpt lat="39.8633060" lon="3.1380650">
        <ele>18.2</ele>
        <time>2022-09-22T16:28:37Z</time>
      </trkpt>
      <trkpt lat="39.8633440" lon="3.1378820">
        <ele>17.2</ele>
        <time>2022-09-22T16:28:39Z</time>
      </trkpt>
      <trkpt lat="39.8633840" lon="3.1377240">
        <ele>15.8</ele>
        <time>2022-09-22T16:28:41Z</time>
      </trkpt>
      <trkpt lat="39.8634060" lon="3.1376540">
        <ele>15.4</ele>
        <time>2022-09-22T16:28:42Z</time>
      </trkpt>
      <trkpt lat="39.8635500" lon="3.1372130">
        <ele>15.0</ele>
        <time>2022-09-22T16:28:49Z</time>
      </trkpt>
      <trkpt lat="39.8636250" lon="3.1369450">
        <ele>15.0</ele>
        <time>2022-09-22T16:28:53Z</time>
      </trkpt>
      <trkpt lat="39.8637110" lon="3.1366540">
        <ele>15.0</ele>
        <time>2022-09-22T16:28:57Z</time>
      </trkpt>
      <trkpt lat="39.8637350" lon="3.1365940">
        <ele>15.0</ele>
        <time>2022-09-22T16:28:58Z</time>
      </trkpt>
      <trkpt lat="39.8638030" lon="3.1365320">
        <ele>14.8</ele>
        <time>2022-09-22T16:29:00Z</time>
      </trkpt>
      <trkpt lat="39.8639250" lon="3.1365480">
        <ele>13.8</ele>
        <time>2022-09-22T16:29:03Z</time>
      </trkpt>
      <trkpt lat="39.8639650" lon="3.1365570">
        <ele>13.4</ele>
        <time>2022-09-22T16:29:04Z</time>
      </trkpt>
      <trkpt lat="39.8641140" lon="3.1365890">
        <ele>12.8</ele>
        <time>2022-09-22T16:29:07Z</time>
      </trkpt>
      <trkpt lat="39.8642310" lon="3.1366210">
        <ele>12.6</ele>
        <time>2022-09-22T16:29:09Z</time>
      </trkpt>
      <trkpt lat="39.8644980" lon="3.1366890">
        <ele>11.8</ele>
        <time>2022-09-22T16:29:13Z</time>
      </trkpt>
      <trkpt lat="39.8646170" lon="3.1367160">
        <ele>11.0</ele>
        <time>2022-09-22T16:29:15Z</time>
      </trkpt>
      <trkpt lat="39.8646760" lon="3.1367160">
        <ele>10.6</ele>
        <time>2022-09-22T16:29:16Z</time>
      </trkpt>
      <trkpt lat="39.8647780" lon="3.1366820">
        <ele>9.0</ele>
        <time>2022-09-22T16:29:18Z</time>
      </trkpt>
      <trkpt lat="39.8648590" lon="3.1366900">
        <ele>8.0</ele>
        <time>2022-09-22T16:29:20Z</time>
      </trkpt>
      <trkpt lat="39.8648940" lon="3.1367240">
        <ele>7.6</ele>
        <time>2022-09-22T16:29:21Z</time>
      </trkpt>
      <trkpt lat="39.8649440" lon="3.1368230">
        <ele>6.6</ele>
        <time>2022-09-22T16:29:23Z</time>
      </trkpt>
      <trkpt lat="39.8649670" lon="3.1368790">
        <ele>6.2</ele>
        <time>2022-09-22T16:29:24Z</time>
      </trkpt>
      <trkpt lat="39.8650110" lon="3.1369920">
        <ele>5.6</ele>
        <time>2022-09-22T16:29:26Z</time>
      </trkpt>
      <trkpt lat="39.8650380" lon="3.1370420">
        <ele>5.2</ele>
        <time>2022-09-22T16:29:27Z</time>
      </trkpt>
      <trkpt lat="39.8650590" lon="3.1370940">
        <ele>5.0</ele>
        <time>2022-09-22T16:29:28Z</time>
      </trkpt>
      <trkpt lat="39.8650560" lon="3.1371870">
        <ele>4.4</ele>
        <time>2022-09-22T16:29:30Z</time>
      </trkpt>
      <trkpt lat="39.8650390" lon="3.1372130">
        <ele>4.2</ele>
        <time>2022-09-22T16:29:31Z</time>
      </trkpt>
      <trkpt lat="39.8650040" lon="3.1372170">
        <ele>4.0</ele>
        <time>2022-09-22T16:29:33Z</time>
      </trkpt>
      <trkpt lat="39.8649920" lon="3.1371200">
        <ele>3.8</ele>
        <time>2022-09-22T16:29:36Z</time>
      </trkpt>
      <trkpt lat="39.8650440" lon="3.1369590">
        <ele>3.6</ele>
        <time>2022-09-22T16:29:39Z</time>
      </trkpt>
      <trkpt lat="39.8650660" lon="3.1369050">
        <ele>3.6</ele>
        <time>2022-09-22T16:29:40Z</time>
      </trkpt>
      <trkpt lat="39.8652080" lon="3.1367490">
        <ele>3.2</ele>
        <time>2022-09-22T16:29:44Z</time>
      </trkpt>
      <trkpt lat="39.8652830" lon="3.1366120">
        <ele>3.2</ele>
        <time>2022-09-22T16:29:47Z</time>
      </trkpt>
      <trkpt lat="39.8653100" lon="3.1365660">
        <ele>3.0</ele>
        <time>2022-09-22T16:29:48Z</time>
      </trkpt>
      <trkpt lat="39.8654110" lon="3.1364350">
        <ele>2.4</ele>
        <time>2022-09-22T16:29:51Z</time>
      </trkpt>
      <trkpt lat="39.8654510" lon="3.1362800">
        <ele>2.2</ele>
        <time>2022-09-22T16:29:55Z</time>
      </trkpt>
      <trkpt lat="39.8653750" lon="3.1361260">
        <ele>2.0</ele>
        <time>2022-09-22T16:29:59Z</time>
      </trkpt>
      <trkpt lat="39.8653380" lon="3.1360960">
        <ele>2.0</ele>
        <time>2022-09-22T16:30:00Z</time>
      </trkpt>
      <trkpt lat="39.8652670" lon="3.1360320">
        <ele>2.0</ele>
        <time>2022-09-22T16:30:02Z</time>
      </trkpt>
      <trkpt lat="39.8652210" lon="3.1359430">
        <ele>2.0</ele>
        <time>2022-09-22T16:30:04Z</time>
      </trkpt>
      <trkpt lat="39.8651670" lon="3.1358370">
        <ele>2.0</ele>
        <time>2022-09-22T16:30:07Z</time>
      </trkpt>
      <trkpt lat="39.8651680" lon="3.1358170">
        <ele>2.0</ele>
        <time>2022-09-22T16:30:08Z</time>
      </trkpt>
      <trkpt lat="39.8651480" lon="3.1357350">
        <ele>2.2</ele>
        <time>2022-09-22T16:30:12Z</time>
      </trkpt>
      <trkpt lat="39.8651460" lon="3.1357200">
        <ele>2.2</ele>
        <time>2022-09-22T16:30:13Z</time>
      </trkpt>
      <trkpt lat="39.8651430" lon="3.1357080">
        <ele>3.2</ele>
        <time>2022-09-22T16:30:16Z</time>
      </trkpt>
      <trkpt lat="39.8651130" lon="3.1356440">
        <ele>4.0</ele>
        <time>2022-09-22T16:30:24Z</time>
      </trkpt>
      <trkpt lat="39.8651080" lon="3.1356220">
        <ele>4.0</ele>
        <time>2022-09-22T16:30:25Z</time>
      </trkpt>
      <trkpt lat="39.8650610" lon="3.1355280">
        <ele>4.0</ele>
        <time>2022-09-22T16:30:28Z</time>
      </trkpt>
      <trkpt lat="39.8650040" lon="3.1354880">
        <ele>4.2</ele>
        <time>2022-09-22T16:30:30Z</time>
      </trkpt>
      <trkpt lat="39.8649800" lon="3.1354540">
        <ele>4.2</ele>
        <time>2022-09-22T16:30:31Z</time>
      </trkpt>
      <trkpt lat="39.8649680" lon="3.1354130">
        <ele>4.4</ele>
        <time>2022-09-22T16:30:32Z</time>
      </trkpt>
      <trkpt lat="39.8649660" lon="3.1353700">
        <ele>4.4</ele>
        <time>2022-09-22T16:30:33Z</time>
      </trkpt>
      <trkpt lat="39.8649800" lon="3.1352780">
        <ele>4.8</ele>
        <time>2022-09-22T16:30:35Z</time>
      </trkpt>
      <trkpt lat="39.8649900" lon="3.1352300">
        <ele>5.2</ele>
        <time>2022-09-22T16:30:36Z</time>
      </trkpt>
      <trkpt lat="39.8649970" lon="3.1351830">
        <ele>5.4</ele>
        <time>2022-09-22T16:30:37Z</time>
      </trkpt>
      <trkpt lat="39.8650230" lon="3.1350950">
        <ele>6.4</ele>
        <time>2022-09-22T16:30:39Z</time>
      </trkpt>
      <trkpt lat="39.8650450" lon="3.1350660">
        <ele>6.6</ele>
        <time>2022-09-22T16:30:40Z</time>
      </trkpt>
      <trkpt lat="39.8650710" lon="3.1350360">
        <ele>7.0</ele>
        <time>2022-09-22T16:30:41Z</time>
      </trkpt>
      <trkpt lat="39.8651480" lon="3.1349260">
        <ele>7.8</ele>
        <time>2022-09-22T16:30:44Z</time>
      </trkpt>
      <trkpt lat="39.8652080" lon="3.1348480">
        <ele>7.8</ele>
        <time>2022-09-22T16:30:46Z</time>
      </trkpt>
      <trkpt lat="39.8653370" lon="3.1347110">
        <ele>7.8</ele>
        <time>2022-09-22T16:30:50Z</time>
      </trkpt>
      <trkpt lat="39.8653760" lon="3.1346790">
        <ele>7.8</ele>
        <time>2022-09-22T16:30:51Z</time>
      </trkpt>
      <trkpt lat="39.8654880" lon="3.1345830">
        <ele>7.4</ele>
        <time>2022-09-22T16:30:54Z</time>
      </trkpt>
      <trkpt lat="39.8655250" lon="3.1345550">
        <ele>7.2</ele>
        <time>2022-09-22T16:30:55Z</time>
      </trkpt>
      <trkpt lat="39.8656040" lon="3.1345110">
        <ele>7.0</ele>
        <time>2022-09-22T16:30:57Z</time>
      </trkpt>
      <trkpt lat="39.8657300" lon="3.1344330">
        <ele>6.8</ele>
        <time>2022-09-22T16:31:00Z</time>
      </trkpt>
      <trkpt lat="39.8658590" lon="3.1343500">
        <ele>6.6</ele>
        <time>2022-09-22T16:31:03Z</time>
      </trkpt>
      <trkpt lat="39.8658950" lon="3.1343150">
        <ele>6.6</ele>
        <time>2022-09-22T16:31:04Z</time>
      </trkpt>
      <trkpt lat="39.8659210" lon="3.1342680">
        <ele>6.6</ele>
        <time>2022-09-22T16:31:05Z</time>
      </trkpt>
      <trkpt lat="39.8659130" lon="3.1340860">
        <ele>6.6</ele>
        <time>2022-09-22T16:31:08Z</time>
      </trkpt>
      <trkpt lat="39.8658730" lon="3.1339610">
        <ele>6.8</ele>
        <time>2022-09-22T16:31:10Z</time>
      </trkpt>
      <trkpt lat="39.8658080" lon="3.1337590">
        <ele>7.2</ele>
        <time>2022-09-22T16:31:13Z</time>
      </trkpt>
      <trkpt lat="39.8656970" lon="3.1333950">
        <ele>7.8</ele>
        <time>2022-09-22T16:31:18Z</time>
      </trkpt>
      <trkpt lat="39.8656320" lon="3.1331660">
        <ele>7.8</ele>
        <time>2022-09-22T16:31:21Z</time>
      </trkpt>
      <trkpt lat="39.8653950" lon="3.1325270">
        <ele>7.6</ele>
        <time>2022-09-22T16:31:30Z</time>
      </trkpt>
      <trkpt lat="39.8653230" lon="3.1323100">
        <ele>7.6</ele>
        <time>2022-09-22T16:31:33Z</time>
      </trkpt>
      <trkpt lat="39.8653360" lon="3.1321540">
        <ele>7.6</ele>
        <time>2022-09-22T16:31:35Z</time>
      </trkpt>
      <trkpt lat="39.8654980" lon="3.1319170">
        <ele>7.4</ele>
        <time>2022-09-22T16:31:39Z</time>
      </trkpt>
      <trkpt lat="39.8655440" lon="3.1318670">
        <ele>7.4</ele>
        <time>2022-09-22T16:31:40Z</time>
      </trkpt>
      <trkpt lat="39.8657220" lon="3.1316760">
        <ele>7.4</ele>
        <time>2022-09-22T16:31:44Z</time>
      </trkpt>
      <trkpt lat="39.8658110" lon="3.1315850">
        <ele>7.4</ele>
        <time>2022-09-22T16:31:46Z</time>
      </trkpt>
      <trkpt lat="39.8659100" lon="3.1315180">
        <ele>7.4</ele>
        <time>2022-09-22T16:31:48Z</time>
      </trkpt>
      <trkpt lat="39.8661040" lon="3.1313610">
        <ele>7.2</ele>
        <time>2022-09-22T16:31:52Z</time>
      </trkpt>
      <trkpt lat="39.8661490" lon="3.1313180">
        <ele>7.2</ele>
        <time>2022-09-22T16:31:53Z</time>
      </trkpt>
      <trkpt lat="39.8662940" lon="3.1312060">
        <ele>7.2</ele>
        <time>2022-09-22T16:31:56Z</time>
      </trkpt>
      <trkpt lat="39.8663960" lon="3.1311320">
        <ele>7.2</ele>
        <time>2022-09-22T16:31:58Z</time>
      </trkpt>
      <trkpt lat="39.8666850" lon="3.1308950">
        <ele>7.4</ele>
        <time>2022-09-22T16:32:04Z</time>
      </trkpt>
      <trkpt lat="39.8667250" lon="3.1308470">
        <ele>7.4</ele>
        <time>2022-09-22T16:32:05Z</time>
      </trkpt>
      <trkpt lat="39.8667940" lon="3.1307600">
        <ele>7.4</ele>
        <time>2022-09-22T16:32:07Z</time>
      </trkpt>
      <trkpt lat="39.8668320" lon="3.1306680">
        <ele>7.6</ele>
        <time>2022-09-22T16:32:09Z</time>
      </trkpt>
      <trkpt lat="39.8668820" lon="3.1305880">
        <ele>7.6</ele>
        <time>2022-09-22T16:32:11Z</time>
      </trkpt>
      <trkpt lat="39.8669710" lon="3.1304390">
        <ele>8.0</ele>
        <time>2022-09-22T16:32:14Z</time>
      </trkpt>
      <trkpt lat="39.8670070" lon="3.1303910">
        <ele>8.0</ele>
        <time>2022-09-22T16:32:15Z</time>
      </trkpt>
      <trkpt lat="39.8670930" lon="3.1303880">
        <ele>8.0</ele>
        <time>2022-09-22T16:32:17Z</time>
      </trkpt>
      <trkpt lat="39.8672430" lon="3.1305360">
        <ele>8.0</ele>
        <time>2022-09-22T16:32:21Z</time>
      </trkpt>
      <trkpt lat="39.8672820" lon="3.1305660">
        <ele>8.0</ele>
        <time>2022-09-22T16:32:22Z</time>
      </trkpt>
      <trkpt lat="39.8673670" lon="3.1305820">
        <ele>8.4</ele>
        <time>2022-09-22T16:32:24Z</time>
      </trkpt>
      <trkpt lat="39.8675130" lon="3.1304920">
        <ele>7.8</ele>
        <time>2022-09-22T16:32:27Z</time>
      </trkpt>
      <trkpt lat="39.8676150" lon="3.1304050">
        <ele>7.6</ele>
        <time>2022-09-22T16:32:29Z</time>
      </trkpt>
      <trkpt lat="39.8677630" lon="3.1302820">
        <ele>7.6</ele>
        <time>2022-09-22T16:32:32Z</time>
      </trkpt>
      <trkpt lat="39.8678700" lon="3.1301880">
        <ele>7.8</ele>
        <time>2022-09-22T16:32:36Z</time>
      </trkpt>
      <trkpt lat="39.8678190" lon="3.1301350">
        <ele>7.8</ele>
        <time>2022-09-22T16:32:39Z</time>
      </trkpt>
      <trkpt lat="39.8677600" lon="3.1300840">
        <ele>7.8</ele>
        <time>2022-09-22T16:32:41Z</time>
      </trkpt>
      <trkpt lat="39.8676970" lon="3.1300240">
        <ele>7.6</ele>
        <time>2022-09-22T16:32:43Z</time>
      </trkpt>
      <trkpt lat="39.8676550" lon="3.1300010">
        <ele>7.6</ele>
        <time>2022-09-22T16:32:44Z</time>
      </trkpt>
      <trkpt lat="39.8675040" lon="3.1299940">
        <ele>7.6</ele>
        <time>2022-09-22T16:32:47Z</time>
      </trkpt>
      <trkpt lat="39.8673810" lon="3.1299000">
        <ele>7.0</ele>
        <time>2022-09-22T16:32:50Z</time>
      </trkpt>
      <trkpt lat="39.8672870" lon="3.1298650">
        <ele>6.6</ele>
        <time>2022-09-22T16:32:52Z</time>
      </trkpt>
      <trkpt lat="39.8672540" lon="3.1298370">
        <ele>6.4</ele>
        <time>2022-09-22T16:32:53Z</time>
      </trkpt>
      <trkpt lat="39.8671330" lon="3.1296880">
        <ele>5.2</ele>
        <time>2022-09-22T16:32:57Z</time>
      </trkpt>
      <trkpt lat="39.8670330" lon="3.1295800">
        <ele>4.6</ele>
        <time>2022-09-22T16:33:00Z</time>
      </trkpt>
      <trkpt lat="39.8670120" lon="3.1294990">
        <ele>4.2</ele>
        <time>2022-09-22T16:33:02Z</time>
      </trkpt>
      <trkpt lat="39.8669770" lon="3.1294140">
        <ele>4.0</ele>
        <time>2022-09-22T16:33:05Z</time>
      </trkpt>
      <trkpt lat="39.8669710" lon="3.1294030">
        <ele>4.0</ele>
        <time>2022-09-22T16:33:07Z</time>
      </trkpt>
      <trkpt lat="39.8669350" lon="3.1293740">
        <ele>4.0</ele>
        <time>2022-09-22T16:33:13Z</time>
      </trkpt>
      <trkpt lat="39.8669150" lon="3.1293530">
        <ele>4.0</ele>
        <time>2022-09-22T16:33:14Z</time>
      </trkpt>
      <trkpt lat="39.8668010" lon="3.1292560">
        <ele>4.2</ele>
        <time>2022-09-22T16:33:18Z</time>
      </trkpt>
      <trkpt lat="39.8667660" lon="3.1292320">
        <ele>4.2</ele>
        <time>2022-09-22T16:33:19Z</time>
      </trkpt>
      <trkpt lat="39.8667110" lon="3.1291920">
        <ele>4.2</ele>
        <time>2022-09-22T16:33:21Z</time>
      </trkpt>
      <trkpt lat="39.8666700" lon="3.1291550">
        <ele>4.4</ele>
        <time>2022-09-22T16:33:23Z</time>
      </trkpt>
      <trkpt lat="39.8666270" lon="3.1291850">
        <ele>4.6</ele>
        <time>2022-09-22T16:33:25Z</time>
      </trkpt>
      <trkpt lat="39.8666060" lon="3.1292210">
        <ele>4.6</ele>
        <time>2022-09-22T16:33:26Z</time>
      </trkpt>
      <trkpt lat="39.8665810" lon="3.1292610">
        <ele>4.8</ele>
        <time>2022-09-22T16:33:27Z</time>
      </trkpt>
      <trkpt lat="39.8665530" lon="3.1293010">
        <ele>5.2</ele>
        <time>2022-09-22T16:33:28Z</time>
      </trkpt>
      <trkpt lat="39.8664660" lon="3.1294130">
        <ele>6.2</ele>
        <time>2022-09-22T16:33:31Z</time>
      </trkpt>
      <trkpt lat="39.8663540" lon="3.1295420">
        <ele>6.6</ele>
        <time>2022-09-22T16:33:35Z</time>
      </trkpt>
      <trkpt lat="39.8663170" lon="3.1295370">
        <ele>6.6</ele>
        <time>2022-09-22T16:33:36Z</time>
      </trkpt>
      <trkpt lat="39.8662110" lon="3.1294110">
        <ele>6.8</ele>
        <time>2022-09-22T16:33:39Z</time>
      </trkpt>
      <trkpt lat="39.8660750" lon="3.1291670">
        <ele>6.8</ele>
        <time>2022-09-22T16:33:43Z</time>
      </trkpt>
      <trkpt lat="39.8660450" lon="3.1290970">
        <ele>6.8</ele>
        <time>2022-09-22T16:33:44Z</time>
      </trkpt>
      <trkpt lat="39.8658960" lon="3.1287420">
        <ele>5.8</ele>
        <time>2022-09-22T16:33:49Z</time>
      </trkpt>
      <trkpt lat="39.8658260" lon="3.1285960">
        <ele>5.4</ele>
        <time>2022-09-22T16:33:51Z</time>
      </trkpt>
      <trkpt lat="39.8657860" lon="3.1285290">
        <ele>5.2</ele>
        <time>2022-09-22T16:33:52Z</time>
      </trkpt>
      <trkpt lat="39.8656250" lon="3.1282600">
        <ele>4.4</ele>
        <time>2022-09-22T16:33:56Z</time>
      </trkpt>
      <trkpt lat="39.8655420" lon="3.1281260">
        <ele>4.2</ele>
        <time>2022-09-22T16:33:58Z</time>
      </trkpt>
      <trkpt lat="39.8654250" lon="3.1279260">
        <ele>3.4</ele>
        <time>2022-09-22T16:34:01Z</time>
      </trkpt>
      <trkpt lat="39.8653860" lon="3.1278600">
        <ele>2.8</ele>
        <time>2022-09-22T16:34:02Z</time>
      </trkpt>
      <trkpt lat="39.8653440" lon="3.1277970">
        <ele>2.6</ele>
        <time>2022-09-22T16:34:03Z</time>
      </trkpt>
      <trkpt lat="39.8650500" lon="3.1273710">
        <ele>2.0</ele>
        <time>2022-09-22T16:34:10Z</time>
      </trkpt>
      <trkpt lat="39.8650090" lon="3.1273010">
        <ele>1.8</ele>
        <time>2022-09-22T16:34:11Z</time>
      </trkpt>
      <trkpt lat="39.8649390" lon="3.1271510">
        <ele>1.6</ele>
        <time>2022-09-22T16:34:13Z</time>
      </trkpt>
      <trkpt lat="39.8647710" lon="3.1269870">
        <ele>1.6</ele>
        <time>2022-09-22T16:34:16Z</time>
      </trkpt>
      <trkpt lat="39.8647130" lon="3.1269350">
        <ele>1.6</ele>
        <time>2022-09-22T16:34:17Z</time>
      </trkpt>
      <trkpt lat="39.8646130" lon="3.1268240">
        <ele>1.4</ele>
        <time>2022-09-22T16:34:19Z</time>
      </trkpt>
      <trkpt lat="39.8645180" lon="3.1267040">
        <ele>0.8</ele>
        <time>2022-09-22T16:34:21Z</time>
      </trkpt>
      <trkpt lat="39.8644670" lon="3.1266480">
        <ele>0.6</ele>
        <time>2022-09-22T16:34:22Z</time>
      </trkpt>
      <trkpt lat="39.8642740" lon="3.1263950">
        <ele>0.2</ele>
        <time>2022-09-22T16:34:26Z</time>
      </trkpt>
      <trkpt lat="39.8640120" lon="3.1261680">
        <ele>0.0</ele>
        <time>2022-09-22T16:34:31Z</time>
      </trkpt>
      <trkpt lat="39.8639550" lon="3.1261320">
        <ele>0.0</ele>
        <time>2022-09-22T16:34:32Z</time>
      </trkpt>
      <trkpt lat="39.8638050" lon="3.1259780">
        <ele>0.0</ele>
        <time>2022-09-22T16:34:35Z</time>
      </trkpt>
      <trkpt lat="39.8637470" lon="3.1259370">
        <ele>0.0</ele>
        <time>2022-09-22T16:34:36Z</time>
      </trkpt>
      <trkpt lat="39.8635480" lon="3.1258630">
        <ele>0.2</ele>
        <time>2022-09-22T16:34:39Z</time>
      </trkpt>
      <trkpt lat="39.8634790" lon="3.1258570">
        <ele>0.2</ele>
        <time>2022-09-22T16:34:40Z</time>
      </trkpt>
      <trkpt lat="39.8634090" lon="3.1258490">
        <ele>0.2</ele>
        <time>2022-09-22T16:34:41Z</time>
      </trkpt>
      <trkpt lat="39.8633420" lon="3.1258330">
        <ele>0.2</ele>
        <time>2022-09-22T16:34:42Z</time>
      </trkpt>
      <trkpt lat="39.8631480" lon="3.1257520">
        <ele>0.2</ele>
        <time>2022-09-22T16:34:45Z</time>
      </trkpt>
      <trkpt lat="39.8630240" lon="3.1256670">
        <ele>0.2</ele>
        <time>2022-09-22T16:34:47Z</time>
      </trkpt>
      <trkpt lat="39.8629080" lon="3.1255510">
        <ele>0.0</ele>
        <time>2022-09-22T16:34:49Z</time>
      </trkpt>
      <trkpt lat="39.8627970" lon="3.1253060">
        <ele>0.0</ele>
        <time>2022-09-22T16:34:52Z</time>
      </trkpt>
      <trkpt lat="39.8627440" lon="3.1249210">
        <ele>0.0</ele>
        <time>2022-09-22T16:34:56Z</time>
      </trkpt>
      <trkpt lat="39.8627300" lon="3.1248250">
        <ele>-0.2</ele>
        <time>2022-09-22T16:34:57Z</time>
      </trkpt>
      <trkpt lat="39.8627050" lon="3.1245380">
        <ele>-0.2</ele>
        <time>2022-09-22T16:35:00Z</time>
      </trkpt>
      <trkpt lat="39.8626960" lon="3.1242560">
        <ele>-0.4</ele>
        <time>2022-09-22T16:35:03Z</time>
      </trkpt>
      <trkpt lat="39.8627020" lon="3.1241630">
        <ele>-0.4</ele>
        <time>2022-09-22T16:35:04Z</time>
      </trkpt>
      <trkpt lat="39.8627100" lon="3.1240690">
        <ele>-0.4</ele>
        <time>2022-09-22T16:35:05Z</time>
      </trkpt>
      <trkpt lat="39.8627370" lon="3.1238930">
        <ele>-0.4</ele>
        <time>2022-09-22T16:35:07Z</time>
      </trkpt>
      <trkpt lat="39.8627680" lon="3.1238150">
        <ele>-0.4</ele>
        <time>2022-09-22T16:35:08Z</time>
      </trkpt>
      <trkpt lat="39.8629430" lon="3.1234180">
        <ele>-0.4</ele>
        <time>2022-09-22T16:35:14Z</time>
      </trkpt>
      <trkpt lat="39.8629720" lon="3.1233670">
        <ele>-0.4</ele>
        <time>2022-09-22T16:35:15Z</time>
      </trkpt>
      <trkpt lat="39.8630410" lon="3.1232870">
        <ele>-0.4</ele>
        <time>2022-09-22T16:35:17Z</time>
      </trkpt>
      <trkpt lat="39.8630720" lon="3.1232520">
        <ele>-0.4</ele>
        <time>2022-09-22T16:35:18Z</time>
      </trkpt>
      <trkpt lat="39.8631380" lon="3.1232150">
        <ele>-0.4</ele>
        <time>2022-09-22T16:35:20Z</time>
      </trkpt>
      <trkpt lat="39.8631810" lon="3.1232180">
        <ele>-0.2</ele>
        <time>2022-09-22T16:35:21Z</time>
      </trkpt>
      <trkpt lat="39.8633790" lon="3.1232200">
        <ele>-0.4</ele>
        <time>2022-09-22T16:35:25Z</time>
      </trkpt>
      <trkpt lat="39.8634300" lon="3.1231920">
        <ele>-0.4</ele>
        <time>2022-09-22T16:35:26Z</time>
      </trkpt>
      <trkpt lat="39.8634820" lon="3.1231680">
        <ele>-0.4</ele>
        <time>2022-09-22T16:35:27Z</time>
      </trkpt>
      <trkpt lat="39.8636820" lon="3.1230580">
        <ele>-0.6</ele>
        <time>2022-09-22T16:35:31Z</time>
      </trkpt>
      <trkpt lat="39.8637290" lon="3.1230260">
        <ele>-0.6</ele>
        <time>2022-09-22T16:35:32Z</time>
      </trkpt>
      <trkpt lat="39.8638200" lon="3.1229670">
        <ele>-0.6</ele>
        <time>2022-09-22T16:35:34Z</time>
      </trkpt>
      <trkpt lat="39.8638490" lon="3.1229280">
        <ele>-0.6</ele>
        <time>2022-09-22T16:35:35Z</time>
      </trkpt>
      <trkpt lat="39.8638160" lon="3.1227700">
        <ele>-0.6</ele>
        <time>2022-09-22T16:35:38Z</time>
      </trkpt>
      <trkpt lat="39.8636770" lon="3.1224270">
        <ele>-0.4</ele>
        <time>2022-09-22T16:35:43Z</time>
      </trkpt>
      <trkpt lat="39.8634660" lon="3.1221090">
        <ele>-0.2</ele>
        <time>2022-09-22T16:35:48Z</time>
      </trkpt>
      <trkpt lat="39.8634290" lon="3.1220470">
        <ele>0.0</ele>
        <time>2022-09-22T16:35:49Z</time>
      </trkpt>
      <trkpt lat="39.8633870" lon="3.1219040">
        <ele>0.4</ele>
        <time>2022-09-22T16:35:51Z</time>
      </trkpt>
      <trkpt lat="39.8633710" lon="3.1216220">
        <ele>0.4</ele>
        <time>2022-09-22T16:35:55Z</time>
      </trkpt>
      <trkpt lat="39.8632530" lon="3.1213910">
        <ele>0.6</ele>
        <time>2022-09-22T16:35:59Z</time>
      </trkpt>
      <trkpt lat="39.8632040" lon="3.1213580">
        <ele>0.8</ele>
        <time>2022-09-22T16:36:00Z</time>
      </trkpt>
      <trkpt lat="39.8631100" lon="3.1213180">
        <ele>1.0</ele>
        <time>2022-09-22T16:36:02Z</time>
      </trkpt>
      <trkpt lat="39.8630720" lon="3.1212830">
        <ele>1.2</ele>
        <time>2022-09-22T16:36:03Z</time>
      </trkpt>
      <trkpt lat="39.8630310" lon="3.1212550">
        <ele>1.4</ele>
        <time>2022-09-22T16:36:04Z</time>
      </trkpt>
      <trkpt lat="39.8629530" lon="3.1212080">
        <ele>1.6</ele>
        <time>2022-09-22T16:36:06Z</time>
      </trkpt>
      <trkpt lat="39.8628750" lon="3.1211360">
        <ele>1.6</ele>
        <time>2022-09-22T16:36:09Z</time>
      </trkpt>
      <trkpt lat="39.8628010" lon="3.1211880">
        <ele>1.4</ele>
        <time>2022-09-22T16:36:12Z</time>
      </trkpt>
      <trkpt lat="39.8626770" lon="3.1212650">
        <ele>1.4</ele>
        <time>2022-09-22T16:36:15Z</time>
      </trkpt>
      <trkpt lat="39.8626320" lon="3.1212900">
        <ele>1.4</ele>
        <time>2022-09-22T16:36:16Z</time>
      </trkpt>
      <trkpt lat="39.8624990" lon="3.1213600">
        <ele>1.4</ele>
        <time>2022-09-22T16:36:19Z</time>
      </trkpt>
      <trkpt lat="39.8623100" lon="3.1214630">
        <ele>1.0</ele>
        <time>2022-09-22T16:36:23Z</time>
      </trkpt>
      <trkpt lat="39.8621780" lon="3.1215400">
        <ele>1.0</ele>
        <time>2022-09-22T16:36:26Z</time>
      </trkpt>
      <trkpt lat="39.8621040" lon="3.1215330">
        <ele>1.0</ele>
        <time>2022-09-22T16:36:28Z</time>
      </trkpt>
      <trkpt lat="39.8620310" lon="3.1214210">
        <ele>1.0</ele>
        <time>2022-09-22T16:36:31Z</time>
      </trkpt>
      <trkpt lat="39.8620050" lon="3.1213720">
        <ele>1.0</ele>
        <time>2022-09-22T16:36:32Z</time>
      </trkpt>
      <trkpt lat="39.8618870" lon="3.1211660">
        <ele>0.8</ele>
        <time>2022-09-22T16:36:36Z</time>
      </trkpt>
      <trkpt lat="39.8618000" lon="3.1210200">
        <ele>0.8</ele>
        <time>2022-09-22T16:36:39Z</time>
      </trkpt>
      <trkpt lat="39.8617690" lon="3.1209790">
        <ele>0.8</ele>
        <time>2022-09-22T16:36:40Z</time>
      </trkpt>
      <trkpt lat="39.8616830" lon="3.1208750">
        <ele>0.4</ele>
        <time>2022-09-22T16:36:43Z</time>
      </trkpt>
      <trkpt lat="39.8616090" lon="3.1207360">
        <ele>0.4</ele>
        <time>2022-09-22T16:36:46Z</time>
      </trkpt>
      <trkpt lat="39.8614490" lon="3.1204770">
        <ele>0.4</ele>
        <time>2022-09-22T16:36:51Z</time>
      </trkpt>
      <trkpt lat="39.8614240" lon="3.1204140">
        <ele>0.2</ele>
        <time>2022-09-22T16:36:52Z</time>
      </trkpt>
      <trkpt lat="39.8614210" lon="3.1201110">
        <ele>0.0</ele>
        <time>2022-09-22T16:36:56Z</time>
      </trkpt>
      <trkpt lat="39.8614350" lon="3.1200300">
        <ele>0.0</ele>
        <time>2022-09-22T16:36:57Z</time>
      </trkpt>
      <trkpt lat="39.8614700" lon="3.1197780">
        <ele>-0.2</ele>
        <time>2022-09-22T16:37:00Z</time>
      </trkpt>
      <trkpt lat="39.8615330" lon="3.1194400">
        <ele>-0.6</ele>
        <time>2022-09-22T16:37:04Z</time>
      </trkpt>
      <trkpt lat="39.8616710" lon="3.1187080">
        <ele>-0.6</ele>
        <time>2022-09-22T16:37:13Z</time>
      </trkpt>
      <trkpt lat="39.8617680" lon="3.1183290">
        <ele>0.0</ele>
        <time>2022-09-22T16:37:18Z</time>
      </trkpt>
      <trkpt lat="39.8617930" lon="3.1182550">
        <ele>0.0</ele>
        <time>2022-09-22T16:37:19Z</time>
      </trkpt>
      <trkpt lat="39.8618070" lon="3.1180190">
        <ele>0.0</ele>
        <time>2022-09-22T16:37:22Z</time>
      </trkpt>
      <trkpt lat="39.8618000" lon="3.1179450">
        <ele>0.2</ele>
        <time>2022-09-22T16:37:23Z</time>
      </trkpt>
      <trkpt lat="39.8617930" lon="3.1177630">
        <ele>0.2</ele>
        <time>2022-09-22T16:37:26Z</time>
      </trkpt>
      <trkpt lat="39.8618120" lon="3.1177320">
        <ele>0.2</ele>
        <time>2022-09-22T16:37:27Z</time>
      </trkpt>
      <trkpt lat="39.8619440" lon="3.1177150">
        <ele>0.2</ele>
        <time>2022-09-22T16:37:30Z</time>
      </trkpt>
      <trkpt lat="39.8621720" lon="3.1177440">
        <ele>-0.2</ele>
        <time>2022-09-22T16:37:34Z</time>
      </trkpt>
      <trkpt lat="39.8622290" lon="3.1177620">
        <ele>-0.2</ele>
        <time>2022-09-22T16:37:35Z</time>
      </trkpt>
      <trkpt lat="39.8625210" lon="3.1178320">
        <ele>-0.8</ele>
        <time>2022-09-22T16:37:40Z</time>
      </trkpt>
      <trkpt lat="39.8626420" lon="3.1178350">
        <ele>-0.8</ele>
        <time>2022-09-22T16:37:42Z</time>
      </trkpt>
      <trkpt lat="39.8630660" lon="3.1177560">
        <ele>-1.0</ele>
        <time>2022-09-22T16:37:49Z</time>
      </trkpt>
      <trkpt lat="39.8631230" lon="3.1177280">
        <ele>-1.0</ele>
        <time>2022-09-22T16:37:50Z</time>
      </trkpt>
      <trkpt lat="39.8632860" lon="3.1176250">
        <ele>-1.0</ele>
        <time>2022-09-22T16:37:53Z</time>
      </trkpt>
      <trkpt lat="39.8634010" lon="3.1175750">
        <ele>-1.0</ele>
        <time>2022-09-22T16:37:55Z</time>
      </trkpt>
      <trkpt lat="39.8634560" lon="3.1175430">
        <ele>-1.0</ele>
        <time>2022-09-22T16:37:56Z</time>
      </trkpt>
      <trkpt lat="39.8635420" lon="3.1174360">
        <ele>-0.8</ele>
        <time>2022-09-22T16:37:58Z</time>
      </trkpt>
      <trkpt lat="39.8635970" lon="3.1172950">
        <ele>-0.8</ele>
        <time>2022-09-22T16:38:00Z</time>
      </trkpt>
      <trkpt lat="39.8636490" lon="3.1171660">
        <ele>-0.6</ele>
        <time>2022-09-22T16:38:02Z</time>
      </trkpt>
      <trkpt lat="39.8636950" lon="3.1170420">
        <ele>-0.4</ele>
        <time>2022-09-22T16:38:04Z</time>
      </trkpt>
      <trkpt lat="39.8637880" lon="3.1167850">
        <ele>0.6</ele>
        <time>2022-09-22T16:38:08Z</time>
      </trkpt>
      <trkpt lat="39.8638140" lon="3.1167200">
        <ele>1.2</ele>
        <time>2022-09-22T16:38:09Z</time>
      </trkpt>
      <trkpt lat="39.8638610" lon="3.1165910">
        <ele>1.6</ele>
        <time>2022-09-22T16:38:11Z</time>
      </trkpt>
      <trkpt lat="39.8639220" lon="3.1163260">
        <ele>1.6</ele>
        <time>2022-09-22T16:38:15Z</time>
      </trkpt>
      <trkpt lat="39.8639210" lon="3.1162600">
        <ele>1.8</ele>
        <time>2022-09-22T16:38:16Z</time>
      </trkpt>
      <trkpt lat="39.8638490" lon="3.1161240">
        <ele>1.8</ele>
        <time>2022-09-22T16:38:19Z</time>
      </trkpt>
      <trkpt lat="39.8637770" lon="3.1161150">
        <ele>1.8</ele>
        <time>2022-09-22T16:38:21Z</time>
      </trkpt>
      <trkpt lat="39.8637370" lon="3.1161100">
        <ele>1.8</ele>
        <time>2022-09-22T16:38:22Z</time>
      </trkpt>
      <trkpt lat="39.8636880" lon="3.1161020">
        <ele>1.6</ele>
        <time>2022-09-22T16:38:23Z</time>
      </trkpt>
      <trkpt lat="39.8635040" lon="3.1160600">
        <ele>1.4</ele>
        <time>2022-09-22T16:38:26Z</time>
      </trkpt>
      <trkpt lat="39.8634420" lon="3.1160460">
        <ele>1.4</ele>
        <time>2022-09-22T16:38:27Z</time>
      </trkpt>
      <trkpt lat="39.8633240" lon="3.1160160">
        <ele>1.0</ele>
        <time>2022-09-22T16:38:29Z</time>
      </trkpt>
      <trkpt lat="39.8631680" lon="3.1159690">
        <ele>0.6</ele>
        <time>2022-09-22T16:38:32Z</time>
      </trkpt>
      <trkpt lat="39.8631200" lon="3.1159580">
        <ele>0.6</ele>
        <time>2022-09-22T16:38:33Z</time>
      </trkpt>
      <trkpt lat="39.8628610" lon="3.1159100">
        <ele>0.6</ele>
        <time>2022-09-22T16:38:38Z</time>
      </trkpt>
      <trkpt lat="39.8627490" lon="3.1158680">
        <ele>0.6</ele>
        <time>2022-09-22T16:38:40Z</time>
      </trkpt>
      <trkpt lat="39.8623080" lon="3.1157380">
        <ele>0.6</ele>
        <time>2022-09-22T16:38:47Z</time>
      </trkpt>
      <trkpt lat="39.8620620" lon="3.1156710">
        <ele>0.4</ele>
        <time>2022-09-22T16:38:51Z</time>
      </trkpt>
      <trkpt lat="39.8620160" lon="3.1156220">
        <ele>0.0</ele>
        <time>2022-09-22T16:38:52Z</time>
      </trkpt>
      <trkpt lat="39.8619110" lon="3.1154300">
        <ele>-0.4</ele>
        <time>2022-09-22T16:38:55Z</time>
      </trkpt>
      <trkpt lat="39.8618740" lon="3.1153640">
        <ele>-0.4</ele>
        <time>2022-09-22T16:38:56Z</time>
      </trkpt>
      <trkpt lat="39.8615830" lon="3.1148590">
        <ele>-0.6</ele>
        <time>2022-09-22T16:39:04Z</time>
      </trkpt>
      <trkpt lat="39.8613840" lon="3.1144900">
        <ele>-0.4</ele>
        <time>2022-09-22T16:39:10Z</time>
      </trkpt>
      <trkpt lat="39.8613520" lon="3.1142720">
        <ele>0.0</ele>
        <time>2022-09-22T16:39:13Z</time>
      </trkpt>
      <trkpt lat="39.8613420" lon="3.1141930">
        <ele>0.0</ele>
        <time>2022-09-22T16:39:14Z</time>
      </trkpt>
      <trkpt lat="39.8612750" lon="3.1139740">
        <ele>0.2</ele>
        <time>2022-09-22T16:39:17Z</time>
      </trkpt>
      <trkpt lat="39.8612450" lon="3.1139060">
        <ele>0.2</ele>
        <time>2022-09-22T16:39:18Z</time>
      </trkpt>
      <trkpt lat="39.8610740" lon="3.1134920">
        <ele>0.4</ele>
        <time>2022-09-22T16:39:24Z</time>
      </trkpt>
      <trkpt lat="39.8610590" lon="3.1131890">
        <ele>0.2</ele>
        <time>2022-09-22T16:39:28Z</time>
      </trkpt>
      <trkpt lat="39.8610690" lon="3.1127870">
        <ele>0.2</ele>
        <time>2022-09-22T16:39:33Z</time>
      </trkpt>
      <trkpt lat="39.8610730" lon="3.1127080">
        <ele>0.2</ele>
        <time>2022-09-22T16:39:34Z</time>
      </trkpt>
      <trkpt lat="39.8610820" lon="3.1125520">
        <ele>0.2</ele>
        <time>2022-09-22T16:39:36Z</time>
      </trkpt>
      <trkpt lat="39.8610300" lon="3.1123370">
        <ele>0.4</ele>
        <time>2022-09-22T16:39:39Z</time>
      </trkpt>
      <trkpt lat="39.8609950" lon="3.1122730">
        <ele>0.6</ele>
        <time>2022-09-22T16:39:40Z</time>
      </trkpt>
      <trkpt lat="39.8607520" lon="3.1118070">
        <ele>0.8</ele>
        <time>2022-09-22T16:39:47Z</time>
      </trkpt>
      <trkpt lat="39.8607120" lon="3.1117460">
        <ele>0.6</ele>
        <time>2022-09-22T16:39:48Z</time>
      </trkpt>
      <trkpt lat="39.8605590" lon="3.1116040">
        <ele>0.2</ele>
        <time>2022-09-22T16:39:51Z</time>
      </trkpt>
      <trkpt lat="39.8604370" lon="3.1115460">
        <ele>0.2</ele>
        <time>2022-09-22T16:39:53Z</time>
      </trkpt>
      <trkpt lat="39.8602520" lon="3.1114470">
        <ele>0.2</ele>
        <time>2022-09-22T16:39:56Z</time>
      </trkpt>
      <trkpt lat="39.8597520" lon="3.1111980">
        <ele>0.0</ele>
        <time>2022-09-22T16:40:04Z</time>
      </trkpt>
      <trkpt lat="39.8592430" lon="3.1109530">
        <ele>-0.2</ele>
        <time>2022-09-22T16:40:12Z</time>
      </trkpt>
      <trkpt lat="39.8591110" lon="3.1108930">
        <ele>-0.2</ele>
        <time>2022-09-22T16:40:14Z</time>
      </trkpt>
      <trkpt lat="39.8589780" lon="3.1108580">
        <ele>-0.2</ele>
        <time>2022-09-22T16:40:16Z</time>
      </trkpt>
      <trkpt lat="39.8588460" lon="3.1108190">
        <ele>-0.2</ele>
        <time>2022-09-22T16:40:18Z</time>
      </trkpt>
      <trkpt lat="39.8586600" lon="3.1107440">
        <ele>-0.2</ele>
        <time>2022-09-22T16:40:21Z</time>
      </trkpt>
      <trkpt lat="39.8585460" lon="3.1107020">
        <ele>-0.2</ele>
        <time>2022-09-22T16:40:23Z</time>
      </trkpt>
      <trkpt lat="39.8584350" lon="3.1106560">
        <ele>-0.2</ele>
        <time>2022-09-22T16:40:25Z</time>
      </trkpt>
      <trkpt lat="39.8583230" lon="3.1105770">
        <ele>-0.2</ele>
        <time>2022-09-22T16:40:27Z</time>
      </trkpt>
      <trkpt lat="39.8582710" lon="3.1105250">
        <ele>-0.2</ele>
        <time>2022-09-22T16:40:28Z</time>
      </trkpt>
      <trkpt lat="39.8581780" lon="3.1103920">
        <ele>-0.2</ele>
        <time>2022-09-22T16:40:30Z</time>
      </trkpt>
      <trkpt lat="39.8580960" lon="3.1102440">
        <ele>-0.2</ele>
        <time>2022-09-22T16:40:32Z</time>
      </trkpt>
      <trkpt lat="39.8580620" lon="3.1101620">
        <ele>-0.2</ele>
        <time>2022-09-22T16:40:33Z</time>
      </trkpt>
      <trkpt lat="39.8580090" lon="3.1099910">
        <ele>-0.4</ele>
        <time>2022-09-22T16:40:35Z</time>
      </trkpt>
      <trkpt lat="39.8579660" lon="3.1098270">
        <ele>-0.4</ele>
        <time>2022-09-22T16:40:37Z</time>
      </trkpt>
      <trkpt lat="39.8579250" lon="3.1095810">
        <ele>-0.4</ele>
        <time>2022-09-22T16:40:40Z</time>
      </trkpt>
      <trkpt lat="39.8578800" lon="3.1090970">
        <ele>-0.4</ele>
        <time>2022-09-22T16:40:46Z</time>
      </trkpt>
      <trkpt lat="39.8578740" lon="3.1090170">
        <ele>-0.4</ele>
        <time>2022-09-22T16:40:47Z</time>
      </trkpt>
      <trkpt lat="39.8579110" lon="3.1087820">
        <ele>-0.4</ele>
        <time>2022-09-22T16:40:50Z</time>
      </trkpt>
      <trkpt lat="39.8579760" lon="3.1085550">
        <ele>-0.6</ele>
        <time>2022-09-22T16:40:53Z</time>
      </trkpt>
      <trkpt lat="39.8579850" lon="3.1084020">
        <ele>-0.6</ele>
        <time>2022-09-22T16:40:55Z</time>
      </trkpt>
      <trkpt lat="39.8579450" lon="3.1081910">
        <ele>-0.6</ele>
        <time>2022-09-22T16:40:58Z</time>
      </trkpt>
      <trkpt lat="39.8579140" lon="3.1080620">
        <ele>-0.6</ele>
        <time>2022-09-22T16:41:00Z</time>
      </trkpt>
      <trkpt lat="39.8578820" lon="3.1079460">
        <ele>-0.6</ele>
        <time>2022-09-22T16:41:02Z</time>
      </trkpt>
      <trkpt lat="39.8578250" lon="3.1078700">
        <ele>-0.6</ele>
        <time>2022-09-22T16:41:04Z</time>
      </trkpt>
      <trkpt lat="39.8577060" lon="3.1078880">
        <ele>-0.6</ele>
        <time>2022-09-22T16:41:07Z</time>
      </trkpt>
      <trkpt lat="39.8575600" lon="3.1079880">
        <ele>-0.4</ele>
        <time>2022-09-22T16:41:10Z</time>
      </trkpt>
      <trkpt lat="39.8575090" lon="3.1080210">
        <ele>-0.4</ele>
        <time>2022-09-22T16:41:11Z</time>
      </trkpt>
      <trkpt lat="39.8574540" lon="3.1080510">
        <ele>-0.4</ele>
        <time>2022-09-22T16:41:12Z</time>
      </trkpt>
      <trkpt lat="39.8571910" lon="3.1081780">
        <ele>-0.4</ele>
        <time>2022-09-22T16:41:17Z</time>
      </trkpt>
      <trkpt lat="39.8570500" lon="3.1082360">
        <ele>-0.2</ele>
        <time>2022-09-22T16:41:20Z</time>
      </trkpt>
      <trkpt lat="39.8569270" lon="3.1083030">
        <ele>-0.2</ele>
        <time>2022-09-22T16:41:23Z</time>
      </trkpt>
      <trkpt lat="39.8568870" lon="3.1083170">
        <ele>-0.2</ele>
        <time>2022-09-22T16:41:24Z</time>
      </trkpt>
      <trkpt lat="39.8568100" lon="3.1082890">
        <ele>-0.2</ele>
        <time>2022-09-22T16:41:26Z</time>
      </trkpt>
      <trkpt lat="39.8567510" lon="3.1081220">
        <ele>-0.2</ele>
        <time>2022-09-22T16:41:29Z</time>
      </trkpt>
      <trkpt lat="39.8567660" lon="3.1079170">
        <ele>-0.2</ele>
        <time>2022-09-22T16:41:32Z</time>
      </trkpt>
      <trkpt lat="39.8567740" lon="3.1078470">
        <ele>-0.2</ele>
        <time>2022-09-22T16:41:33Z</time>
      </trkpt>
      <trkpt lat="39.8568390" lon="3.1074390">
        <ele>-0.4</ele>
        <time>2022-09-22T16:41:39Z</time>
      </trkpt>
      <trkpt lat="39.8568970" lon="3.1071130">
        <ele>-0.4</ele>
        <time>2022-09-22T16:41:45Z</time>
      </trkpt>
      <trkpt lat="39.8569330" lon="3.1068960">
        <ele>-0.2</ele>
        <time>2022-09-22T16:41:50Z</time>
      </trkpt>
      <trkpt lat="39.8569500" lon="3.1068190">
        <ele>-0.2</ele>
        <time>2022-09-22T16:41:52Z</time>
      </trkpt>
      <trkpt lat="39.8569910" lon="3.1065860">
        <ele>0.0</ele>
        <time>2022-09-22T16:41:59Z</time>
      </trkpt>
      <trkpt lat="39.8570080" lon="3.1064640">
        <ele>0.0</ele>
        <time>2022-09-22T16:42:04Z</time>
      </trkpt>
      <trkpt lat="39.8570100" lon="3.1064430">
        <ele>0.2</ele>
        <time>2022-09-22T16:42:05Z</time>
      </trkpt>
      <trkpt lat="39.8570120" lon="3.1064250">
        <ele>0.2</ele>
        <time>2022-09-22T16:42:06Z</time>
      </trkpt>
      <trkpt lat="39.8570390" lon="3.1063440">
        <ele>0.2</ele>
        <time>2022-09-22T16:42:10Z</time>
      </trkpt>
      <trkpt lat="39.8570510" lon="3.1063230">
        <ele>0.2</ele>
        <time>2022-09-22T16:42:11Z</time>
      </trkpt>
      <trkpt lat="39.8570700" lon="3.1061840">
        <ele>0.2</ele>
        <time>2022-09-22T16:42:16Z</time>
      </trkpt>
      <trkpt lat="39.8570800" lon="3.1060730">
        <ele>0.2</ele>
        <time>2022-09-22T16:42:20Z</time>
      </trkpt>
      <trkpt lat="39.8571020" lon="3.1060020">
        <ele>0.2</ele>
        <time>2022-09-22T16:42:23Z</time>
      </trkpt>
      <trkpt lat="39.8571160" lon="3.1058560">
        <ele>0.2</ele>
        <time>2022-09-22T16:42:29Z</time>
      </trkpt>
      <trkpt lat="39.8571420" lon="3.1056620">
        <ele>0.2</ele>
        <time>2022-09-22T16:42:35Z</time>
      </trkpt>
      <trkpt lat="39.8571960" lon="3.1054000">
        <ele>0.2</ele>
        <time>2022-09-22T16:42:41Z</time>
      </trkpt>
      <trkpt lat="39.8572360" lon="3.1051540">
        <ele>0.2</ele>
        <time>2022-09-22T16:42:47Z</time>
      </trkpt>
      <trkpt lat="39.8572410" lon="3.1050220">
        <ele>0.2</ele>
        <time>2022-09-22T16:42:51Z</time>
      </trkpt>
      <trkpt lat="39.8572430" lon="3.1049960">
        <ele>0.2</ele>
        <time>2022-09-22T16:42:52Z</time>
      </trkpt>
      <trkpt lat="39.8572520" lon="3.1049660">
        <ele>0.2</ele>
        <time>2022-09-22T16:42:53Z</time>
      </trkpt>
      <trkpt lat="39.8573050" lon="3.1048680">
        <ele>0.2</ele>
        <time>2022-09-22T16:42:56Z</time>
      </trkpt>
      <trkpt lat="39.8574160" lon="3.1046150">
        <ele>0.6</ele>
        <time>2022-09-22T16:43:02Z</time>
      </trkpt>
      <trkpt lat="39.8575590" lon="3.1042870">
        <ele>0.8</ele>
        <time>2022-09-22T16:43:08Z</time>
      </trkpt>
      <trkpt lat="39.8576110" lon="3.1041690">
        <ele>0.6</ele>
        <time>2022-09-22T16:43:10Z</time>
      </trkpt>
      <trkpt lat="39.8578120" lon="3.1036740">
        <ele>0.6</ele>
        <time>2022-09-22T16:43:18Z</time>
      </trkpt>
      <trkpt lat="39.8579980" lon="3.1030690">
        <ele>0.6</ele>
        <time>2022-09-22T16:43:27Z</time>
      </trkpt>
      <trkpt lat="39.8581150" lon="3.1026600">
        <ele>0.8</ele>
        <time>2022-09-22T16:43:33Z</time>
      </trkpt>
      <trkpt lat="39.8581370" lon="3.1025920">
        <ele>0.8</ele>
        <time>2022-09-22T16:43:34Z</time>
      </trkpt>
      <trkpt lat="39.8583090" lon="3.1020200">
        <ele>0.6</ele>
        <time>2022-09-22T16:43:42Z</time>
      </trkpt>
      <trkpt lat="39.8583290" lon="3.1019470">
        <ele>0.6</ele>
        <time>2022-09-22T16:43:43Z</time>
      </trkpt>
      <trkpt lat="39.8584560" lon="3.1015060">
        <ele>0.8</ele>
        <time>2022-09-22T16:43:49Z</time>
      </trkpt>
      <trkpt lat="39.8585280" lon="3.1012050">
        <ele>0.6</ele>
        <time>2022-09-22T16:43:53Z</time>
      </trkpt>
      <trkpt lat="39.8586110" lon="3.1006480">
        <ele>0.8</ele>
        <time>2022-09-22T16:44:00Z</time>
      </trkpt>
      <trkpt lat="39.8587240" lon="3.0999270">
        <ele>0.2</ele>
        <time>2022-09-22T16:44:09Z</time>
      </trkpt>
      <trkpt lat="39.8587420" lon="3.0998500">
        <ele>0.2</ele>
        <time>2022-09-22T16:44:10Z</time>
      </trkpt>
      <trkpt lat="39.8589230" lon="3.0993400">
        <ele>0.2</ele>
        <time>2022-09-22T16:44:17Z</time>
      </trkpt>
      <trkpt lat="39.8591970" lon="3.0989070">
        <ele>0.2</ele>
        <time>2022-09-22T16:44:24Z</time>
      </trkpt>
      <trkpt lat="39.8595370" lon="3.0985850">
        <ele>0.2</ele>
        <time>2022-09-22T16:44:31Z</time>
      </trkpt>
      <trkpt lat="39.8600040" lon="3.0982380">
        <ele>0.2</ele>
        <time>2022-09-22T16:44:40Z</time>
      </trkpt>
      <trkpt lat="39.8604440" lon="3.0979090">
        <ele>0.2</ele>
        <time>2022-09-22T16:44:49Z</time>
      </trkpt>
      <trkpt lat="39.8604910" lon="3.0978730">
        <ele>0.2</ele>
        <time>2022-09-22T16:44:50Z</time>
      </trkpt>
      <trkpt lat="39.8606730" lon="3.0977310">
        <ele>0.4</ele>
        <time>2022-09-22T16:44:54Z</time>
      </trkpt>
      <trkpt lat="39.8608260" lon="3.0976080">
        <ele>0.4</ele>
        <time>2022-09-22T16:44:58Z</time>
      </trkpt>
      <trkpt lat="39.8609480" lon="3.0975120">
        <ele>0.6</ele>
        <time>2022-09-22T16:45:02Z</time>
      </trkpt>
      <trkpt lat="39.8610210" lon="3.0974490">
        <ele>0.8</ele>
        <time>2022-09-22T16:45:05Z</time>
      </trkpt>
      <trkpt lat="39.8611070" lon="3.0973790">
        <ele>0.8</ele>
        <time>2022-09-22T16:45:09Z</time>
      </trkpt>
      <trkpt lat="39.8611840" lon="3.0973100">
        <ele>0.8</ele>
        <time>2022-09-22T16:45:13Z</time>
      </trkpt>
      <trkpt lat="39.8612020" lon="3.0972950">
        <ele>1.0</ele>
        <time>2022-09-22T16:45:14Z</time>
      </trkpt>
      <trkpt lat="39.8612780" lon="3.0972200">
        <ele>1.0</ele>
        <time>2022-09-22T16:45:19Z</time>
      </trkpt>
      <trkpt lat="39.8613400" lon="3.0971510">
        <ele>1.2</ele>
        <time>2022-09-22T16:45:22Z</time>
      </trkpt>
      <trkpt lat="39.8613870" lon="3.0970900">
        <ele>1.2</ele>
        <time>2022-09-22T16:45:24Z</time>
      </trkpt>
      <trkpt lat="39.8614990" lon="3.0969370">
        <ele>1.2</ele>
        <time>2022-09-22T16:45:28Z</time>
      </trkpt>
      <trkpt lat="39.8615710" lon="3.0968500">
        <ele>1.2</ele>
        <time>2022-09-22T16:45:30Z</time>
      </trkpt>
      <trkpt lat="39.8616450" lon="3.0967530">
        <ele>1.0</ele>
        <time>2022-09-22T16:45:32Z</time>
      </trkpt>
      <trkpt lat="39.8616820" lon="3.0967020">
        <ele>0.8</ele>
        <time>2022-09-22T16:45:33Z</time>
      </trkpt>
      <trkpt lat="39.8617560" lon="3.0965980">
        <ele>0.6</ele>
        <time>2022-09-22T16:45:35Z</time>
      </trkpt>
      <trkpt lat="39.8619830" lon="3.0962910">
        <ele>0.4</ele>
        <time>2022-09-22T16:45:41Z</time>
      </trkpt>
      <trkpt lat="39.8622470" lon="3.0959340">
        <ele>0.2</ele>
        <time>2022-09-22T16:45:48Z</time>
      </trkpt>
      <trkpt lat="39.8624720" lon="3.0956280">
        <ele>0.4</ele>
        <time>2022-09-22T16:45:54Z</time>
      </trkpt>
      <trkpt lat="39.8626950" lon="3.0953190">
        <ele>0.4</ele>
        <time>2022-09-22T16:46:00Z</time>
      </trkpt>
      <trkpt lat="39.8627700" lon="3.0952150">
        <ele>0.4</ele>
        <time>2022-09-22T16:46:02Z</time>
      </trkpt>
      <trkpt lat="39.8630760" lon="3.0947960">
        <ele>0.2</ele>
        <time>2022-09-22T16:46:10Z</time>
      </trkpt>
      <trkpt lat="39.8631940" lon="3.0946300">
        <ele>0.2</ele>
        <time>2022-09-22T16:46:13Z</time>
      </trkpt>
      <trkpt lat="39.8634820" lon="3.0941980">
        <ele>0.2</ele>
        <time>2022-09-22T16:46:21Z</time>
      </trkpt>
      <trkpt lat="39.8637230" lon="3.0938080">
        <ele>0.0</ele>
        <time>2022-09-22T16:46:28Z</time>
      </trkpt>
      <trkpt lat="39.8637960" lon="3.0936840">
        <ele>0.0</ele>
        <time>2022-09-22T16:46:30Z</time>
      </trkpt>
      <trkpt lat="39.8639810" lon="3.0933780">
        <ele>0.0</ele>
        <time>2022-09-22T16:46:35Z</time>
      </trkpt>
      <trkpt lat="39.8640530" lon="3.0932530">
        <ele>0.0</ele>
        <time>2022-09-22T16:46:37Z</time>
      </trkpt>
      <trkpt lat="39.8641630" lon="3.0930680">
        <ele>0.0</ele>
        <time>2022-09-22T16:46:40Z</time>
      </trkpt>
      <trkpt lat="39.8644450" lon="3.0925630">
        <ele>0.4</ele>
        <time>2022-09-22T16:46:48Z</time>
      </trkpt>
      <trkpt lat="39.8647670" lon="3.0919990">
        <ele>0.6</ele>
        <time>2022-09-22T16:46:57Z</time>
      </trkpt>
      <trkpt lat="39.8650940" lon="3.0914530">
        <ele>0.6</ele>
        <time>2022-09-22T16:47:06Z</time>
      </trkpt>
      <trkpt lat="39.8654770" lon="3.0908660">
        <ele>0.6</ele>
        <time>2022-09-22T16:47:16Z</time>
      </trkpt>
      <trkpt lat="39.8657860" lon="3.0904890">
        <ele>0.4</ele>
        <time>2022-09-22T16:47:23Z</time>
      </trkpt>
      <trkpt lat="39.8662160" lon="3.0900230">
        <ele>-0.4</ele>
        <time>2022-09-22T16:47:32Z</time>
      </trkpt>
      <trkpt lat="39.8666960" lon="3.0895650">
        <ele>-0.8</ele>
        <time>2022-09-22T16:47:42Z</time>
      </trkpt>
      <trkpt lat="39.8671490" lon="3.0891980">
        <ele>-0.2</ele>
        <time>2022-09-22T16:47:51Z</time>
      </trkpt>
      <trkpt lat="39.8676550" lon="3.0887920">
        <ele>-0.4</ele>
        <time>2022-09-22T16:48:01Z</time>
      </trkpt>
      <trkpt lat="39.8681560" lon="3.0883820">
        <ele>-0.4</ele>
        <time>2022-09-22T16:48:11Z</time>
      </trkpt>
      <trkpt lat="39.8686160" lon="3.0880100">
        <ele>-0.4</ele>
        <time>2022-09-22T16:48:20Z</time>
      </trkpt>
      <trkpt lat="39.8687660" lon="3.0878880">
        <ele>-0.6</ele>
        <time>2022-09-22T16:48:23Z</time>
      </trkpt>
      <trkpt lat="39.8691690" lon="3.0875620">
        <ele>-0.8</ele>
        <time>2022-09-22T16:48:31Z</time>
      </trkpt>
      <trkpt lat="39.8693680" lon="3.0874050">
        <ele>-0.8</ele>
        <time>2022-09-22T16:48:35Z</time>
      </trkpt>
      <trkpt lat="39.8696180" lon="3.0871990">
        <ele>-0.8</ele>
        <time>2022-09-22T16:48:40Z</time>
      </trkpt>
      <trkpt lat="39.8697710" lon="3.0870780">
        <ele>-0.8</ele>
        <time>2022-09-22T16:48:43Z</time>
      </trkpt>
      <trkpt lat="39.8702370" lon="3.0867160">
        <ele>-0.8</ele>
        <time>2022-09-22T16:48:52Z</time>
      </trkpt>
      <trkpt lat="39.8702910" lon="3.0866770">
        <ele>-0.8</ele>
        <time>2022-09-22T16:48:53Z</time>
      </trkpt>
      <trkpt lat="39.8707890" lon="3.0863550">
        <ele>-1.0</ele>
        <time>2022-09-22T16:49:02Z</time>
      </trkpt>
      <trkpt lat="39.8708450" lon="3.0863200">
        <ele>-1.0</ele>
        <time>2022-09-22T16:49:03Z</time>
      </trkpt>
      <trkpt lat="39.8713660" lon="3.0859980">
        <ele>-0.8</ele>
        <time>2022-09-22T16:49:12Z</time>
      </trkpt>
      <trkpt lat="39.8718590" lon="3.0857030">
        <ele>-0.6</ele>
        <time>2022-09-22T16:49:20Z</time>
      </trkpt>
      <trkpt lat="39.8719250" lon="3.0856560">
        <ele>-0.8</ele>
        <time>2022-09-22T16:49:21Z</time>
      </trkpt>
      <trkpt lat="39.8721410" lon="3.0855200">
        <ele>-0.8</ele>
        <time>2022-09-22T16:49:24Z</time>
      </trkpt>
      <trkpt lat="39.8722860" lon="3.0854290">
        <ele>-0.8</ele>
        <time>2022-09-22T16:49:26Z</time>
      </trkpt>
      <trkpt lat="39.8724250" lon="3.0853410">
        <ele>-0.8</ele>
        <time>2022-09-22T16:49:28Z</time>
      </trkpt>
      <trkpt lat="39.8729800" lon="3.0850000">
        <ele>-0.2</ele>
        <time>2022-09-22T16:49:36Z</time>
      </trkpt>
      <trkpt lat="39.8734940" lon="3.0846890">
        <ele>-0.2</ele>
        <time>2022-09-22T16:49:43Z</time>
      </trkpt>
      <trkpt lat="39.8737050" lon="3.0845600">
        <ele>-0.2</ele>
        <time>2022-09-22T16:49:46Z</time>
      </trkpt>
      <trkpt lat="39.8742070" lon="3.0842640">
        <ele>-0.2</ele>
        <time>2022-09-22T16:49:53Z</time>
      </trkpt>
      <trkpt lat="39.8744100" lon="3.0841400">
        <ele>-0.4</ele>
        <time>2022-09-22T16:49:56Z</time>
      </trkpt>
      <trkpt lat="39.8749410" lon="3.0838270">
        <ele>-0.6</ele>
        <time>2022-09-22T16:50:04Z</time>
      </trkpt>
      <trkpt lat="39.8754880" lon="3.0835230">
        <ele>-0.2</ele>
        <time>2022-09-22T16:50:12Z</time>
      </trkpt>
      <trkpt lat="39.8756230" lon="3.0834470">
        <ele>-0.2</ele>
        <time>2022-09-22T16:50:14Z</time>
      </trkpt>
      <trkpt lat="39.8759640" lon="3.0832590">
        <ele>-0.2</ele>
        <time>2022-09-22T16:50:19Z</time>
      </trkpt>
      <trkpt lat="39.8763020" lon="3.0830760">
        <ele>0.0</ele>
        <time>2022-09-22T16:50:24Z</time>
      </trkpt>
      <trkpt lat="39.8763700" lon="3.0830390">
        <ele>0.0</ele>
        <time>2022-09-22T16:50:25Z</time>
      </trkpt>
      <trkpt lat="39.8767080" lon="3.0828570">
        <ele>0.0</ele>
        <time>2022-09-22T16:50:30Z</time>
      </trkpt>
      <trkpt lat="39.8770530" lon="3.0826780">
        <ele>-0.2</ele>
        <time>2022-09-22T16:50:35Z</time>
      </trkpt>
      <trkpt lat="39.8776050" lon="3.0823920">
        <ele>-0.4</ele>
        <time>2022-09-22T16:50:43Z</time>
      </trkpt>
      <trkpt lat="39.8778770" lon="3.0822540">
        <ele>-0.4</ele>
        <time>2022-09-22T16:50:47Z</time>
      </trkpt>
      <trkpt lat="39.8784200" lon="3.0819830">
        <ele>-0.4</ele>
        <time>2022-09-22T16:50:55Z</time>
      </trkpt>
      <trkpt lat="39.8789620" lon="3.0817120">
        <ele>-0.4</ele>
        <time>2022-09-22T16:51:03Z</time>
      </trkpt>
      <trkpt lat="39.8791680" lon="3.0816190">
        <ele>-0.6</ele>
        <time>2022-09-22T16:51:06Z</time>
      </trkpt>
      <trkpt lat="39.8797200" lon="3.0814010">
        <ele>-0.6</ele>
        <time>2022-09-22T16:51:14Z</time>
      </trkpt>
      <trkpt lat="39.8798580" lon="3.0813490">
        <ele>-0.4</ele>
        <time>2022-09-22T16:51:16Z</time>
      </trkpt>
      <trkpt lat="39.8804110" lon="3.0811480">
        <ele>-0.4</ele>
        <time>2022-09-22T16:51:24Z</time>
      </trkpt>
      <trkpt lat="39.8805550" lon="3.0810940">
        <ele>-0.4</ele>
        <time>2022-09-22T16:51:26Z</time>
      </trkpt>
      <trkpt lat="39.8808500" lon="3.0809870">
        <ele>-0.4</ele>
        <time>2022-09-22T16:51:30Z</time>
      </trkpt>
      <trkpt lat="39.8812740" lon="3.0808290">
        <ele>-0.6</ele>
        <time>2022-09-22T16:51:36Z</time>
      </trkpt>
      <trkpt lat="39.8818060" lon="3.0806360">
        <ele>-0.6</ele>
        <time>2022-09-22T16:51:44Z</time>
      </trkpt>
      <trkpt lat="39.8821980" lon="3.0804950">
        <ele>0.0</ele>
        <time>2022-09-22T16:51:50Z</time>
      </trkpt>
      <trkpt lat="39.8824430" lon="3.0804040">
        <ele>0.2</ele>
        <time>2022-09-22T16:51:54Z</time>
      </trkpt>
      <trkpt lat="39.8829140" lon="3.0802320">
        <ele>0.8</ele>
        <time>2022-09-22T16:52:02Z</time>
      </trkpt>
      <trkpt lat="39.8829690" lon="3.0802100">
        <ele>0.8</ele>
        <time>2022-09-22T16:52:03Z</time>
      </trkpt>
      <trkpt lat="39.8830740" lon="3.0801590">
        <ele>1.0</ele>
        <time>2022-09-22T16:52:05Z</time>
      </trkpt>
      <trkpt lat="39.8832150" lon="3.0800510">
        <ele>1.0</ele>
        <time>2022-09-22T16:52:08Z</time>
      </trkpt>
      <trkpt lat="39.8833060" lon="3.0799630">
        <ele>1.0</ele>
        <time>2022-09-22T16:52:10Z</time>
      </trkpt>
      <trkpt lat="39.8834380" lon="3.0798210">
        <ele>1.0</ele>
        <time>2022-09-22T16:52:13Z</time>
      </trkpt>
      <trkpt lat="39.8835350" lon="3.0797290">
        <ele>0.8</ele>
        <time>2022-09-22T16:52:15Z</time>
      </trkpt>
      <trkpt lat="39.8835890" lon="3.0796900">
        <ele>0.6</ele>
        <time>2022-09-22T16:52:16Z</time>
      </trkpt>
      <trkpt lat="39.8837600" lon="3.0796190">
        <ele>0.0</ele>
        <time>2022-09-22T16:52:19Z</time>
      </trkpt>
      <trkpt lat="39.8840030" lon="3.0796450">
        <ele>-0.6</ele>
        <time>2022-09-22T16:52:23Z</time>
      </trkpt>
      <trkpt lat="39.8843700" lon="3.0796700">
        <ele>-1.0</ele>
        <time>2022-09-22T16:52:29Z</time>
      </trkpt>
      <trkpt lat="39.8847290" lon="3.0795680">
        <ele>-0.6</ele>
        <time>2022-09-22T16:52:35Z</time>
      </trkpt>
      <trkpt lat="39.8848530" lon="3.0795200">
        <ele>-0.6</ele>
        <time>2022-09-22T16:52:37Z</time>
      </trkpt>
      <trkpt lat="39.8850440" lon="3.0794410">
        <ele>-0.6</ele>
        <time>2022-09-22T16:52:40Z</time>
      </trkpt>
      <trkpt lat="39.8852990" lon="3.0793390">
        <ele>-0.6</ele>
        <time>2022-09-22T16:52:44Z</time>
      </trkpt>
      <trkpt lat="39.8858810" lon="3.0791200">
        <ele>-0.6</ele>
        <time>2022-09-22T16:52:53Z</time>
      </trkpt>
      <trkpt lat="39.8860810" lon="3.0790460">
        <ele>-0.4</ele>
        <time>2022-09-22T16:52:56Z</time>
      </trkpt>
      <trkpt lat="39.8862850" lon="3.0789720">
        <ele>-0.4</ele>
        <time>2022-09-22T16:52:59Z</time>
      </trkpt>
      <trkpt lat="39.8866930" lon="3.0788190">
        <ele>-0.6</ele>
        <time>2022-09-22T16:53:05Z</time>
      </trkpt>
      <trkpt lat="39.8867610" lon="3.0787940">
        <ele>-0.6</ele>
        <time>2022-09-22T16:53:06Z</time>
      </trkpt>
      <trkpt lat="39.8872430" lon="3.0786160">
        <ele>-0.8</ele>
        <time>2022-09-22T16:53:13Z</time>
      </trkpt>
      <trkpt lat="39.8873810" lon="3.0785680">
        <ele>-0.8</ele>
        <time>2022-09-22T16:53:15Z</time>
      </trkpt>
      <trkpt lat="39.8878690" lon="3.0784000">
        <ele>-0.8</ele>
        <time>2022-09-22T16:53:22Z</time>
      </trkpt>
      <trkpt lat="39.8881470" lon="3.0783110">
        <ele>-0.8</ele>
        <time>2022-09-22T16:53:26Z</time>
      </trkpt>
      <trkpt lat="39.8883590" lon="3.0782660">
        <ele>-0.8</ele>
        <time>2022-09-22T16:53:29Z</time>
      </trkpt>
      <trkpt lat="39.8889350" lon="3.0782180">
        <ele>-1.0</ele>
        <time>2022-09-22T16:53:37Z</time>
      </trkpt>
      <trkpt lat="39.8894180" lon="3.0782160">
        <ele>-0.8</ele>
        <time>2022-09-22T16:53:44Z</time>
      </trkpt>
      <trkpt lat="39.8899030" lon="3.0782280">
        <ele>-0.8</ele>
        <time>2022-09-22T16:53:51Z</time>
      </trkpt>
      <trkpt lat="39.8901070" lon="3.0782290">
        <ele>-0.8</ele>
        <time>2022-09-22T16:53:54Z</time>
      </trkpt>
      <trkpt lat="39.8905740" lon="3.0782330">
        <ele>-0.8</ele>
        <time>2022-09-22T16:54:01Z</time>
      </trkpt>
      <trkpt lat="39.8907750" lon="3.0782340">
        <ele>-0.8</ele>
        <time>2022-09-22T16:54:04Z</time>
      </trkpt>
      <trkpt lat="39.8913710" lon="3.0782410">
        <ele>-0.8</ele>
        <time>2022-09-22T16:54:13Z</time>
      </trkpt>
      <trkpt lat="39.8916320" lon="3.0782400">
        <ele>-0.8</ele>
        <time>2022-09-22T16:54:17Z</time>
      </trkpt>
      <trkpt lat="39.8918290" lon="3.0782450">
        <ele>-0.8</ele>
        <time>2022-09-22T16:54:20Z</time>
      </trkpt>
      <trkpt lat="39.8923290" lon="3.0782410">
        <ele>-0.8</ele>
        <time>2022-09-22T16:54:28Z</time>
      </trkpt>
      <trkpt lat="39.8925200" lon="3.0782460">
        <ele>-0.8</ele>
        <time>2022-09-22T16:54:31Z</time>
      </trkpt>
      <trkpt lat="39.8929070" lon="3.0782490">
        <ele>-1.0</ele>
        <time>2022-09-22T16:54:37Z</time>
      </trkpt>
      <trkpt lat="39.8930980" lon="3.0782550">
        <ele>-1.0</ele>
        <time>2022-09-22T16:54:40Z</time>
      </trkpt>
      <trkpt lat="39.8932270" lon="3.0782570">
        <ele>-1.2</ele>
        <time>2022-09-22T16:54:42Z</time>
      </trkpt>
      <trkpt lat="39.8937690" lon="3.0782570">
        <ele>-1.6</ele>
        <time>2022-09-22T16:54:50Z</time>
      </trkpt>
      <trkpt lat="39.8941260" lon="3.0782690">
        <ele>-1.8</ele>
        <time>2022-09-22T16:54:55Z</time>
      </trkpt>
      <trkpt lat="39.8943370" lon="3.0782700">
        <ele>-1.8</ele>
        <time>2022-09-22T16:54:58Z</time>
      </trkpt>
      <trkpt lat="39.8944050" lon="3.0782690">
        <ele>-2.0</ele>
        <time>2022-09-22T16:54:59Z</time>
      </trkpt>
      <trkpt lat="39.8949910" lon="3.0782770">
        <ele>-2.0</ele>
        <time>2022-09-22T16:55:08Z</time>
      </trkpt>
      <trkpt lat="39.8950560" lon="3.0782790">
        <ele>-2.0</ele>
        <time>2022-09-22T16:55:09Z</time>
      </trkpt>
      <trkpt lat="39.8955050" lon="3.0783450">
        <ele>-2.0</ele>
        <time>2022-09-22T16:55:16Z</time>
      </trkpt>
      <trkpt lat="39.8960180" lon="3.0784760">
        <ele>-2.0</ele>
        <time>2022-09-22T16:55:24Z</time>
      </trkpt>
      <trkpt lat="39.8963320" lon="3.0785570">
        <ele>-2.0</ele>
        <time>2022-09-22T16:55:29Z</time>
      </trkpt>
      <trkpt lat="39.8965940" lon="3.0786190">
        <ele>-2.0</ele>
        <time>2022-09-22T16:55:33Z</time>
      </trkpt>
      <trkpt lat="39.8967290" lon="3.0786540">
        <ele>-2.0</ele>
        <time>2022-09-22T16:55:35Z</time>
      </trkpt>
      <trkpt lat="39.8971750" lon="3.0787830">
        <ele>-2.0</ele>
        <time>2022-09-22T16:55:42Z</time>
      </trkpt>
      <trkpt lat="39.8977390" lon="3.0789370">
        <ele>-2.0</ele>
        <time>2022-09-22T16:55:51Z</time>
      </trkpt>
      <trkpt lat="39.8980930" lon="3.0790340">
        <ele>-2.2</ele>
        <time>2022-09-22T16:55:57Z</time>
      </trkpt>
      <trkpt lat="39.8982690" lon="3.0790810">
        <ele>-2.2</ele>
        <time>2022-09-22T16:56:00Z</time>
      </trkpt>
      <trkpt lat="39.8983280" lon="3.0790950">
        <ele>-2.2</ele>
        <time>2022-09-22T16:56:01Z</time>
      </trkpt>
      <trkpt lat="39.8988640" lon="3.0792350">
        <ele>-2.0</ele>
        <time>2022-09-22T16:56:10Z</time>
      </trkpt>
      <trkpt lat="39.8989790" lon="3.0792610">
        <ele>-1.8</ele>
        <time>2022-09-22T16:56:12Z</time>
      </trkpt>
      <trkpt lat="39.8995070" lon="3.0793600">
        <ele>-1.6</ele>
        <time>2022-09-22T16:56:21Z</time>
      </trkpt>
      <trkpt lat="39.8997950" lon="3.0794000">
        <ele>-1.6</ele>
        <time>2022-09-22T16:56:26Z</time>
      </trkpt>
      <trkpt lat="39.9000050" lon="3.0794320">
        <ele>-1.6</ele>
        <time>2022-09-22T16:56:30Z</time>
      </trkpt>
      <trkpt lat="39.9003390" lon="3.0794810">
        <ele>-1.6</ele>
        <time>2022-09-22T16:56:37Z</time>
      </trkpt>
      <trkpt lat="39.9007940" lon="3.0795460">
        <ele>-1.8</ele>
        <time>2022-09-22T16:56:46Z</time>
      </trkpt>
      <trkpt lat="39.9010290" lon="3.0795790">
        <ele>-1.8</ele>
        <time>2022-09-22T16:56:51Z</time>
      </trkpt>
      <trkpt lat="39.9011530" lon="3.0795980">
        <ele>-1.8</ele>
        <time>2022-09-22T16:56:54Z</time>
      </trkpt>
      <trkpt lat="39.9013810" lon="3.0796470">
        <ele>-1.8</ele>
        <time>2022-09-22T16:56:59Z</time>
      </trkpt>
      <trkpt lat="39.9018020" lon="3.0797810">
        <ele>-2.0</ele>
        <time>2022-09-22T16:57:06Z</time>
      </trkpt>
      <trkpt lat="39.9019420" lon="3.0798350">
        <ele>-2.4</ele>
        <time>2022-09-22T16:57:08Z</time>
      </trkpt>
      <trkpt lat="39.9020110" lon="3.0798600">
        <ele>-2.4</ele>
        <time>2022-09-22T16:57:09Z</time>
      </trkpt>
      <trkpt lat="39.9021490" lon="3.0799060">
        <ele>-2.6</ele>
        <time>2022-09-22T16:57:11Z</time>
      </trkpt>
      <trkpt lat="39.9022860" lon="3.0799570">
        <ele>-2.6</ele>
        <time>2022-09-22T16:57:13Z</time>
      </trkpt>
      <trkpt lat="39.9024240" lon="3.0800110">
        <ele>-2.6</ele>
        <time>2022-09-22T16:57:15Z</time>
      </trkpt>
      <trkpt lat="39.9028140" lon="3.0802340">
        <ele>-2.8</ele>
        <time>2022-09-22T16:57:21Z</time>
      </trkpt>
      <trkpt lat="39.9031210" lon="3.0804840">
        <ele>-2.6</ele>
        <time>2022-09-22T16:57:26Z</time>
      </trkpt>
      <trkpt lat="39.9033000" lon="3.0806110">
        <ele>-2.6</ele>
        <time>2022-09-22T16:57:29Z</time>
      </trkpt>
      <trkpt lat="39.9036960" lon="3.0809240">
        <ele>-2.6</ele>
        <time>2022-09-22T16:57:36Z</time>
      </trkpt>
      <trkpt lat="39.9042050" lon="3.0813190">
        <ele>-2.6</ele>
        <time>2022-09-22T16:57:45Z</time>
      </trkpt>
      <trkpt lat="39.9042600" lon="3.0813590">
        <ele>-2.6</ele>
        <time>2022-09-22T16:57:46Z</time>
      </trkpt>
      <trkpt lat="39.9045140" lon="3.0815670">
        <ele>-2.6</ele>
        <time>2022-09-22T16:57:51Z</time>
      </trkpt>
      <trkpt lat="39.9045320" lon="3.0816360">
        <ele>-2.6</ele>
        <time>2022-09-22T16:57:52Z</time>
      </trkpt>
      <trkpt lat="39.9044940" lon="3.0818730">
        <ele>-2.6</ele>
        <time>2022-09-22T16:57:55Z</time>
      </trkpt>
      <trkpt lat="39.9044700" lon="3.0819520">
        <ele>-2.6</ele>
        <time>2022-09-22T16:57:56Z</time>
      </trkpt>
      <trkpt lat="39.9043230" lon="3.0824400">
        <ele>-2.6</ele>
        <time>2022-09-22T16:58:02Z</time>
      </trkpt>
      <trkpt lat="39.9042470" lon="3.0827780">
        <ele>-2.4</ele>
        <time>2022-09-22T16:58:06Z</time>
      </trkpt>
      <trkpt lat="39.9041390" lon="3.0831940">
        <ele>-2.4</ele>
        <time>2022-09-22T16:58:11Z</time>
      </trkpt>
      <trkpt lat="39.9039450" lon="3.0838850">
        <ele>-2.8</ele>
        <time>2022-09-22T16:58:19Z</time>
      </trkpt>
      <trkpt lat="39.9038060" lon="3.0843120">
        <ele>-2.8</ele>
        <time>2022-09-22T16:58:24Z</time>
      </trkpt>
      <trkpt lat="39.9037900" lon="3.0844900">
        <ele>-2.8</ele>
        <time>2022-09-22T16:58:26Z</time>
      </trkpt>
      <trkpt lat="39.9038620" lon="3.0848350">
        <ele>-2.8</ele>
        <time>2022-09-22T16:58:30Z</time>
      </trkpt>
      <trkpt lat="39.9040260" lon="3.0853870">
        <ele>-2.6</ele>
        <time>2022-09-22T16:58:37Z</time>
      </trkpt>
      <trkpt lat="39.9040400" lon="3.0855750">
        <ele>-2.6</ele>
        <time>2022-09-22T16:58:40Z</time>
      </trkpt>
      <trkpt lat="39.9039720" lon="3.0856170">
        <ele>-2.4</ele>
        <time>2022-09-22T16:58:43Z</time>
      </trkpt>
      <trkpt lat="39.9039480" lon="3.0855620">
        <ele>-2.2</ele>
        <time>2022-09-22T16:58:46Z</time>
      </trkpt>
      <trkpt lat="39.9039460" lon="3.0855520">
        <ele>-2.2</ele>
        <time>2022-09-22T16:58:47Z</time>
      </trkpt>
      <trkpt lat="39.9039420" lon="3.0855480">
        <ele>-1.6</ele>
        <time>2022-09-22T16:58:49Z</time>
      </trkpt>
      <trkpt lat="39.9044640" lon="3.0820450">
        <ele>1.8</ele>
        <time>2022-09-22T17:13:46Z</time>
      </trkpt>
      <trkpt lat="39.9044870" lon="3.0819900">
        <ele>1.8</ele>
        <time>2022-09-22T17:13:47Z</time>
      </trkpt>
      <trkpt lat="39.9045180" lon="3.0819040">
        <ele>1.6</ele>
        <time>2022-09-22T17:13:49Z</time>
      </trkpt>
      <trkpt lat="39.9045370" lon="3.0818270">
        <ele>1.8</ele>
        <time>2022-09-22T17:13:52Z</time>
      </trkpt>
      <trkpt lat="39.9046070" lon="3.0816590">
        <ele>1.8</ele>
        <time>2022-09-22T17:13:55Z</time>
      </trkpt>
      <trkpt lat="39.9046600" lon="3.0816010">
        <ele>1.8</ele>
        <time>2022-09-22T17:13:57Z</time>
      </trkpt>
      <trkpt lat="39.9047730" lon="3.0816660">
        <ele>1.8</ele>
        <time>2022-09-22T17:14:00Z</time>
      </trkpt>
      <trkpt lat="39.9049210" lon="3.0817710">
        <ele>1.6</ele>
        <time>2022-09-22T17:14:03Z</time>
      </trkpt>
      <trkpt lat="39.9050780" lon="3.0818820">
        <ele>1.4</ele>
        <time>2022-09-22T17:14:06Z</time>
      </trkpt>
      <trkpt lat="39.9051830" lon="3.0819520">
        <ele>1.0</ele>
        <time>2022-09-22T17:14:08Z</time>
      </trkpt>
      <trkpt lat="39.9052360" lon="3.0819900">
        <ele>0.8</ele>
        <time>2022-09-22T17:14:09Z</time>
      </trkpt>
      <trkpt lat="39.9054960" lon="3.0821710">
        <ele>0.4</ele>
        <time>2022-09-22T17:14:14Z</time>
      </trkpt>
      <trkpt lat="39.9056970" lon="3.0823130">
        <ele>0.4</ele>
        <time>2022-09-22T17:14:18Z</time>
      </trkpt>
      <trkpt lat="39.9059430" lon="3.0824890">
        <ele>0.4</ele>
        <time>2022-09-22T17:14:23Z</time>
      </trkpt>
      <trkpt lat="39.9060250" lon="3.0825800">
        <ele>0.4</ele>
        <time>2022-09-22T17:14:25Z</time>
      </trkpt>
      <trkpt lat="39.9062920" lon="3.0828950">
        <ele>0.6</ele>
        <time>2022-09-22T17:14:32Z</time>
      </trkpt>
      <trkpt lat="39.9064220" lon="3.0828690">
        <ele>0.6</ele>
        <time>2022-09-22T17:14:35Z</time>
      </trkpt>
      <trkpt lat="39.9064770" lon="3.0827720">
        <ele>0.8</ele>
        <time>2022-09-22T17:14:37Z</time>
      </trkpt>
      <trkpt lat="39.9065380" lon="3.0826720">
        <ele>1.0</ele>
        <time>2022-09-22T17:14:39Z</time>
      </trkpt>
      <trkpt lat="39.9065750" lon="3.0826290">
        <ele>1.0</ele>
        <time>2022-09-22T17:14:40Z</time>
      </trkpt>
      <trkpt lat="39.9068280" lon="3.0824150">
        <ele>1.4</ele>
        <time>2022-09-22T17:14:46Z</time>
      </trkpt>
      <trkpt lat="39.9069690" lon="3.0823850">
        <ele>1.6</ele>
        <time>2022-09-22T17:14:49Z</time>
      </trkpt>
      <trkpt lat="39.9070890" lon="3.0824850">
        <ele>1.6</ele>
        <time>2022-09-22T17:14:52Z</time>
      </trkpt>
      <trkpt lat="39.9071270" lon="3.0825210">
        <ele>1.6</ele>
        <time>2022-09-22T17:14:53Z</time>
      </trkpt>
      <trkpt lat="39.9072580" lon="3.0826630">
        <ele>1.6</ele>
        <time>2022-09-22T17:14:57Z</time>
      </trkpt>
      <trkpt lat="39.9073130" lon="3.0827070">
        <ele>1.6</ele>
        <time>2022-09-22T17:14:59Z</time>
      </trkpt>
      <trkpt lat="39.9073550" lon="3.0826800">
        <ele>1.6</ele>
        <time>2022-09-22T17:15:01Z</time>
      </trkpt>
      <trkpt lat="39.9073670" lon="3.0826670">
        <ele>1.6</ele>
        <time>2022-09-22T17:15:02Z</time>
      </trkpt>
      <trkpt lat="39.9073910" lon="3.0826360">
        <ele>2.0</ele>
        <time>2022-09-22T17:15:05Z</time>
      </trkpt>
      <trkpt lat="39.9073980" lon="3.0826280">
        <ele>2.0</ele>
        <time>2022-09-22T17:15:06Z</time>
      </trkpt>
      <trkpt lat="39.9074240" lon="3.0825890">
        <ele>2.2</ele>
        <time>2022-09-22T17:15:09Z</time>
      </trkpt>
      <trkpt lat="39.9074810" lon="3.0825190">
        <ele>2.4</ele>
        <time>2022-09-22T17:15:12Z</time>
      </trkpt>
      <trkpt lat="39.9075060" lon="3.0824870">
        <ele>2.4</ele>
        <time>2022-09-22T17:15:13Z</time>
      </trkpt>
      <trkpt lat="39.9075840" lon="3.0822430">
        <ele>2.4</ele>
        <time>2022-09-22T17:15:18Z</time>
      </trkpt>
      <trkpt lat="39.9075950" lon="3.0821220">
        <ele>2.4</ele>
        <time>2022-09-22T17:15:21Z</time>
      </trkpt>
      <trkpt lat="39.9076140" lon="3.0820840">
        <ele>2.4</ele>
        <time>2022-09-22T17:15:22Z</time>
      </trkpt>
      <trkpt lat="39.9076840" lon="3.0819800">
        <ele>2.4</ele>
        <time>2022-09-22T17:15:25Z</time>
      </trkpt>
      <trkpt lat="39.9077110" lon="3.0819330">
        <ele>2.4</ele>
        <time>2022-09-22T17:15:26Z</time>
      </trkpt>
      <trkpt lat="39.9077360" lon="3.0818780">
        <ele>2.4</ele>
        <time>2022-09-22T17:15:27Z</time>
      </trkpt>
      <trkpt lat="39.9078220" lon="3.0816950">
        <ele>2.2</ele>
        <time>2022-09-22T17:15:30Z</time>
      </trkpt>
      <trkpt lat="39.9078970" lon="3.0816160">
        <ele>2.0</ele>
        <time>2022-09-22T17:15:32Z</time>
      </trkpt>
      <trkpt lat="39.9079930" lon="3.0815750">
        <ele>2.0</ele>
        <time>2022-09-22T17:15:34Z</time>
      </trkpt>
      <trkpt lat="39.9080360" lon="3.0815360">
        <ele>2.0</ele>
        <time>2022-09-22T17:15:35Z</time>
      </trkpt>
      <trkpt lat="39.9080750" lon="3.0814810">
        <ele>2.0</ele>
        <time>2022-09-22T17:15:36Z</time>
      </trkpt>
      <trkpt lat="39.9081160" lon="3.0814220">
        <ele>2.0</ele>
        <time>2022-09-22T17:15:37Z</time>
      </trkpt>
      <trkpt lat="39.9082170" lon="3.0812540">
        <ele>2.0</ele>
        <time>2022-09-22T17:15:40Z</time>
      </trkpt>
      <trkpt lat="39.9082470" lon="3.0812050">
        <ele>2.0</ele>
        <time>2022-09-22T17:15:41Z</time>
      </trkpt>
      <trkpt lat="39.9083650" lon="3.0810080">
        <ele>2.2</ele>
        <time>2022-09-22T17:15:46Z</time>
      </trkpt>
      <trkpt lat="39.9084430" lon="3.0808640">
        <ele>3.0</ele>
        <time>2022-09-22T17:15:50Z</time>
      </trkpt>
      <trkpt lat="39.9084740" lon="3.0808160">
        <ele>3.2</ele>
        <time>2022-09-22T17:15:51Z</time>
      </trkpt>
      <trkpt lat="39.9085900" lon="3.0806410">
        <ele>3.6</ele>
        <time>2022-09-22T17:15:54Z</time>
      </trkpt>
      <trkpt lat="39.9086630" lon="3.0805160">
        <ele>3.8</ele>
        <time>2022-09-22T17:15:56Z</time>
      </trkpt>
      <trkpt lat="39.9087430" lon="3.0803450">
        <ele>3.8</ele>
        <time>2022-09-22T17:15:59Z</time>
      </trkpt>
      <trkpt lat="39.9088060" lon="3.0802540">
        <ele>3.8</ele>
        <time>2022-09-22T17:16:01Z</time>
      </trkpt>
      <trkpt lat="39.9088930" lon="3.0802110">
        <ele>4.0</ele>
        <time>2022-09-22T17:16:04Z</time>
      </trkpt>
      <trkpt lat="39.9089160" lon="3.0802240">
        <ele>4.2</ele>
        <time>2022-09-22T17:16:05Z</time>
      </trkpt>
      <trkpt lat="39.9089760" lon="3.0803040">
        <ele>4.8</ele>
        <time>2022-09-22T17:16:08Z</time>
      </trkpt>
      <trkpt lat="39.9089860" lon="3.0803310">
        <ele>5.0</ele>
        <time>2022-09-22T17:16:09Z</time>
      </trkpt>
      <trkpt lat="39.9089940" lon="3.0803490">
        <ele>5.2</ele>
        <time>2022-09-22T17:16:12Z</time>
      </trkpt>
    </trkseg>
  </trk>
</gpx>
